<?xml version="1.0" encoding="UTF-8" standalone="no" ?>
<gpx xmlns="http://www.topografix.com/GPX/1/1" xmlns:xsi="http://www.w3.org/2001/XMLSchema-instance" xsi:schemaLocation="http://www.topografix.com/GPX/1/1 http://www.topografix.com/GPX/1/1/gpx.xsd" version="1.1" creator="VisuGPX - https://www.visugpx.com">
  <metadata>
    <name>83-CD-2013-24-11-Vidauban - Forêt des Apiès</name>
    <desc><![CDATA[Vidauban - Forêt des Apiès]]></desc>
  </metadata>
  <trk>
    <name><![CDATA[2013-11-24-vidauban]]></name>
    <trkseg>
      <trkpt lat="43.43765" lon="6.48749">
        <ele>42.4</ele>
        <time>2013-11-24T08:32:02Z</time>
      </trkpt>
      <trkpt lat="43.43771" lon="6.48758">
        <ele>41.3</ele>
        <time>2013-11-24T08:32:36Z</time>
      </trkpt>
      <trkpt lat="43.43771" lon="6.48758">
        <ele>41.3</ele>
        <time>2013-11-24T08:32:37Z</time>
      </trkpt>
      <trkpt lat="43.43763" lon="6.48765">
        <ele>41.6</ele>
        <time>2013-11-24T08:36:19Z</time>
      </trkpt>
      <trkpt lat="43.43772" lon="6.48785">
        <ele>43.1</ele>
        <time>2013-11-24T08:36:49Z</time>
      </trkpt>
      <trkpt lat="43.43775" lon="6.48794">
        <ele>42.9</ele>
        <time>2013-11-24T08:36:55Z</time>
      </trkpt>
      <trkpt lat="43.43778" lon="6.48803">
        <ele>42.2</ele>
        <time>2013-11-24T08:37:01Z</time>
      </trkpt>
      <trkpt lat="43.43781" lon="6.48815">
        <ele>41.6</ele>
        <time>2013-11-24T08:37:10Z</time>
      </trkpt>
      <trkpt lat="43.43784" lon="6.48825">
        <ele>41</ele>
        <time>2013-11-24T08:37:16Z</time>
      </trkpt>
      <trkpt lat="43.43785" lon="6.48837">
        <ele>41.6</ele>
        <time>2013-11-24T08:37:22Z</time>
      </trkpt>
      <trkpt lat="43.43786" lon="6.48838">
        <ele>41.5</ele>
        <time>2013-11-24T08:37:23Z</time>
      </trkpt>
      <trkpt lat="43.43785" lon="6.48859">
        <ele>41.6</ele>
        <time>2013-11-24T08:37:35Z</time>
      </trkpt>
      <trkpt lat="43.43783" lon="6.48871">
        <ele>40.4</ele>
        <time>2013-11-24T08:37:43Z</time>
      </trkpt>
      <trkpt lat="43.43778" lon="6.48881">
        <ele>40.3</ele>
        <time>2013-11-24T08:37:51Z</time>
      </trkpt>
      <trkpt lat="43.43775" lon="6.48892">
        <ele>41</ele>
        <time>2013-11-24T08:37:57Z</time>
      </trkpt>
      <trkpt lat="43.43773" lon="6.48902">
        <ele>40.7</ele>
        <time>2013-11-24T08:38:04Z</time>
      </trkpt>
      <trkpt lat="43.4377" lon="6.48913">
        <ele>41.1</ele>
        <time>2013-11-24T08:38:10Z</time>
      </trkpt>
      <trkpt lat="43.43766" lon="6.48922">
        <ele>41.1</ele>
        <time>2013-11-24T08:38:16Z</time>
      </trkpt>
      <trkpt lat="43.43766" lon="6.48933">
        <ele>41.2</ele>
        <time>2013-11-24T08:38:21Z</time>
      </trkpt>
      <trkpt lat="43.43762" lon="6.48943">
        <ele>41.6</ele>
        <time>2013-11-24T08:38:28Z</time>
      </trkpt>
      <trkpt lat="43.43762" lon="6.48945">
        <ele>41.8</ele>
        <time>2013-11-24T08:38:29Z</time>
      </trkpt>
      <trkpt lat="43.4376" lon="6.48966">
        <ele>43.1</ele>
        <time>2013-11-24T08:38:42Z</time>
      </trkpt>
      <trkpt lat="43.43759" lon="6.48977">
        <ele>43.4</ele>
        <time>2013-11-24T08:38:47Z</time>
      </trkpt>
      <trkpt lat="43.43757" lon="6.48989">
        <ele>43.2</ele>
        <time>2013-11-24T08:38:55Z</time>
      </trkpt>
      <trkpt lat="43.43755" lon="6.49001">
        <ele>43.2</ele>
        <time>2013-11-24T08:39:01Z</time>
      </trkpt>
      <trkpt lat="43.43754" lon="6.49013">
        <ele>43.6</ele>
        <time>2013-11-24T08:39:09Z</time>
      </trkpt>
      <trkpt lat="43.43754" lon="6.49025">
        <ele>42.9</ele>
        <time>2013-11-24T08:39:17Z</time>
      </trkpt>
      <trkpt lat="43.43752" lon="6.49035">
        <ele>42.1</ele>
        <time>2013-11-24T08:39:24Z</time>
      </trkpt>
      <trkpt lat="43.4375" lon="6.49046">
        <ele>41.8</ele>
        <time>2013-11-24T08:39:32Z</time>
      </trkpt>
      <trkpt lat="43.43749" lon="6.49048">
        <ele>41.8</ele>
        <time>2013-11-24T08:39:33Z</time>
      </trkpt>
      <trkpt lat="43.43742" lon="6.49067">
        <ele>42.2</ele>
        <time>2013-11-24T08:39:49Z</time>
      </trkpt>
      <trkpt lat="43.4374" lon="6.49078">
        <ele>42.2</ele>
        <time>2013-11-24T08:39:56Z</time>
      </trkpt>
      <trkpt lat="43.43737" lon="6.49088">
        <ele>41.3</ele>
        <time>2013-11-24T08:40:05Z</time>
      </trkpt>
      <trkpt lat="43.43732" lon="6.49098">
        <ele>40.7</ele>
        <time>2013-11-24T08:40:12Z</time>
      </trkpt>
      <trkpt lat="43.43729" lon="6.49108">
        <ele>40.2</ele>
        <time>2013-11-24T08:40:18Z</time>
      </trkpt>
      <trkpt lat="43.43728" lon="6.49119">
        <ele>39.5</ele>
        <time>2013-11-24T08:40:24Z</time>
      </trkpt>
      <trkpt lat="43.43731" lon="6.49129">
        <ele>39.6</ele>
        <time>2013-11-24T08:40:30Z</time>
      </trkpt>
      <trkpt lat="43.43728" lon="6.49141">
        <ele>39.8</ele>
        <time>2013-11-24T08:40:36Z</time>
      </trkpt>
      <trkpt lat="43.43728" lon="6.49142">
        <ele>39.9</ele>
        <time>2013-11-24T08:40:37Z</time>
      </trkpt>
      <trkpt lat="43.43727" lon="6.49162">
        <ele>40.1</ele>
        <time>2013-11-24T08:40:49Z</time>
      </trkpt>
      <trkpt lat="43.43724" lon="6.49173">
        <ele>39.9</ele>
        <time>2013-11-24T08:40:56Z</time>
      </trkpt>
      <trkpt lat="43.43721" lon="6.49183">
        <ele>39.5</ele>
        <time>2013-11-24T08:41:01Z</time>
      </trkpt>
      <trkpt lat="43.43723" lon="6.49194">
        <ele>39.5</ele>
        <time>2013-11-24T08:41:09Z</time>
      </trkpt>
      <trkpt lat="43.43722" lon="6.49204">
        <ele>39.3</ele>
        <time>2013-11-24T08:41:13Z</time>
      </trkpt>
      <trkpt lat="43.43718" lon="6.49213">
        <ele>39.5</ele>
        <time>2013-11-24T08:41:19Z</time>
      </trkpt>
      <trkpt lat="43.43716" lon="6.49223">
        <ele>39.5</ele>
        <time>2013-11-24T08:41:24Z</time>
      </trkpt>
      <trkpt lat="43.43712" lon="6.49234">
        <ele>39.9</ele>
        <time>2013-11-24T08:41:31Z</time>
      </trkpt>
      <trkpt lat="43.43707" lon="6.49243">
        <ele>39.8</ele>
        <time>2013-11-24T08:41:39Z</time>
      </trkpt>
      <trkpt lat="43.43706" lon="6.49244">
        <ele>39.8</ele>
        <time>2013-11-24T08:41:40Z</time>
      </trkpt>
      <trkpt lat="43.43698" lon="6.4926">
        <ele>40.1</ele>
        <time>2013-11-24T08:41:52Z</time>
      </trkpt>
      <trkpt lat="43.43693" lon="6.49269">
        <ele>40.6</ele>
        <time>2013-11-24T08:41:58Z</time>
      </trkpt>
      <trkpt lat="43.43688" lon="6.49278">
        <ele>40.9</ele>
        <time>2013-11-24T08:42:05Z</time>
      </trkpt>
      <trkpt lat="43.43683" lon="6.49288">
        <ele>41.5</ele>
        <time>2013-11-24T08:42:13Z</time>
      </trkpt>
      <trkpt lat="43.43679" lon="6.49298">
        <ele>42.6</ele>
        <time>2013-11-24T08:42:20Z</time>
      </trkpt>
      <trkpt lat="43.43676" lon="6.49309">
        <ele>42.4</ele>
        <time>2013-11-24T08:42:28Z</time>
      </trkpt>
      <trkpt lat="43.43672" lon="6.4932">
        <ele>42.3</ele>
        <time>2013-11-24T08:42:35Z</time>
      </trkpt>
      <trkpt lat="43.43669" lon="6.49331">
        <ele>41.6</ele>
        <time>2013-11-24T08:42:42Z</time>
      </trkpt>
      <trkpt lat="43.43669" lon="6.49332">
        <ele>41.8</ele>
        <time>2013-11-24T08:42:43Z</time>
      </trkpt>
      <trkpt lat="43.43661" lon="6.4935">
        <ele>42.1</ele>
        <time>2013-11-24T08:42:57Z</time>
      </trkpt>
      <trkpt lat="43.43661" lon="6.49362">
        <ele>42.6</ele>
        <time>2013-11-24T08:43:05Z</time>
      </trkpt>
      <trkpt lat="43.43662" lon="6.49374">
        <ele>42.8</ele>
        <time>2013-11-24T08:43:11Z</time>
      </trkpt>
      <trkpt lat="43.43661" lon="6.49384">
        <ele>42.2</ele>
        <time>2013-11-24T08:43:17Z</time>
      </trkpt>
      <trkpt lat="43.43662" lon="6.49396">
        <ele>41.2</ele>
        <time>2013-11-24T08:43:23Z</time>
      </trkpt>
      <trkpt lat="43.43665" lon="6.49406">
        <ele>41.2</ele>
        <time>2013-11-24T08:43:27Z</time>
      </trkpt>
      <trkpt lat="43.43662" lon="6.49417">
        <ele>41.1</ele>
        <time>2013-11-24T08:43:32Z</time>
      </trkpt>
      <trkpt lat="43.43657" lon="6.49426">
        <ele>41.2</ele>
        <time>2013-11-24T08:43:39Z</time>
      </trkpt>
      <trkpt lat="43.43652" lon="6.49436">
        <ele>41.9</ele>
        <time>2013-11-24T08:43:46Z</time>
      </trkpt>
      <trkpt lat="43.43652" lon="6.49437">
        <ele>42.1</ele>
        <time>2013-11-24T08:43:47Z</time>
      </trkpt>
      <trkpt lat="43.43647" lon="6.49457">
        <ele>42.7</ele>
        <time>2013-11-24T08:44:00Z</time>
      </trkpt>
      <trkpt lat="43.4364" lon="6.49464">
        <ele>42.5</ele>
        <time>2013-11-24T08:44:09Z</time>
      </trkpt>
      <trkpt lat="43.43642" lon="6.49476">
        <ele>42.1</ele>
        <time>2013-11-24T08:44:13Z</time>
      </trkpt>
      <trkpt lat="43.4364" lon="6.49488">
        <ele>41.5</ele>
        <time>2013-11-24T08:44:20Z</time>
      </trkpt>
      <trkpt lat="43.43638" lon="6.49499">
        <ele>40.8</ele>
        <time>2013-11-24T08:44:28Z</time>
      </trkpt>
      <trkpt lat="43.43639" lon="6.49509">
        <ele>40.3</ele>
        <time>2013-11-24T08:44:32Z</time>
      </trkpt>
      <trkpt lat="43.43637" lon="6.4952">
        <ele>39.8</ele>
        <time>2013-11-24T08:44:39Z</time>
      </trkpt>
      <trkpt lat="43.43633" lon="6.4953">
        <ele>39.2</ele>
        <time>2013-11-24T08:44:49Z</time>
      </trkpt>
      <trkpt lat="43.43633" lon="6.49531">
        <ele>39.1</ele>
        <time>2013-11-24T08:44:50Z</time>
      </trkpt>
      <trkpt lat="43.43627" lon="6.49552">
        <ele>39.7</ele>
        <time>2013-11-24T08:45:04Z</time>
      </trkpt>
      <trkpt lat="43.43624" lon="6.49563">
        <ele>40</ele>
        <time>2013-11-24T08:45:13Z</time>
      </trkpt>
      <trkpt lat="43.43622" lon="6.49575">
        <ele>41</ele>
        <time>2013-11-24T08:45:23Z</time>
      </trkpt>
      <trkpt lat="43.43623" lon="6.49585">
        <ele>41.7</ele>
        <time>2013-11-24T08:45:29Z</time>
      </trkpt>
      <trkpt lat="43.43625" lon="6.49597">
        <ele>43.9</ele>
        <time>2013-11-24T08:45:41Z</time>
      </trkpt>
      <trkpt lat="43.43623" lon="6.49609">
        <ele>45.4</ele>
        <time>2013-11-24T08:45:52Z</time>
      </trkpt>
      <trkpt lat="43.43622" lon="6.4961">
        <ele>45.7</ele>
        <time>2013-11-24T08:45:53Z</time>
      </trkpt>
      <trkpt lat="43.43619" lon="6.49628">
        <ele>46.7</ele>
        <time>2013-11-24T08:46:06Z</time>
      </trkpt>
      <trkpt lat="43.4362" lon="6.49637">
        <ele>46.9</ele>
        <time>2013-11-24T08:46:10Z</time>
      </trkpt>
      <trkpt lat="43.43619" lon="6.49649">
        <ele>46.9</ele>
        <time>2013-11-24T08:46:19Z</time>
      </trkpt>
      <trkpt lat="43.43618" lon="6.4966">
        <ele>45.4</ele>
        <time>2013-11-24T08:46:28Z</time>
      </trkpt>
      <trkpt lat="43.43614" lon="6.49671">
        <ele>43.8</ele>
        <time>2013-11-24T08:46:38Z</time>
      </trkpt>
      <trkpt lat="43.4361" lon="6.4968">
        <ele>43.1</ele>
        <time>2013-11-24T08:46:45Z</time>
      </trkpt>
      <trkpt lat="43.43606" lon="6.4969">
        <ele>41.9</ele>
        <time>2013-11-24T08:46:54Z</time>
      </trkpt>
      <trkpt lat="43.43606" lon="6.49692">
        <ele>41.9</ele>
        <time>2013-11-24T08:46:55Z</time>
      </trkpt>
      <trkpt lat="43.43611" lon="6.49712">
        <ele>41.8</ele>
        <time>2013-11-24T08:47:05Z</time>
      </trkpt>
      <trkpt lat="43.43609" lon="6.49723">
        <ele>42.2</ele>
        <time>2013-11-24T08:47:11Z</time>
      </trkpt>
      <trkpt lat="43.43608" lon="6.49735">
        <ele>41.9</ele>
        <time>2013-11-24T08:47:22Z</time>
      </trkpt>
      <trkpt lat="43.43609" lon="6.49747">
        <ele>41.5</ele>
        <time>2013-11-24T08:47:30Z</time>
      </trkpt>
      <trkpt lat="43.43609" lon="6.49759">
        <ele>40.5</ele>
        <time>2013-11-24T08:47:37Z</time>
      </trkpt>
      <trkpt lat="43.43611" lon="6.4977">
        <ele>40.1</ele>
        <time>2013-11-24T08:47:46Z</time>
      </trkpt>
      <trkpt lat="43.43614" lon="6.4978">
        <ele>39.8</ele>
        <time>2013-11-24T08:47:51Z</time>
      </trkpt>
      <trkpt lat="43.43617" lon="6.49791">
        <ele>38.5</ele>
        <time>2013-11-24T08:47:59Z</time>
      </trkpt>
      <trkpt lat="43.43618" lon="6.49792">
        <ele>38.8</ele>
        <time>2013-11-24T08:48:00Z</time>
      </trkpt>
      <trkpt lat="43.43614" lon="6.49812">
        <ele>39.4</ele>
        <time>2013-11-24T08:48:14Z</time>
      </trkpt>
      <trkpt lat="43.43618" lon="6.49822">
        <ele>38.9</ele>
        <time>2013-11-24T08:48:19Z</time>
      </trkpt>
      <trkpt lat="43.4362" lon="6.49833">
        <ele>38.4</ele>
        <time>2013-11-24T08:48:28Z</time>
      </trkpt>
      <trkpt lat="43.43621" lon="6.49845">
        <ele>38.2</ele>
        <time>2013-11-24T08:48:35Z</time>
      </trkpt>
      <trkpt lat="43.43617" lon="6.49856">
        <ele>37.7</ele>
        <time>2013-11-24T08:48:44Z</time>
      </trkpt>
      <trkpt lat="43.43609" lon="6.4986">
        <ele>36.8</ele>
        <time>2013-11-24T08:48:53Z</time>
      </trkpt>
      <trkpt lat="43.43601" lon="6.49863">
        <ele>36.5</ele>
        <time>2013-11-24T08:48:59Z</time>
      </trkpt>
      <trkpt lat="43.43599" lon="6.49873">
        <ele>36.6</ele>
        <time>2013-11-24T08:49:06Z</time>
      </trkpt>
      <trkpt lat="43.43599" lon="6.49875">
        <ele>36.8</ele>
        <time>2013-11-24T08:49:07Z</time>
      </trkpt>
      <trkpt lat="43.43608" lon="6.49893">
        <ele>39.6</ele>
        <time>2013-11-24T08:49:24Z</time>
      </trkpt>
      <trkpt lat="43.43614" lon="6.49901">
        <ele>41</ele>
        <time>2013-11-24T08:49:34Z</time>
      </trkpt>
      <trkpt lat="43.43619" lon="6.4991">
        <ele>42.3</ele>
        <time>2013-11-24T08:49:43Z</time>
      </trkpt>
      <trkpt lat="43.43623" lon="6.4992">
        <ele>42.2</ele>
        <time>2013-11-24T08:49:51Z</time>
      </trkpt>
      <trkpt lat="43.43627" lon="6.49931">
        <ele>42.7</ele>
        <time>2013-11-24T08:49:57Z</time>
      </trkpt>
      <trkpt lat="43.43628" lon="6.49942">
        <ele>42.7</ele>
        <time>2013-11-24T08:50:07Z</time>
      </trkpt>
      <trkpt lat="43.43628" lon="6.49944">
        <ele>42.8</ele>
        <time>2013-11-24T08:50:08Z</time>
      </trkpt>
      <trkpt lat="43.43629" lon="6.49967">
        <ele>44.2</ele>
        <time>2013-11-24T08:50:25Z</time>
      </trkpt>
      <trkpt lat="43.43629" lon="6.49979">
        <ele>45</ele>
        <time>2013-11-24T08:50:35Z</time>
      </trkpt>
      <trkpt lat="43.43628" lon="6.49991">
        <ele>46.4</ele>
        <time>2013-11-24T08:50:45Z</time>
      </trkpt>
      <trkpt lat="43.4363" lon="6.50001">
        <ele>46.8</ele>
        <time>2013-11-24T08:50:51Z</time>
      </trkpt>
      <trkpt lat="43.43628" lon="6.50013">
        <ele>46.5</ele>
        <time>2013-11-24T08:50:59Z</time>
      </trkpt>
      <trkpt lat="43.43625" lon="6.50023">
        <ele>45.3</ele>
        <time>2013-11-24T08:51:07Z</time>
      </trkpt>
      <trkpt lat="43.43619" lon="6.5003">
        <ele>44.8</ele>
        <time>2013-11-24T08:51:14Z</time>
      </trkpt>
      <trkpt lat="43.43618" lon="6.50032">
        <ele>44.8</ele>
        <time>2013-11-24T08:51:15Z</time>
      </trkpt>
      <trkpt lat="43.43625" lon="6.50051">
        <ele>44.7</ele>
        <time>2013-11-24T08:51:26Z</time>
      </trkpt>
      <trkpt lat="43.43632" lon="6.50058">
        <ele>45.3</ele>
        <time>2013-11-24T08:51:31Z</time>
      </trkpt>
      <trkpt lat="43.43638" lon="6.50065">
        <ele>45.3</ele>
        <time>2013-11-24T08:51:40Z</time>
      </trkpt>
      <trkpt lat="43.43644" lon="6.50072">
        <ele>45.2</ele>
        <time>2013-11-24T08:51:46Z</time>
      </trkpt>
      <trkpt lat="43.4365" lon="6.5008">
        <ele>44.4</ele>
        <time>2013-11-24T08:51:54Z</time>
      </trkpt>
      <trkpt lat="43.43655" lon="6.50089">
        <ele>43.8</ele>
        <time>2013-11-24T08:52:00Z</time>
      </trkpt>
      <trkpt lat="43.4366" lon="6.50098">
        <ele>42.9</ele>
        <time>2013-11-24T08:52:06Z</time>
      </trkpt>
      <trkpt lat="43.43663" lon="6.5011">
        <ele>42.3</ele>
        <time>2013-11-24T08:52:14Z</time>
      </trkpt>
      <trkpt lat="43.43663" lon="6.50122">
        <ele>41.1</ele>
        <time>2013-11-24T08:52:24Z</time>
      </trkpt>
      <trkpt lat="43.43662" lon="6.50123">
        <ele>41.2</ele>
        <time>2013-11-24T08:52:25Z</time>
      </trkpt>
      <trkpt lat="43.43665" lon="6.50145">
        <ele>40.9</ele>
        <time>2013-11-24T08:52:40Z</time>
      </trkpt>
      <trkpt lat="43.43665" lon="6.50157">
        <ele>40.7</ele>
        <time>2013-11-24T08:52:49Z</time>
      </trkpt>
      <trkpt lat="43.43665" lon="6.50169">
        <ele>40.3</ele>
        <time>2013-11-24T08:52:56Z</time>
      </trkpt>
      <trkpt lat="43.43667" lon="6.5018">
        <ele>41</ele>
        <time>2013-11-24T08:53:04Z</time>
      </trkpt>
      <trkpt lat="43.43667" lon="6.50192">
        <ele>40.4</ele>
        <time>2013-11-24T08:53:12Z</time>
      </trkpt>
      <trkpt lat="43.43669" lon="6.50204">
        <ele>39</ele>
        <time>2013-11-24T08:53:21Z</time>
      </trkpt>
      <trkpt lat="43.43672" lon="6.50215">
        <ele>38.5</ele>
        <time>2013-11-24T08:53:27Z</time>
      </trkpt>
      <trkpt lat="43.43673" lon="6.50216">
        <ele>38.6</ele>
        <time>2013-11-24T08:53:28Z</time>
      </trkpt>
      <trkpt lat="43.43677" lon="6.50236">
        <ele>38.2</ele>
        <time>2013-11-24T08:53:45Z</time>
      </trkpt>
      <trkpt lat="43.4368" lon="6.50246">
        <ele>38.3</ele>
        <time>2013-11-24T08:53:52Z</time>
      </trkpt>
      <trkpt lat="43.43683" lon="6.50257">
        <ele>38.3</ele>
        <time>2013-11-24T08:53:58Z</time>
      </trkpt>
      <trkpt lat="43.43685" lon="6.50269">
        <ele>38.1</ele>
        <time>2013-11-24T08:54:06Z</time>
      </trkpt>
      <trkpt lat="43.43686" lon="6.5028">
        <ele>38.4</ele>
        <time>2013-11-24T08:54:13Z</time>
      </trkpt>
      <trkpt lat="43.43687" lon="6.50291">
        <ele>38.1</ele>
        <time>2013-11-24T08:54:21Z</time>
      </trkpt>
      <trkpt lat="43.4369" lon="6.50301">
        <ele>38</ele>
        <time>2013-11-24T08:54:28Z</time>
      </trkpt>
      <trkpt lat="43.4369" lon="6.50303">
        <ele>38</ele>
        <time>2013-11-24T08:54:29Z</time>
      </trkpt>
      <trkpt lat="43.43695" lon="6.50323">
        <ele>38</ele>
        <time>2013-11-24T08:54:42Z</time>
      </trkpt>
      <trkpt lat="43.43699" lon="6.50333">
        <ele>38</ele>
        <time>2013-11-24T08:54:49Z</time>
      </trkpt>
      <trkpt lat="43.43703" lon="6.50343">
        <ele>37.8</ele>
        <time>2013-11-24T08:54:57Z</time>
      </trkpt>
      <trkpt lat="43.43705" lon="6.50354">
        <ele>36.8</ele>
        <time>2013-11-24T08:55:05Z</time>
      </trkpt>
      <trkpt lat="43.43707" lon="6.50366">
        <ele>37.1</ele>
        <time>2013-11-24T08:55:14Z</time>
      </trkpt>
      <trkpt lat="43.43704" lon="6.50378">
        <ele>37.6</ele>
        <time>2013-11-24T08:55:24Z</time>
      </trkpt>
      <trkpt lat="43.43707" lon="6.50388">
        <ele>37.4</ele>
        <time>2013-11-24T08:55:29Z</time>
      </trkpt>
      <trkpt lat="43.43707" lon="6.5039">
        <ele>37.7</ele>
        <time>2013-11-24T08:55:30Z</time>
      </trkpt>
      <trkpt lat="43.43716" lon="6.50408">
        <ele>36.9</ele>
        <time>2013-11-24T08:55:44Z</time>
      </trkpt>
      <trkpt lat="43.4372" lon="6.50416">
        <ele>36.5</ele>
        <time>2013-11-24T08:55:49Z</time>
      </trkpt>
      <trkpt lat="43.43724" lon="6.50427">
        <ele>36.2</ele>
        <time>2013-11-24T08:55:55Z</time>
      </trkpt>
      <trkpt lat="43.43727" lon="6.50438">
        <ele>35.8</ele>
        <time>2013-11-24T08:56:02Z</time>
      </trkpt>
      <trkpt lat="43.43729" lon="6.5045">
        <ele>35.6</ele>
        <time>2013-11-24T08:56:14Z</time>
      </trkpt>
      <trkpt lat="43.43729" lon="6.50461">
        <ele>36</ele>
        <time>2013-11-24T08:56:23Z</time>
      </trkpt>
      <trkpt lat="43.43727" lon="6.50472">
        <ele>36</ele>
        <time>2013-11-24T08:56:30Z</time>
      </trkpt>
      <trkpt lat="43.43727" lon="6.50474">
        <ele>36</ele>
        <time>2013-11-24T08:56:31Z</time>
      </trkpt>
      <trkpt lat="43.43726" lon="6.50495">
        <ele>36.1</ele>
        <time>2013-11-24T08:56:46Z</time>
      </trkpt>
      <trkpt lat="43.43725" lon="6.50508">
        <ele>37</ele>
        <time>2013-11-24T08:56:55Z</time>
      </trkpt>
      <trkpt lat="43.43724" lon="6.50519">
        <ele>37.4</ele>
        <time>2013-11-24T08:57:04Z</time>
      </trkpt>
      <trkpt lat="43.43723" lon="6.5053">
        <ele>37.3</ele>
        <time>2013-11-24T08:57:13Z</time>
      </trkpt>
      <trkpt lat="43.43723" lon="6.50541">
        <ele>37.8</ele>
        <time>2013-11-24T08:57:19Z</time>
      </trkpt>
      <trkpt lat="43.43722" lon="6.50553">
        <ele>37.5</ele>
        <time>2013-11-24T08:57:27Z</time>
      </trkpt>
      <trkpt lat="43.43722" lon="6.50565">
        <ele>36.7</ele>
        <time>2013-11-24T08:57:34Z</time>
      </trkpt>
      <trkpt lat="43.43722" lon="6.50569">
        <ele>36.7</ele>
        <time>2013-11-24T08:57:35Z</time>
      </trkpt>
      <trkpt lat="43.43724" lon="6.50589">
        <ele>35.9</ele>
        <time>2013-11-24T08:57:47Z</time>
      </trkpt>
      <trkpt lat="43.43722" lon="6.506">
        <ele>36.3</ele>
        <time>2013-11-24T08:57:55Z</time>
      </trkpt>
      <trkpt lat="43.4372" lon="6.50611">
        <ele>36.3</ele>
        <time>2013-11-24T08:58:03Z</time>
      </trkpt>
      <trkpt lat="43.43718" lon="6.50621">
        <ele>36.2</ele>
        <time>2013-11-24T08:58:11Z</time>
      </trkpt>
      <trkpt lat="43.43714" lon="6.50631">
        <ele>36.4</ele>
        <time>2013-11-24T08:58:17Z</time>
      </trkpt>
      <trkpt lat="43.43711" lon="6.50643">
        <ele>36.1</ele>
        <time>2013-11-24T08:58:24Z</time>
      </trkpt>
      <trkpt lat="43.43713" lon="6.50654">
        <ele>36.7</ele>
        <time>2013-11-24T08:58:31Z</time>
      </trkpt>
      <trkpt lat="43.43711" lon="6.50666">
        <ele>37</ele>
        <time>2013-11-24T08:58:39Z</time>
      </trkpt>
      <trkpt lat="43.43712" lon="6.50667">
        <ele>36.9</ele>
        <time>2013-11-24T08:58:40Z</time>
      </trkpt>
      <trkpt lat="43.43706" lon="6.50685">
        <ele>38.1</ele>
        <time>2013-11-24T08:58:52Z</time>
      </trkpt>
      <trkpt lat="43.43705" lon="6.50696">
        <ele>37.9</ele>
        <time>2013-11-24T08:59:00Z</time>
      </trkpt>
      <trkpt lat="43.43705" lon="6.50708">
        <ele>38.1</ele>
        <time>2013-11-24T08:59:06Z</time>
      </trkpt>
      <trkpt lat="43.43703" lon="6.5072">
        <ele>38</ele>
        <time>2013-11-24T08:59:14Z</time>
      </trkpt>
      <trkpt lat="43.43699" lon="6.50729">
        <ele>38.2</ele>
        <time>2013-11-24T08:59:21Z</time>
      </trkpt>
      <trkpt lat="43.43695" lon="6.50739">
        <ele>38</ele>
        <time>2013-11-24T08:59:25Z</time>
      </trkpt>
      <trkpt lat="43.43692" lon="6.5075">
        <ele>39.1</ele>
        <time>2013-11-24T08:59:31Z</time>
      </trkpt>
      <trkpt lat="43.43694" lon="6.50761">
        <ele>39.5</ele>
        <time>2013-11-24T08:59:40Z</time>
      </trkpt>
      <trkpt lat="43.43694" lon="6.50763">
        <ele>39.6</ele>
        <time>2013-11-24T08:59:41Z</time>
      </trkpt>
      <trkpt lat="43.43686" lon="6.50782">
        <ele>41.2</ele>
        <time>2013-11-24T08:59:57Z</time>
      </trkpt>
      <trkpt lat="43.43682" lon="6.50793">
        <ele>41.7</ele>
        <time>2013-11-24T09:00:06Z</time>
      </trkpt>
      <trkpt lat="43.43679" lon="6.50802">
        <ele>42.3</ele>
        <time>2013-11-24T09:00:14Z</time>
      </trkpt>
      <trkpt lat="43.43673" lon="6.50811">
        <ele>42.4</ele>
        <time>2013-11-24T09:00:22Z</time>
      </trkpt>
      <trkpt lat="43.43666" lon="6.50815">
        <ele>43</ele>
        <time>2013-11-24T09:00:28Z</time>
      </trkpt>
      <trkpt lat="43.43658" lon="6.50821">
        <ele>43.3</ele>
        <time>2013-11-24T09:00:35Z</time>
      </trkpt>
      <trkpt lat="43.43653" lon="6.50829">
        <ele>43</ele>
        <time>2013-11-24T09:00:41Z</time>
      </trkpt>
      <trkpt lat="43.43653" lon="6.50831">
        <ele>42.9</ele>
        <time>2013-11-24T09:00:42Z</time>
      </trkpt>
      <trkpt lat="43.43654" lon="6.5085">
        <ele>44.1</ele>
        <time>2013-11-24T09:00:53Z</time>
      </trkpt>
      <trkpt lat="43.43657" lon="6.50861">
        <ele>44.4</ele>
        <time>2013-11-24T09:01:01Z</time>
      </trkpt>
      <trkpt lat="43.43656" lon="6.50872">
        <ele>45</ele>
        <time>2013-11-24T09:01:09Z</time>
      </trkpt>
      <trkpt lat="43.43655" lon="6.50884">
        <ele>45.9</ele>
        <time>2013-11-24T09:01:17Z</time>
      </trkpt>
      <trkpt lat="43.4365" lon="6.50893">
        <ele>47.8</ele>
        <time>2013-11-24T09:01:29Z</time>
      </trkpt>
      <trkpt lat="43.43644" lon="6.50901">
        <ele>48.6</ele>
        <time>2013-11-24T09:01:39Z</time>
      </trkpt>
      <trkpt lat="43.43639" lon="6.5091">
        <ele>49.6</ele>
        <time>2013-11-24T09:01:48Z</time>
      </trkpt>
      <trkpt lat="43.43638" lon="6.50911">
        <ele>49.7</ele>
        <time>2013-11-24T09:01:49Z</time>
      </trkpt>
      <trkpt lat="43.43638" lon="6.50915">
        <ele>50.5</ele>
        <time>2013-11-24T09:03:45Z</time>
      </trkpt>
      <trkpt lat="43.43638" lon="6.50915">
        <ele>50.6</ele>
        <time>2013-11-24T09:03:46Z</time>
      </trkpt>
      <trkpt lat="43.43638" lon="6.50928">
        <ele>50.5</ele>
        <time>2013-11-24T09:07:00Z</time>
      </trkpt>
      <trkpt lat="43.43639" lon="6.50949">
        <ele>49.2</ele>
        <time>2013-11-24T09:07:25Z</time>
      </trkpt>
      <trkpt lat="43.43643" lon="6.5096">
        <ele>48.4</ele>
        <time>2013-11-24T09:07:41Z</time>
      </trkpt>
      <trkpt lat="43.43643" lon="6.50972">
        <ele>48.1</ele>
        <time>2013-11-24T09:07:50Z</time>
      </trkpt>
      <trkpt lat="43.43647" lon="6.50983">
        <ele>47.9</ele>
        <time>2013-11-24T09:07:55Z</time>
      </trkpt>
      <trkpt lat="43.4365" lon="6.50993">
        <ele>47.4</ele>
        <time>2013-11-24T09:08:02Z</time>
      </trkpt>
      <trkpt lat="43.43651" lon="6.50995">
        <ele>47.2</ele>
        <time>2013-11-24T09:08:03Z</time>
      </trkpt>
      <trkpt lat="43.43659" lon="6.51015">
        <ele>46.2</ele>
        <time>2013-11-24T09:08:17Z</time>
      </trkpt>
      <trkpt lat="43.43661" lon="6.51025">
        <ele>45.2</ele>
        <time>2013-11-24T09:08:25Z</time>
      </trkpt>
      <trkpt lat="43.43657" lon="6.51036">
        <ele>43.9</ele>
        <time>2013-11-24T09:08:36Z</time>
      </trkpt>
      <trkpt lat="43.43649" lon="6.51037">
        <ele>42.9</ele>
        <time>2013-11-24T09:08:47Z</time>
      </trkpt>
      <trkpt lat="43.43641" lon="6.51037">
        <ele>42.2</ele>
        <time>2013-11-24T09:08:56Z</time>
      </trkpt>
      <trkpt lat="43.43632" lon="6.51036">
        <ele>41.5</ele>
        <time>2013-11-24T09:09:02Z</time>
      </trkpt>
      <trkpt lat="43.43624" lon="6.51033">
        <ele>41.1</ele>
        <time>2013-11-24T09:09:13Z</time>
      </trkpt>
      <trkpt lat="43.43623" lon="6.51032">
        <ele>41.1</ele>
        <time>2013-11-24T09:09:14Z</time>
      </trkpt>
      <trkpt lat="43.4361" lon="6.51019">
        <ele>38.5</ele>
        <time>2013-11-24T09:09:30Z</time>
      </trkpt>
      <trkpt lat="43.43602" lon="6.51018">
        <ele>38.1</ele>
        <time>2013-11-24T09:09:37Z</time>
      </trkpt>
      <trkpt lat="43.43595" lon="6.51015">
        <ele>37.6</ele>
        <time>2013-11-24T09:09:42Z</time>
      </trkpt>
      <trkpt lat="43.43587" lon="6.51013">
        <ele>37.2</ele>
        <time>2013-11-24T09:09:46Z</time>
      </trkpt>
      <trkpt lat="43.43579" lon="6.51012">
        <ele>36.1</ele>
        <time>2013-11-24T09:09:54Z</time>
      </trkpt>
      <trkpt lat="43.4357" lon="6.51014">
        <ele>35.2</ele>
        <time>2013-11-24T09:10:02Z</time>
      </trkpt>
      <trkpt lat="43.43564" lon="6.5102">
        <ele>34</ele>
        <time>2013-11-24T09:10:09Z</time>
      </trkpt>
      <trkpt lat="43.43556" lon="6.51026">
        <ele>33.4</ele>
        <time>2013-11-24T09:10:17Z</time>
      </trkpt>
      <trkpt lat="43.43555" lon="6.51027">
        <ele>33.2</ele>
        <time>2013-11-24T09:10:18Z</time>
      </trkpt>
      <trkpt lat="43.43544" lon="6.5104">
        <ele>33.1</ele>
        <time>2013-11-24T09:10:32Z</time>
      </trkpt>
      <trkpt lat="43.43537" lon="6.51046">
        <ele>32</ele>
        <time>2013-11-24T09:10:39Z</time>
      </trkpt>
      <trkpt lat="43.43529" lon="6.51052">
        <ele>31.7</ele>
        <time>2013-11-24T09:10:45Z</time>
      </trkpt>
      <trkpt lat="43.43521" lon="6.51055">
        <ele>30.8</ele>
        <time>2013-11-24T09:10:51Z</time>
      </trkpt>
      <trkpt lat="43.43516" lon="6.51062">
        <ele>29.9</ele>
        <time>2013-11-24T09:10:58Z</time>
      </trkpt>
      <trkpt lat="43.43515" lon="6.51074">
        <ele>29.7</ele>
        <time>2013-11-24T09:11:05Z</time>
      </trkpt>
      <trkpt lat="43.4351" lon="6.51084">
        <ele>28.5</ele>
        <time>2013-11-24T09:11:14Z</time>
      </trkpt>
      <trkpt lat="43.43503" lon="6.51089">
        <ele>27</ele>
        <time>2013-11-24T09:11:24Z</time>
      </trkpt>
      <trkpt lat="43.43501" lon="6.51091">
        <ele>27.1</ele>
        <time>2013-11-24T09:11:25Z</time>
      </trkpt>
      <trkpt lat="43.43497" lon="6.51107">
        <ele>26.9</ele>
        <time>2013-11-24T09:11:35Z</time>
      </trkpt>
      <trkpt lat="43.43503" lon="6.51116">
        <ele>27.3</ele>
        <time>2013-11-24T09:11:44Z</time>
      </trkpt>
      <trkpt lat="43.43509" lon="6.51125">
        <ele>26.6</ele>
        <time>2013-11-24T09:11:58Z</time>
      </trkpt>
      <trkpt lat="43.43513" lon="6.51117">
        <ele>27.7</ele>
        <time>2013-11-24T09:12:10Z</time>
      </trkpt>
      <trkpt lat="43.43518" lon="6.51108">
        <ele>28</ele>
        <time>2013-11-24T09:12:15Z</time>
      </trkpt>
      <trkpt lat="43.43522" lon="6.51098">
        <ele>29.6</ele>
        <time>2013-11-24T09:12:23Z</time>
      </trkpt>
      <trkpt lat="43.43531" lon="6.51094">
        <ele>29.7</ele>
        <time>2013-11-24T09:12:30Z</time>
      </trkpt>
      <trkpt lat="43.43532" lon="6.51094">
        <ele>29.6</ele>
        <time>2013-11-24T09:12:31Z</time>
      </trkpt>
      <trkpt lat="43.43546" lon="6.51096">
        <ele>28.6</ele>
        <time>2013-11-24T09:12:44Z</time>
      </trkpt>
      <trkpt lat="43.43542" lon="6.51106">
        <ele>27.5</ele>
        <time>2013-11-24T09:13:05Z</time>
      </trkpt>
      <trkpt lat="43.43542" lon="6.51118">
        <ele>27.8</ele>
        <time>2013-11-24T09:13:17Z</time>
      </trkpt>
      <trkpt lat="43.43548" lon="6.51125">
        <ele>27.8</ele>
        <time>2013-11-24T09:13:25Z</time>
      </trkpt>
      <trkpt lat="43.43542" lon="6.51134">
        <ele>27.8</ele>
        <time>2013-11-24T09:13:43Z</time>
      </trkpt>
      <trkpt lat="43.43542" lon="6.51135">
        <ele>27.7</ele>
        <time>2013-11-24T09:13:44Z</time>
      </trkpt>
      <trkpt lat="43.43544" lon="6.51135">
        <ele>29.8</ele>
        <time>2013-11-24T09:15:59Z</time>
      </trkpt>
      <trkpt lat="43.43544" lon="6.51134">
        <ele>29.8</ele>
        <time>2013-11-24T09:16:00Z</time>
      </trkpt>
      <trkpt lat="43.43545" lon="6.51114">
        <ele>28.8</ele>
        <time>2013-11-24T09:16:34Z</time>
      </trkpt>
      <trkpt lat="43.4355" lon="6.51104">
        <ele>28.7</ele>
        <time>2013-11-24T09:16:41Z</time>
      </trkpt>
      <trkpt lat="43.43547" lon="6.51094">
        <ele>28.7</ele>
        <time>2013-11-24T09:16:48Z</time>
      </trkpt>
      <trkpt lat="43.43543" lon="6.51086">
        <ele>29</ele>
        <time>2013-11-24T09:16:54Z</time>
      </trkpt>
      <trkpt lat="43.43536" lon="6.51078">
        <ele>29.3</ele>
        <time>2013-11-24T09:17:01Z</time>
      </trkpt>
      <trkpt lat="43.43535" lon="6.51077">
        <ele>29.3</ele>
        <time>2013-11-24T09:17:02Z</time>
      </trkpt>
      <trkpt lat="43.4352" lon="6.5107">
        <ele>30.3</ele>
        <time>2013-11-24T09:17:15Z</time>
      </trkpt>
      <trkpt lat="43.43512" lon="6.51069">
        <ele>31.3</ele>
        <time>2013-11-24T09:17:25Z</time>
      </trkpt>
      <trkpt lat="43.43504" lon="6.5107">
        <ele>31.5</ele>
        <time>2013-11-24T09:17:33Z</time>
      </trkpt>
      <trkpt lat="43.43495" lon="6.51071">
        <ele>32.2</ele>
        <time>2013-11-24T09:17:42Z</time>
      </trkpt>
      <trkpt lat="43.43487" lon="6.5107">
        <ele>33</ele>
        <time>2013-11-24T09:17:48Z</time>
      </trkpt>
      <trkpt lat="43.4348" lon="6.51069">
        <ele>33</ele>
        <time>2013-11-24T09:17:54Z</time>
      </trkpt>
      <trkpt lat="43.43471" lon="6.51066">
        <ele>33.6</ele>
        <time>2013-11-24T09:18:01Z</time>
      </trkpt>
      <trkpt lat="43.43463" lon="6.51062">
        <ele>33.2</ele>
        <time>2013-11-24T09:18:08Z</time>
      </trkpt>
      <trkpt lat="43.43462" lon="6.51061">
        <ele>33.3</ele>
        <time>2013-11-24T09:18:09Z</time>
      </trkpt>
      <trkpt lat="43.43448" lon="6.51057">
        <ele>32.8</ele>
        <time>2013-11-24T09:18:20Z</time>
      </trkpt>
      <trkpt lat="43.43439" lon="6.51058">
        <ele>32.9</ele>
        <time>2013-11-24T09:18:28Z</time>
      </trkpt>
      <trkpt lat="43.43431" lon="6.51052">
        <ele>32.9</ele>
        <time>2013-11-24T09:18:46Z</time>
      </trkpt>
      <trkpt lat="43.43424" lon="6.51048">
        <ele>32.7</ele>
        <time>2013-11-24T09:18:53Z</time>
      </trkpt>
      <trkpt lat="43.43416" lon="6.51044">
        <ele>32.3</ele>
        <time>2013-11-24T09:19:00Z</time>
      </trkpt>
      <trkpt lat="43.43408" lon="6.51039">
        <ele>32.2</ele>
        <time>2013-11-24T09:19:08Z</time>
      </trkpt>
      <trkpt lat="43.43401" lon="6.51033">
        <ele>32.3</ele>
        <time>2013-11-24T09:19:15Z</time>
      </trkpt>
      <trkpt lat="43.43399" lon="6.51032">
        <ele>32.1</ele>
        <time>2013-11-24T09:19:16Z</time>
      </trkpt>
      <trkpt lat="43.43386" lon="6.51027">
        <ele>31.5</ele>
        <time>2013-11-24T09:19:28Z</time>
      </trkpt>
      <trkpt lat="43.43378" lon="6.51025">
        <ele>31.6</ele>
        <time>2013-11-24T09:19:34Z</time>
      </trkpt>
      <trkpt lat="43.4337" lon="6.51026">
        <ele>31.3</ele>
        <time>2013-11-24T09:19:39Z</time>
      </trkpt>
      <trkpt lat="43.43362" lon="6.51024">
        <ele>30.9</ele>
        <time>2013-11-24T09:19:46Z</time>
      </trkpt>
      <trkpt lat="43.43353" lon="6.51021">
        <ele>30.7</ele>
        <time>2013-11-24T09:19:50Z</time>
      </trkpt>
      <trkpt lat="43.43345" lon="6.51019">
        <ele>30.9</ele>
        <time>2013-11-24T09:19:59Z</time>
      </trkpt>
      <trkpt lat="43.43337" lon="6.51017">
        <ele>30.9</ele>
        <time>2013-11-24T09:20:07Z</time>
      </trkpt>
      <trkpt lat="43.43329" lon="6.51022">
        <ele>30.4</ele>
        <time>2013-11-24T09:20:18Z</time>
      </trkpt>
      <trkpt lat="43.43328" lon="6.51022">
        <ele>30.2</ele>
        <time>2013-11-24T09:20:19Z</time>
      </trkpt>
      <trkpt lat="43.43312" lon="6.51028">
        <ele>30.1</ele>
        <time>2013-11-24T09:20:34Z</time>
      </trkpt>
      <trkpt lat="43.43304" lon="6.51028">
        <ele>30.2</ele>
        <time>2013-11-24T09:20:40Z</time>
      </trkpt>
      <trkpt lat="43.43297" lon="6.51034">
        <ele>30.2</ele>
        <time>2013-11-24T09:20:47Z</time>
      </trkpt>
      <trkpt lat="43.43289" lon="6.51036">
        <ele>30</ele>
        <time>2013-11-24T09:20:53Z</time>
      </trkpt>
      <trkpt lat="43.43281" lon="6.5104">
        <ele>29.6</ele>
        <time>2013-11-24T09:20:57Z</time>
      </trkpt>
      <trkpt lat="43.43274" lon="6.51045">
        <ele>29.4</ele>
        <time>2013-11-24T09:21:06Z</time>
      </trkpt>
      <trkpt lat="43.43266" lon="6.51045">
        <ele>29.5</ele>
        <time>2013-11-24T09:21:12Z</time>
      </trkpt>
      <trkpt lat="43.43258" lon="6.51049">
        <ele>29</ele>
        <time>2013-11-24T09:21:21Z</time>
      </trkpt>
      <trkpt lat="43.43257" lon="6.51049">
        <ele>29.1</ele>
        <time>2013-11-24T09:21:22Z</time>
      </trkpt>
      <trkpt lat="43.43242" lon="6.51045">
        <ele>28.9</ele>
        <time>2013-11-24T09:21:36Z</time>
      </trkpt>
      <trkpt lat="43.43233" lon="6.51043">
        <ele>28.8</ele>
        <time>2013-11-24T09:21:42Z</time>
      </trkpt>
      <trkpt lat="43.43225" lon="6.51043">
        <ele>28.9</ele>
        <time>2013-11-24T09:21:48Z</time>
      </trkpt>
      <trkpt lat="43.43217" lon="6.51039">
        <ele>28.6</ele>
        <time>2013-11-24T09:22:00Z</time>
      </trkpt>
      <trkpt lat="43.43208" lon="6.5104">
        <ele>28.9</ele>
        <time>2013-11-24T09:22:15Z</time>
      </trkpt>
      <trkpt lat="43.432" lon="6.51041">
        <ele>27.5</ele>
        <time>2013-11-24T09:24:42Z</time>
      </trkpt>
      <trkpt lat="43.43198" lon="6.51041">
        <ele>27.6</ele>
        <time>2013-11-24T09:24:43Z</time>
      </trkpt>
      <trkpt lat="43.43184" lon="6.51037">
        <ele>27.4</ele>
        <time>2013-11-24T09:25:34Z</time>
      </trkpt>
      <trkpt lat="43.43192" lon="6.51039">
        <ele>23.2</ele>
        <time>2013-11-24T09:26:44Z</time>
      </trkpt>
      <trkpt lat="43.43193" lon="6.51039">
        <ele>23.2</ele>
        <time>2013-11-24T09:26:45Z</time>
      </trkpt>
      <trkpt lat="43.43178" lon="6.5104">
        <ele>26.3</ele>
        <time>2013-11-24T09:27:14Z</time>
      </trkpt>
      <trkpt lat="43.43171" lon="6.51046">
        <ele>26.6</ele>
        <time>2013-11-24T09:27:20Z</time>
      </trkpt>
      <trkpt lat="43.43166" lon="6.51054">
        <ele>27.6</ele>
        <time>2013-11-24T09:27:26Z</time>
      </trkpt>
      <trkpt lat="43.43162" lon="6.51065">
        <ele>28.6</ele>
        <time>2013-11-24T09:27:36Z</time>
      </trkpt>
      <trkpt lat="43.43158" lon="6.51075">
        <ele>29.6</ele>
        <time>2013-11-24T09:27:45Z</time>
      </trkpt>
      <trkpt lat="43.43157" lon="6.51076">
        <ele>29.9</ele>
        <time>2013-11-24T09:27:46Z</time>
      </trkpt>
      <trkpt lat="43.43145" lon="6.5109">
        <ele>32.2</ele>
        <time>2013-11-24T09:28:04Z</time>
      </trkpt>
      <trkpt lat="43.43138" lon="6.51098">
        <ele>33.1</ele>
        <time>2013-11-24T09:28:12Z</time>
      </trkpt>
      <trkpt lat="43.43131" lon="6.51105">
        <ele>33.7</ele>
        <time>2013-11-24T09:28:20Z</time>
      </trkpt>
      <trkpt lat="43.43124" lon="6.51109">
        <ele>34.1</ele>
        <time>2013-11-24T09:28:27Z</time>
      </trkpt>
      <trkpt lat="43.43117" lon="6.51115">
        <ele>34.8</ele>
        <time>2013-11-24T09:28:36Z</time>
      </trkpt>
      <trkpt lat="43.43108" lon="6.51118">
        <ele>35.4</ele>
        <time>2013-11-24T09:28:42Z</time>
      </trkpt>
      <trkpt lat="43.43102" lon="6.51127">
        <ele>36.1</ele>
        <time>2013-11-24T09:28:51Z</time>
      </trkpt>
      <trkpt lat="43.43101" lon="6.51128">
        <ele>36.2</ele>
        <time>2013-11-24T09:28:52Z</time>
      </trkpt>
      <trkpt lat="43.43086" lon="6.5113">
        <ele>35.9</ele>
        <time>2013-11-24T09:29:02Z</time>
      </trkpt>
      <trkpt lat="43.43079" lon="6.5113">
        <ele>35.7</ele>
        <time>2013-11-24T09:29:06Z</time>
      </trkpt>
      <trkpt lat="43.43071" lon="6.51127">
        <ele>35.5</ele>
        <time>2013-11-24T09:29:13Z</time>
      </trkpt>
      <trkpt lat="43.43062" lon="6.51126">
        <ele>36</ele>
        <time>2013-11-24T09:29:21Z</time>
      </trkpt>
      <trkpt lat="43.43054" lon="6.51125">
        <ele>35.7</ele>
        <time>2013-11-24T09:29:29Z</time>
      </trkpt>
      <trkpt lat="43.43047" lon="6.51123">
        <ele>35.7</ele>
        <time>2013-11-24T09:29:32Z</time>
      </trkpt>
      <trkpt lat="43.43039" lon="6.51121">
        <ele>35.7</ele>
        <time>2013-11-24T09:29:37Z</time>
      </trkpt>
      <trkpt lat="43.43033" lon="6.51112">
        <ele>35.7</ele>
        <time>2013-11-24T09:29:47Z</time>
      </trkpt>
      <trkpt lat="43.43028" lon="6.51106">
        <ele>35.1</ele>
        <time>2013-11-24T09:29:51Z</time>
      </trkpt>
      <trkpt lat="43.4302" lon="6.51101">
        <ele>35.5</ele>
        <time>2013-11-24T09:29:56Z</time>
      </trkpt>
      <trkpt lat="43.43019" lon="6.511">
        <ele>35.5</ele>
        <time>2013-11-24T09:29:57Z</time>
      </trkpt>
      <trkpt lat="43.43008" lon="6.51116">
        <ele>35.1</ele>
        <time>2013-11-24T09:30:11Z</time>
      </trkpt>
      <trkpt lat="43.43004" lon="6.51127">
        <ele>35.2</ele>
        <time>2013-11-24T09:30:18Z</time>
      </trkpt>
      <trkpt lat="43.43002" lon="6.51139">
        <ele>35.7</ele>
        <time>2013-11-24T09:30:26Z</time>
      </trkpt>
      <trkpt lat="43.42998" lon="6.51149">
        <ele>36.2</ele>
        <time>2013-11-24T09:30:32Z</time>
      </trkpt>
      <trkpt lat="43.42994" lon="6.5116">
        <ele>37.5</ele>
        <time>2013-11-24T09:30:39Z</time>
      </trkpt>
      <trkpt lat="43.42991" lon="6.51171">
        <ele>37.4</ele>
        <time>2013-11-24T09:30:47Z</time>
      </trkpt>
      <trkpt lat="43.42985" lon="6.5118">
        <ele>37.7</ele>
        <time>2013-11-24T09:30:57Z</time>
      </trkpt>
      <trkpt lat="43.42985" lon="6.5118">
        <ele>37.8</ele>
        <time>2013-11-24T09:30:58Z</time>
      </trkpt>
      <trkpt lat="43.42972" lon="6.51193">
        <ele>40.1</ele>
        <time>2013-11-24T09:31:16Z</time>
      </trkpt>
      <trkpt lat="43.42966" lon="6.51202">
        <ele>40.8</ele>
        <time>2013-11-24T09:31:24Z</time>
      </trkpt>
      <trkpt lat="43.4296" lon="6.51211">
        <ele>41.6</ele>
        <time>2013-11-24T09:31:32Z</time>
      </trkpt>
      <trkpt lat="43.42956" lon="6.51221">
        <ele>41.4</ele>
        <time>2013-11-24T09:31:41Z</time>
      </trkpt>
      <trkpt lat="43.42954" lon="6.51232">
        <ele>41.5</ele>
        <time>2013-11-24T09:31:49Z</time>
      </trkpt>
      <trkpt lat="43.42947" lon="6.51239">
        <ele>42.2</ele>
        <time>2013-11-24T09:31:56Z</time>
      </trkpt>
      <trkpt lat="43.42942" lon="6.51248">
        <ele>43.1</ele>
        <time>2013-11-24T09:32:03Z</time>
      </trkpt>
      <trkpt lat="43.42942" lon="6.5125">
        <ele>43.2</ele>
        <time>2013-11-24T09:32:04Z</time>
      </trkpt>
      <trkpt lat="43.42939" lon="6.51271">
        <ele>44.1</ele>
        <time>2013-11-24T09:32:18Z</time>
      </trkpt>
      <trkpt lat="43.42933" lon="6.5128">
        <ele>44.9</ele>
        <time>2013-11-24T09:32:26Z</time>
      </trkpt>
      <trkpt lat="43.42929" lon="6.51289">
        <ele>46</ele>
        <time>2013-11-24T09:32:34Z</time>
      </trkpt>
      <trkpt lat="43.42925" lon="6.51299">
        <ele>46.4</ele>
        <time>2013-11-24T09:32:41Z</time>
      </trkpt>
      <trkpt lat="43.4292" lon="6.51307">
        <ele>47.1</ele>
        <time>2013-11-24T09:32:48Z</time>
      </trkpt>
      <trkpt lat="43.42914" lon="6.51317">
        <ele>47.8</ele>
        <time>2013-11-24T09:32:56Z</time>
      </trkpt>
      <trkpt lat="43.42911" lon="6.51327">
        <ele>47.9</ele>
        <time>2013-11-24T09:33:04Z</time>
      </trkpt>
      <trkpt lat="43.4291" lon="6.51329">
        <ele>47.8</ele>
        <time>2013-11-24T09:33:05Z</time>
      </trkpt>
      <trkpt lat="43.42902" lon="6.51348">
        <ele>49</ele>
        <time>2013-11-24T09:33:18Z</time>
      </trkpt>
      <trkpt lat="43.42897" lon="6.51357">
        <ele>50.2</ele>
        <time>2013-11-24T09:33:25Z</time>
      </trkpt>
      <trkpt lat="43.42892" lon="6.51366">
        <ele>50.9</ele>
        <time>2013-11-24T09:33:33Z</time>
      </trkpt>
      <trkpt lat="43.42885" lon="6.51372">
        <ele>51.2</ele>
        <time>2013-11-24T09:33:41Z</time>
      </trkpt>
      <trkpt lat="43.42879" lon="6.51381">
        <ele>52.2</ele>
        <time>2013-11-24T09:33:50Z</time>
      </trkpt>
      <trkpt lat="43.42873" lon="6.51389">
        <ele>52.7</ele>
        <time>2013-11-24T09:33:57Z</time>
      </trkpt>
      <trkpt lat="43.42868" lon="6.51398">
        <ele>53.5</ele>
        <time>2013-11-24T09:34:04Z</time>
      </trkpt>
      <trkpt lat="43.42863" lon="6.51408">
        <ele>53.7</ele>
        <time>2013-11-24T09:34:10Z</time>
      </trkpt>
      <trkpt lat="43.42862" lon="6.5141">
        <ele>53.7</ele>
        <time>2013-11-24T09:34:11Z</time>
      </trkpt>
      <trkpt lat="43.42856" lon="6.51429">
        <ele>55.1</ele>
        <time>2013-11-24T09:34:27Z</time>
      </trkpt>
      <trkpt lat="43.42854" lon="6.51441">
        <ele>55.5</ele>
        <time>2013-11-24T09:34:35Z</time>
      </trkpt>
      <trkpt lat="43.42856" lon="6.51452">
        <ele>55.6</ele>
        <time>2013-11-24T09:34:43Z</time>
      </trkpt>
      <trkpt lat="43.42856" lon="6.51464">
        <ele>55.9</ele>
        <time>2013-11-24T09:34:50Z</time>
      </trkpt>
      <trkpt lat="43.42851" lon="6.51473">
        <ele>56.8</ele>
        <time>2013-11-24T09:34:57Z</time>
      </trkpt>
      <trkpt lat="43.42846" lon="6.51481">
        <ele>57.1</ele>
        <time>2013-11-24T09:35:03Z</time>
      </trkpt>
      <trkpt lat="43.42842" lon="6.5149">
        <ele>58.1</ele>
        <time>2013-11-24T09:35:09Z</time>
      </trkpt>
      <trkpt lat="43.42835" lon="6.51496">
        <ele>58.4</ele>
        <time>2013-11-24T09:35:17Z</time>
      </trkpt>
      <trkpt lat="43.42834" lon="6.51497">
        <ele>58.5</ele>
        <time>2013-11-24T09:35:18Z</time>
      </trkpt>
      <trkpt lat="43.42823" lon="6.51512">
        <ele>60.4</ele>
        <time>2013-11-24T09:35:36Z</time>
      </trkpt>
      <trkpt lat="43.42814" lon="6.51511">
        <ele>60.4</ele>
        <time>2013-11-24T09:35:43Z</time>
      </trkpt>
      <trkpt lat="43.42807" lon="6.51515">
        <ele>60.9</ele>
        <time>2013-11-24T09:35:50Z</time>
      </trkpt>
      <trkpt lat="43.42799" lon="6.51519">
        <ele>61.6</ele>
        <time>2013-11-24T09:35:58Z</time>
      </trkpt>
      <trkpt lat="43.42792" lon="6.51524">
        <ele>62.1</ele>
        <time>2013-11-24T09:36:04Z</time>
      </trkpt>
      <trkpt lat="43.42788" lon="6.51534">
        <ele>62.3</ele>
        <time>2013-11-24T09:36:10Z</time>
      </trkpt>
      <trkpt lat="43.42784" lon="6.51543">
        <ele>63.3</ele>
        <time>2013-11-24T09:36:18Z</time>
      </trkpt>
      <trkpt lat="43.42783" lon="6.51545">
        <ele>63.5</ele>
        <time>2013-11-24T09:36:19Z</time>
      </trkpt>
      <trkpt lat="43.42779" lon="6.51566">
        <ele>64.9</ele>
        <time>2013-11-24T09:36:31Z</time>
      </trkpt>
      <trkpt lat="43.42777" lon="6.51577">
        <ele>65.3</ele>
        <time>2013-11-24T09:36:38Z</time>
      </trkpt>
      <trkpt lat="43.42779" lon="6.51589">
        <ele>66.2</ele>
        <time>2013-11-24T09:36:45Z</time>
      </trkpt>
      <trkpt lat="43.4278" lon="6.516">
        <ele>67.4</ele>
        <time>2013-11-24T09:36:53Z</time>
      </trkpt>
      <trkpt lat="43.42781" lon="6.51612">
        <ele>68.2</ele>
        <time>2013-11-24T09:37:02Z</time>
      </trkpt>
      <trkpt lat="43.42779" lon="6.51623">
        <ele>68.4</ele>
        <time>2013-11-24T09:37:10Z</time>
      </trkpt>
      <trkpt lat="43.42772" lon="6.51632">
        <ele>69.3</ele>
        <time>2013-11-24T09:37:18Z</time>
      </trkpt>
      <trkpt lat="43.42764" lon="6.51636">
        <ele>70.1</ele>
        <time>2013-11-24T09:37:26Z</time>
      </trkpt>
      <trkpt lat="43.42763" lon="6.51637">
        <ele>70.2</ele>
        <time>2013-11-24T09:37:27Z</time>
      </trkpt>
      <trkpt lat="43.4275" lon="6.51649">
        <ele>71.2</ele>
        <time>2013-11-24T09:37:45Z</time>
      </trkpt>
      <trkpt lat="43.42743" lon="6.51656">
        <ele>72.5</ele>
        <time>2013-11-24T09:37:54Z</time>
      </trkpt>
      <trkpt lat="43.42735" lon="6.51661">
        <ele>72.3</ele>
        <time>2013-11-24T09:38:01Z</time>
      </trkpt>
      <trkpt lat="43.42728" lon="6.51666">
        <ele>72.8</ele>
        <time>2013-11-24T09:38:08Z</time>
      </trkpt>
      <trkpt lat="43.42723" lon="6.51674">
        <ele>73.3</ele>
        <time>2013-11-24T09:38:14Z</time>
      </trkpt>
      <trkpt lat="43.42722" lon="6.51687">
        <ele>74.2</ele>
        <time>2013-11-24T09:38:21Z</time>
      </trkpt>
      <trkpt lat="43.42726" lon="6.51697">
        <ele>74.6</ele>
        <time>2013-11-24T09:38:29Z</time>
      </trkpt>
      <trkpt lat="43.42727" lon="6.51699">
        <ele>74.7</ele>
        <time>2013-11-24T09:38:30Z</time>
      </trkpt>
      <trkpt lat="43.42736" lon="6.51715">
        <ele>76.1</ele>
        <time>2013-11-24T09:38:41Z</time>
      </trkpt>
      <trkpt lat="43.4274" lon="6.51724">
        <ele>76.6</ele>
        <time>2013-11-24T09:38:47Z</time>
      </trkpt>
      <trkpt lat="43.42746" lon="6.51734">
        <ele>77.3</ele>
        <time>2013-11-24T09:38:55Z</time>
      </trkpt>
      <trkpt lat="43.4275" lon="6.51744">
        <ele>77.8</ele>
        <time>2013-11-24T09:39:02Z</time>
      </trkpt>
      <trkpt lat="43.42755" lon="6.51753">
        <ele>78.1</ele>
        <time>2013-11-24T09:39:09Z</time>
      </trkpt>
      <trkpt lat="43.42758" lon="6.51764">
        <ele>78.5</ele>
        <time>2013-11-24T09:39:15Z</time>
      </trkpt>
      <trkpt lat="43.42764" lon="6.51771">
        <ele>79.1</ele>
        <time>2013-11-24T09:39:22Z</time>
      </trkpt>
      <trkpt lat="43.4277" lon="6.5178">
        <ele>79.5</ele>
        <time>2013-11-24T09:39:30Z</time>
      </trkpt>
      <trkpt lat="43.4277" lon="6.51781">
        <ele>79.7</ele>
        <time>2013-11-24T09:39:31Z</time>
      </trkpt>
      <trkpt lat="43.42783" lon="6.51792">
        <ele>80.1</ele>
        <time>2013-11-24T09:39:51Z</time>
      </trkpt>
      <trkpt lat="43.42787" lon="6.51802">
        <ele>80.9</ele>
        <time>2013-11-24T09:40:00Z</time>
      </trkpt>
      <trkpt lat="43.42792" lon="6.51811">
        <ele>81.6</ele>
        <time>2013-11-24T09:40:07Z</time>
      </trkpt>
      <trkpt lat="43.42796" lon="6.5182">
        <ele>82.1</ele>
        <time>2013-11-24T09:40:16Z</time>
      </trkpt>
      <trkpt lat="43.428" lon="6.51831">
        <ele>83.2</ele>
        <time>2013-11-24T09:40:31Z</time>
      </trkpt>
      <trkpt lat="43.42801" lon="6.51832">
        <ele>83.3</ele>
        <time>2013-11-24T09:40:32Z</time>
      </trkpt>
      <trkpt lat="43.42802" lon="6.51854">
        <ele>84.8</ele>
        <time>2013-11-24T09:40:51Z</time>
      </trkpt>
      <trkpt lat="43.42799" lon="6.51865">
        <ele>85.5</ele>
        <time>2013-11-24T09:40:59Z</time>
      </trkpt>
      <trkpt lat="43.42799" lon="6.51876">
        <ele>86.4</ele>
        <time>2013-11-24T09:41:06Z</time>
      </trkpt>
      <trkpt lat="43.42801" lon="6.51888">
        <ele>86.6</ele>
        <time>2013-11-24T09:41:13Z</time>
      </trkpt>
      <trkpt lat="43.42805" lon="6.51898">
        <ele>87.6</ele>
        <time>2013-11-24T09:41:21Z</time>
      </trkpt>
      <trkpt lat="43.4281" lon="6.51907">
        <ele>88.4</ele>
        <time>2013-11-24T09:41:33Z</time>
      </trkpt>
      <trkpt lat="43.42811" lon="6.51908">
        <ele>88.3</ele>
        <time>2013-11-24T09:41:34Z</time>
      </trkpt>
      <trkpt lat="43.42814" lon="6.5193">
        <ele>89.5</ele>
        <time>2013-11-24T09:41:55Z</time>
      </trkpt>
      <trkpt lat="43.42814" lon="6.51942">
        <ele>90.2</ele>
        <time>2013-11-24T09:42:10Z</time>
      </trkpt>
      <trkpt lat="43.42813" lon="6.51954">
        <ele>90.9</ele>
        <time>2013-11-24T09:42:22Z</time>
      </trkpt>
      <trkpt lat="43.42813" lon="6.51966">
        <ele>91.4</ele>
        <time>2013-11-24T09:42:35Z</time>
      </trkpt>
      <trkpt lat="43.42813" lon="6.51966">
        <ele>91.5</ele>
        <time>2013-11-24T09:42:36Z</time>
      </trkpt>
      <trkpt lat="43.42816" lon="6.51989">
        <ele>93.5</ele>
        <time>2013-11-24T09:42:56Z</time>
      </trkpt>
      <trkpt lat="43.4282" lon="6.51999">
        <ele>93.9</ele>
        <time>2013-11-24T09:43:04Z</time>
      </trkpt>
      <trkpt lat="43.42824" lon="6.52011">
        <ele>95</ele>
        <time>2013-11-24T09:43:13Z</time>
      </trkpt>
      <trkpt lat="43.42825" lon="6.52022">
        <ele>95.7</ele>
        <time>2013-11-24T09:43:22Z</time>
      </trkpt>
      <trkpt lat="43.42827" lon="6.52033">
        <ele>96</ele>
        <time>2013-11-24T09:43:29Z</time>
      </trkpt>
      <trkpt lat="43.42829" lon="6.52045">
        <ele>96.5</ele>
        <time>2013-11-24T09:43:38Z</time>
      </trkpt>
      <trkpt lat="43.42829" lon="6.52046">
        <ele>96.3</ele>
        <time>2013-11-24T09:43:39Z</time>
      </trkpt>
      <trkpt lat="43.42844" lon="6.52057">
        <ele>96.9</ele>
        <time>2013-11-24T09:44:23Z</time>
      </trkpt>
      <trkpt lat="43.42844" lon="6.52069">
        <ele>97.4</ele>
        <time>2013-11-24T09:44:30Z</time>
      </trkpt>
      <trkpt lat="43.42846" lon="6.52079">
        <ele>97.6</ele>
        <time>2013-11-24T09:44:36Z</time>
      </trkpt>
      <trkpt lat="43.42847" lon="6.5209">
        <ele>97.8</ele>
        <time>2013-11-24T09:44:42Z</time>
      </trkpt>
      <trkpt lat="43.42848" lon="6.52092">
        <ele>98</ele>
        <time>2013-11-24T09:44:43Z</time>
      </trkpt>
      <trkpt lat="43.42848" lon="6.52112">
        <ele>98.4</ele>
        <time>2013-11-24T09:44:53Z</time>
      </trkpt>
      <trkpt lat="43.42849" lon="6.52123">
        <ele>98.6</ele>
        <time>2013-11-24T09:45:02Z</time>
      </trkpt>
      <trkpt lat="43.42847" lon="6.52135">
        <ele>99.5</ele>
        <time>2013-11-24T09:45:13Z</time>
      </trkpt>
      <trkpt lat="43.4284" lon="6.5214">
        <ele>100</ele>
        <time>2013-11-24T09:45:19Z</time>
      </trkpt>
      <trkpt lat="43.42832" lon="6.52144">
        <ele>100.7</ele>
        <time>2013-11-24T09:45:29Z</time>
      </trkpt>
      <trkpt lat="43.42824" lon="6.52151">
        <ele>101.3</ele>
        <time>2013-11-24T09:45:46Z</time>
      </trkpt>
      <trkpt lat="43.42824" lon="6.52151">
        <ele>101.2</ele>
        <time>2013-11-24T09:45:47Z</time>
      </trkpt>
      <trkpt lat="43.42815" lon="6.52151">
        <ele>102.1</ele>
        <time>2013-11-24T09:47:03Z</time>
      </trkpt>
      <trkpt lat="43.428" lon="6.52154">
        <ele>103.5</ele>
        <time>2013-11-24T09:47:16Z</time>
      </trkpt>
      <trkpt lat="43.42792" lon="6.52156">
        <ele>104.5</ele>
        <time>2013-11-24T09:47:21Z</time>
      </trkpt>
      <trkpt lat="43.42785" lon="6.52162">
        <ele>104.6</ele>
        <time>2013-11-24T09:47:29Z</time>
      </trkpt>
      <trkpt lat="43.42776" lon="6.52162">
        <ele>104.8</ele>
        <time>2013-11-24T09:47:35Z</time>
      </trkpt>
      <trkpt lat="43.42767" lon="6.52161">
        <ele>105.5</ele>
        <time>2013-11-24T09:47:42Z</time>
      </trkpt>
      <trkpt lat="43.4276" lon="6.52162">
        <ele>106.3</ele>
        <time>2013-11-24T09:47:50Z</time>
      </trkpt>
      <trkpt lat="43.42753" lon="6.5216">
        <ele>107</ele>
        <time>2013-11-24T09:47:58Z</time>
      </trkpt>
      <trkpt lat="43.42745" lon="6.52155">
        <ele>108.3</ele>
        <time>2013-11-24T09:48:06Z</time>
      </trkpt>
      <trkpt lat="43.42743" lon="6.52155">
        <ele>108.7</ele>
        <time>2013-11-24T09:48:07Z</time>
      </trkpt>
      <trkpt lat="43.42728" lon="6.52151">
        <ele>109.6</ele>
        <time>2013-11-24T09:48:20Z</time>
      </trkpt>
      <trkpt lat="43.4272" lon="6.5215">
        <ele>110</ele>
        <time>2013-11-24T09:48:28Z</time>
      </trkpt>
      <trkpt lat="43.42712" lon="6.52153">
        <ele>110.6</ele>
        <time>2013-11-24T09:48:36Z</time>
      </trkpt>
      <trkpt lat="43.42704" lon="6.52158">
        <ele>111.6</ele>
        <time>2013-11-24T09:48:44Z</time>
      </trkpt>
      <trkpt lat="43.42696" lon="6.52163">
        <ele>111.4</ele>
        <time>2013-11-24T09:48:53Z</time>
      </trkpt>
      <trkpt lat="43.42689" lon="6.5217">
        <ele>112.6</ele>
        <time>2013-11-24T09:49:01Z</time>
      </trkpt>
      <trkpt lat="43.42683" lon="6.52179">
        <ele>113.1</ele>
        <time>2013-11-24T09:49:07Z</time>
      </trkpt>
      <trkpt lat="43.42682" lon="6.5218">
        <ele>113.3</ele>
        <time>2013-11-24T09:49:08Z</time>
      </trkpt>
      <trkpt lat="43.42669" lon="6.5219">
        <ele>114.2</ele>
        <time>2013-11-24T09:49:23Z</time>
      </trkpt>
      <trkpt lat="43.42664" lon="6.52199">
        <ele>115.1</ele>
        <time>2013-11-24T09:49:29Z</time>
      </trkpt>
      <trkpt lat="43.42657" lon="6.52204">
        <ele>115.7</ele>
        <time>2013-11-24T09:49:37Z</time>
      </trkpt>
      <trkpt lat="43.4265" lon="6.52209">
        <ele>115.8</ele>
        <time>2013-11-24T09:49:45Z</time>
      </trkpt>
      <trkpt lat="43.42641" lon="6.52208">
        <ele>115</ele>
        <time>2013-11-24T09:49:53Z</time>
      </trkpt>
      <trkpt lat="43.42633" lon="6.52209">
        <ele>115</ele>
        <time>2013-11-24T09:50:00Z</time>
      </trkpt>
      <trkpt lat="43.42624" lon="6.5221">
        <ele>116.1</ele>
        <time>2013-11-24T09:50:08Z</time>
      </trkpt>
      <trkpt lat="43.42623" lon="6.52209">
        <ele>116.1</ele>
        <time>2013-11-24T09:50:09Z</time>
      </trkpt>
      <trkpt lat="43.42611" lon="6.52197">
        <ele>118</ele>
        <time>2013-11-24T09:50:26Z</time>
      </trkpt>
      <trkpt lat="43.42607" lon="6.52189">
        <ele>118.3</ele>
        <time>2013-11-24T09:50:33Z</time>
      </trkpt>
      <trkpt lat="43.42601" lon="6.5218">
        <ele>118.9</ele>
        <time>2013-11-24T09:50:40Z</time>
      </trkpt>
      <trkpt lat="43.42598" lon="6.52169">
        <ele>119.5</ele>
        <time>2013-11-24T09:50:47Z</time>
      </trkpt>
      <trkpt lat="43.42596" lon="6.52158">
        <ele>120.4</ele>
        <time>2013-11-24T09:50:55Z</time>
      </trkpt>
      <trkpt lat="43.42594" lon="6.52147">
        <ele>121</ele>
        <time>2013-11-24T09:51:02Z</time>
      </trkpt>
      <trkpt lat="43.42591" lon="6.52136">
        <ele>121.4</ele>
        <time>2013-11-24T09:51:10Z</time>
      </trkpt>
      <trkpt lat="43.42591" lon="6.52135">
        <ele>121.4</ele>
        <time>2013-11-24T09:51:11Z</time>
      </trkpt>
      <trkpt lat="43.42592" lon="6.52113">
        <ele>122.1</ele>
        <time>2013-11-24T09:51:27Z</time>
      </trkpt>
      <trkpt lat="43.42592" lon="6.52101">
        <ele>123.2</ele>
        <time>2013-11-24T09:51:34Z</time>
      </trkpt>
      <trkpt lat="43.42593" lon="6.52089">
        <ele>124.2</ele>
        <time>2013-11-24T09:51:41Z</time>
      </trkpt>
      <trkpt lat="43.42594" lon="6.52078">
        <ele>124.4</ele>
        <time>2013-11-24T09:51:48Z</time>
      </trkpt>
      <trkpt lat="43.42595" lon="6.52066">
        <ele>124.6</ele>
        <time>2013-11-24T09:51:55Z</time>
      </trkpt>
      <trkpt lat="43.42595" lon="6.52054">
        <ele>125</ele>
        <time>2013-11-24T09:52:03Z</time>
      </trkpt>
      <trkpt lat="43.42594" lon="6.52043">
        <ele>126</ele>
        <time>2013-11-24T09:52:12Z</time>
      </trkpt>
      <trkpt lat="43.42594" lon="6.52041">
        <ele>125.8</ele>
        <time>2013-11-24T09:52:13Z</time>
      </trkpt>
      <trkpt lat="43.4259" lon="6.52021">
        <ele>128.3</ele>
        <time>2013-11-24T09:52:28Z</time>
      </trkpt>
      <trkpt lat="43.42586" lon="6.52012">
        <ele>128.9</ele>
        <time>2013-11-24T09:52:36Z</time>
      </trkpt>
      <trkpt lat="43.4258" lon="6.52003">
        <ele>129.3</ele>
        <time>2013-11-24T09:52:43Z</time>
      </trkpt>
      <trkpt lat="43.42574" lon="6.51998">
        <ele>130.1</ele>
        <time>2013-11-24T09:52:52Z</time>
      </trkpt>
      <trkpt lat="43.42567" lon="6.5199">
        <ele>131</ele>
        <time>2013-11-24T09:52:59Z</time>
      </trkpt>
      <trkpt lat="43.42561" lon="6.51983">
        <ele>131.6</ele>
        <time>2013-11-24T09:53:05Z</time>
      </trkpt>
      <trkpt lat="43.42555" lon="6.51976">
        <ele>131.7</ele>
        <time>2013-11-24T09:53:12Z</time>
      </trkpt>
      <trkpt lat="43.42547" lon="6.51973">
        <ele>132.5</ele>
        <time>2013-11-24T09:53:19Z</time>
      </trkpt>
      <trkpt lat="43.42546" lon="6.51973">
        <ele>132.4</ele>
        <time>2013-11-24T09:53:20Z</time>
      </trkpt>
      <trkpt lat="43.42531" lon="6.51969">
        <ele>133.2</ele>
        <time>2013-11-24T09:53:33Z</time>
      </trkpt>
      <trkpt lat="43.42523" lon="6.51965">
        <ele>133.3</ele>
        <time>2013-11-24T09:53:40Z</time>
      </trkpt>
      <trkpt lat="43.42515" lon="6.51964">
        <ele>134.5</ele>
        <time>2013-11-24T09:53:48Z</time>
      </trkpt>
      <trkpt lat="43.42508" lon="6.51963">
        <ele>135.1</ele>
        <time>2013-11-24T09:53:54Z</time>
      </trkpt>
      <trkpt lat="43.425" lon="6.51963">
        <ele>135.8</ele>
        <time>2013-11-24T09:54:02Z</time>
      </trkpt>
      <trkpt lat="43.42491" lon="6.51965">
        <ele>136</ele>
        <time>2013-11-24T09:54:09Z</time>
      </trkpt>
      <trkpt lat="43.42483" lon="6.51965">
        <ele>137</ele>
        <time>2013-11-24T09:54:16Z</time>
      </trkpt>
      <trkpt lat="43.42475" lon="6.51966">
        <ele>137.6</ele>
        <time>2013-11-24T09:54:23Z</time>
      </trkpt>
      <trkpt lat="43.42474" lon="6.51966">
        <ele>137.6</ele>
        <time>2013-11-24T09:54:24Z</time>
      </trkpt>
      <trkpt lat="43.42458" lon="6.51969">
        <ele>138.8</ele>
        <time>2013-11-24T09:54:38Z</time>
      </trkpt>
      <trkpt lat="43.42449" lon="6.51967">
        <ele>139.4</ele>
        <time>2013-11-24T09:54:48Z</time>
      </trkpt>
      <trkpt lat="43.42442" lon="6.51959">
        <ele>140.2</ele>
        <time>2013-11-24T09:55:01Z</time>
      </trkpt>
      <trkpt lat="43.4244" lon="6.51947">
        <ele>141</ele>
        <time>2013-11-24T09:55:20Z</time>
      </trkpt>
      <trkpt lat="43.42436" lon="6.51959">
        <ele>140.2</ele>
        <time>2013-11-24T09:56:11Z</time>
      </trkpt>
      <trkpt lat="43.42436" lon="6.51959">
        <ele>140.1</ele>
        <time>2013-11-24T09:56:12Z</time>
      </trkpt>
      <trkpt lat="43.42441" lon="6.51947">
        <ele>142.7</ele>
        <time>2013-11-24T10:01:21Z</time>
      </trkpt>
      <trkpt lat="43.4244" lon="6.51925">
        <ele>143.3</ele>
        <time>2013-11-24T10:02:14Z</time>
      </trkpt>
      <trkpt lat="43.42445" lon="6.51915">
        <ele>143.3</ele>
        <time>2013-11-24T10:02:24Z</time>
      </trkpt>
      <trkpt lat="43.42446" lon="6.51914">
        <ele>143.3</ele>
        <time>2013-11-24T10:02:25Z</time>
      </trkpt>
      <trkpt lat="43.42461" lon="6.51905">
        <ele>141.8</ele>
        <time>2013-11-24T10:02:39Z</time>
      </trkpt>
      <trkpt lat="43.42468" lon="6.51898">
        <ele>142.2</ele>
        <time>2013-11-24T10:02:47Z</time>
      </trkpt>
      <trkpt lat="43.42475" lon="6.5189">
        <ele>142.3</ele>
        <time>2013-11-24T10:02:54Z</time>
      </trkpt>
      <trkpt lat="43.42481" lon="6.51882">
        <ele>142.7</ele>
        <time>2013-11-24T10:03:01Z</time>
      </trkpt>
      <trkpt lat="43.42488" lon="6.51875">
        <ele>142.5</ele>
        <time>2013-11-24T10:03:08Z</time>
      </trkpt>
      <trkpt lat="43.42493" lon="6.51866">
        <ele>143.1</ele>
        <time>2013-11-24T10:03:17Z</time>
      </trkpt>
      <trkpt lat="43.42499" lon="6.51856">
        <ele>142.7</ele>
        <time>2013-11-24T10:03:24Z</time>
      </trkpt>
      <trkpt lat="43.42504" lon="6.51847">
        <ele>143.5</ele>
        <time>2013-11-24T10:03:31Z</time>
      </trkpt>
      <trkpt lat="43.42505" lon="6.51845">
        <ele>143.8</ele>
        <time>2013-11-24T10:03:32Z</time>
      </trkpt>
      <trkpt lat="43.42512" lon="6.51826">
        <ele>144</ele>
        <time>2013-11-24T10:03:48Z</time>
      </trkpt>
      <trkpt lat="43.42517" lon="6.51816">
        <ele>143.9</ele>
        <time>2013-11-24T10:03:55Z</time>
      </trkpt>
      <trkpt lat="43.42522" lon="6.51805">
        <ele>144.5</ele>
        <time>2013-11-24T10:04:03Z</time>
      </trkpt>
      <trkpt lat="43.42525" lon="6.51795">
        <ele>144</ele>
        <time>2013-11-24T10:04:10Z</time>
      </trkpt>
      <trkpt lat="43.42527" lon="6.51783">
        <ele>144.2</ele>
        <time>2013-11-24T10:04:18Z</time>
      </trkpt>
      <trkpt lat="43.42529" lon="6.51774">
        <ele>144.2</ele>
        <time>2013-11-24T10:04:24Z</time>
      </trkpt>
      <trkpt lat="43.4253" lon="6.51763">
        <ele>145</ele>
        <time>2013-11-24T10:04:31Z</time>
      </trkpt>
      <trkpt lat="43.42529" lon="6.51751">
        <ele>145</ele>
        <time>2013-11-24T10:04:39Z</time>
      </trkpt>
      <trkpt lat="43.42529" lon="6.51749">
        <ele>145.2</ele>
        <time>2013-11-24T10:04:40Z</time>
      </trkpt>
      <trkpt lat="43.42519" lon="6.51732">
        <ele>145.8</ele>
        <time>2013-11-24T10:04:56Z</time>
      </trkpt>
      <trkpt lat="43.42515" lon="6.51723">
        <ele>146.6</ele>
        <time>2013-11-24T10:05:04Z</time>
      </trkpt>
      <trkpt lat="43.42513" lon="6.51711">
        <ele>147.4</ele>
        <time>2013-11-24T10:05:12Z</time>
      </trkpt>
      <trkpt lat="43.4251" lon="6.51701">
        <ele>147.2</ele>
        <time>2013-11-24T10:05:19Z</time>
      </trkpt>
      <trkpt lat="43.42507" lon="6.51691">
        <ele>147.7</ele>
        <time>2013-11-24T10:05:26Z</time>
      </trkpt>
      <trkpt lat="43.42504" lon="6.5168">
        <ele>148.2</ele>
        <time>2013-11-24T10:05:34Z</time>
      </trkpt>
      <trkpt lat="43.42499" lon="6.51671">
        <ele>148.9</ele>
        <time>2013-11-24T10:05:42Z</time>
      </trkpt>
      <trkpt lat="43.42498" lon="6.51669">
        <ele>149.1</ele>
        <time>2013-11-24T10:05:43Z</time>
      </trkpt>
      <trkpt lat="43.42487" lon="6.51654">
        <ele>149.7</ele>
        <time>2013-11-24T10:05:58Z</time>
      </trkpt>
      <trkpt lat="43.4248" lon="6.51647">
        <ele>150.1</ele>
        <time>2013-11-24T10:06:06Z</time>
      </trkpt>
      <trkpt lat="43.42473" lon="6.51639">
        <ele>150.7</ele>
        <time>2013-11-24T10:06:13Z</time>
      </trkpt>
      <trkpt lat="43.42467" lon="6.51631">
        <ele>151.1</ele>
        <time>2013-11-24T10:06:19Z</time>
      </trkpt>
      <trkpt lat="43.42459" lon="6.51625">
        <ele>151.6</ele>
        <time>2013-11-24T10:06:26Z</time>
      </trkpt>
      <trkpt lat="43.42451" lon="6.51621">
        <ele>152.3</ele>
        <time>2013-11-24T10:06:34Z</time>
      </trkpt>
      <trkpt lat="43.42443" lon="6.51624">
        <ele>152.1</ele>
        <time>2013-11-24T10:06:40Z</time>
      </trkpt>
      <trkpt lat="43.42435" lon="6.51628">
        <ele>152.5</ele>
        <time>2013-11-24T10:06:46Z</time>
      </trkpt>
      <trkpt lat="43.42435" lon="6.51629">
        <ele>152.6</ele>
        <time>2013-11-24T10:06:47Z</time>
      </trkpt>
      <trkpt lat="43.4242" lon="6.51638">
        <ele>154.2</ele>
        <time>2013-11-24T10:07:00Z</time>
      </trkpt>
      <trkpt lat="43.42412" lon="6.51639">
        <ele>154.8</ele>
        <time>2013-11-24T10:07:07Z</time>
      </trkpt>
      <trkpt lat="43.42403" lon="6.51636">
        <ele>154.9</ele>
        <time>2013-11-24T10:07:15Z</time>
      </trkpt>
      <trkpt lat="43.42395" lon="6.51638">
        <ele>155.6</ele>
        <time>2013-11-24T10:07:23Z</time>
      </trkpt>
      <trkpt lat="43.42387" lon="6.51636">
        <ele>156.4</ele>
        <time>2013-11-24T10:07:31Z</time>
      </trkpt>
      <trkpt lat="43.42379" lon="6.51637">
        <ele>157</ele>
        <time>2013-11-24T10:07:38Z</time>
      </trkpt>
      <trkpt lat="43.4237" lon="6.51637">
        <ele>157.8</ele>
        <time>2013-11-24T10:07:46Z</time>
      </trkpt>
      <trkpt lat="43.42361" lon="6.51638">
        <ele>157.6</ele>
        <time>2013-11-24T10:07:55Z</time>
      </trkpt>
      <trkpt lat="43.4236" lon="6.51638">
        <ele>157.8</ele>
        <time>2013-11-24T10:07:56Z</time>
      </trkpt>
      <trkpt lat="43.42346" lon="6.51628">
        <ele>159.9</ele>
        <time>2013-11-24T10:08:12Z</time>
      </trkpt>
      <trkpt lat="43.4234" lon="6.51619">
        <ele>160.2</ele>
        <time>2013-11-24T10:08:20Z</time>
      </trkpt>
      <trkpt lat="43.42335" lon="6.51611">
        <ele>160.8</ele>
        <time>2013-11-24T10:08:27Z</time>
      </trkpt>
      <trkpt lat="43.42329" lon="6.51603">
        <ele>160.5</ele>
        <time>2013-11-24T10:08:34Z</time>
      </trkpt>
      <trkpt lat="43.42322" lon="6.51595">
        <ele>160.7</ele>
        <time>2013-11-24T10:08:41Z</time>
      </trkpt>
      <trkpt lat="43.42316" lon="6.51589">
        <ele>161</ele>
        <time>2013-11-24T10:08:46Z</time>
      </trkpt>
      <trkpt lat="43.42311" lon="6.5158">
        <ele>161.1</ele>
        <time>2013-11-24T10:08:53Z</time>
      </trkpt>
      <trkpt lat="43.42307" lon="6.5157">
        <ele>161.3</ele>
        <time>2013-11-24T10:09:01Z</time>
      </trkpt>
      <trkpt lat="43.42306" lon="6.51568">
        <ele>161.2</ele>
        <time>2013-11-24T10:09:02Z</time>
      </trkpt>
      <trkpt lat="43.42297" lon="6.51552">
        <ele>161.8</ele>
        <time>2013-11-24T10:09:17Z</time>
      </trkpt>
      <trkpt lat="43.42291" lon="6.51543">
        <ele>161.8</ele>
        <time>2013-11-24T10:09:22Z</time>
      </trkpt>
      <trkpt lat="43.42287" lon="6.51533">
        <ele>161.7</ele>
        <time>2013-11-24T10:09:31Z</time>
      </trkpt>
      <trkpt lat="43.42279" lon="6.5153">
        <ele>162</ele>
        <time>2013-11-24T10:09:38Z</time>
      </trkpt>
      <trkpt lat="43.42271" lon="6.51529">
        <ele>162</ele>
        <time>2013-11-24T10:09:44Z</time>
      </trkpt>
      <trkpt lat="43.42262" lon="6.51529">
        <ele>161.7</ele>
        <time>2013-11-24T10:09:51Z</time>
      </trkpt>
      <trkpt lat="43.42254" lon="6.51527">
        <ele>162.5</ele>
        <time>2013-11-24T10:09:57Z</time>
      </trkpt>
      <trkpt lat="43.42246" lon="6.51526">
        <ele>162.8</ele>
        <time>2013-11-24T10:10:02Z</time>
      </trkpt>
      <trkpt lat="43.42245" lon="6.51526">
        <ele>162.9</ele>
        <time>2013-11-24T10:10:03Z</time>
      </trkpt>
      <trkpt lat="43.4223" lon="6.51521">
        <ele>163.2</ele>
        <time>2013-11-24T10:10:16Z</time>
      </trkpt>
      <trkpt lat="43.42222" lon="6.51517">
        <ele>163.1</ele>
        <time>2013-11-24T10:10:23Z</time>
      </trkpt>
      <trkpt lat="43.42215" lon="6.5151">
        <ele>163.2</ele>
        <time>2013-11-24T10:10:31Z</time>
      </trkpt>
      <trkpt lat="43.42211" lon="6.51502">
        <ele>164.1</ele>
        <time>2013-11-24T10:10:39Z</time>
      </trkpt>
      <trkpt lat="43.42206" lon="6.51493">
        <ele>162.8</ele>
        <time>2013-11-24T10:10:46Z</time>
      </trkpt>
      <trkpt lat="43.42204" lon="6.51484">
        <ele>163.1</ele>
        <time>2013-11-24T10:10:50Z</time>
      </trkpt>
      <trkpt lat="43.422" lon="6.51473">
        <ele>163.1</ele>
        <time>2013-11-24T10:10:57Z</time>
      </trkpt>
      <trkpt lat="43.42196" lon="6.51466">
        <ele>162.3</ele>
        <time>2013-11-24T10:11:01Z</time>
      </trkpt>
      <trkpt lat="43.42191" lon="6.51456">
        <ele>161.8</ele>
        <time>2013-11-24T10:11:08Z</time>
      </trkpt>
      <trkpt lat="43.42191" lon="6.51453">
        <ele>162.1</ele>
        <time>2013-11-24T10:11:09Z</time>
      </trkpt>
      <trkpt lat="43.42185" lon="6.51433">
        <ele>162.2</ele>
        <time>2013-11-24T10:11:23Z</time>
      </trkpt>
      <trkpt lat="43.42182" lon="6.51422">
        <ele>161.7</ele>
        <time>2013-11-24T10:11:30Z</time>
      </trkpt>
      <trkpt lat="43.42178" lon="6.51411">
        <ele>161.6</ele>
        <time>2013-11-24T10:11:35Z</time>
      </trkpt>
      <trkpt lat="43.42176" lon="6.51401">
        <ele>161.1</ele>
        <time>2013-11-24T10:11:42Z</time>
      </trkpt>
      <trkpt lat="43.42173" lon="6.5139">
        <ele>161.7</ele>
        <time>2013-11-24T10:11:49Z</time>
      </trkpt>
      <trkpt lat="43.42172" lon="6.51379">
        <ele>162</ele>
        <time>2013-11-24T10:11:56Z</time>
      </trkpt>
      <trkpt lat="43.42169" lon="6.51368">
        <ele>161.7</ele>
        <time>2013-11-24T10:12:03Z</time>
      </trkpt>
      <trkpt lat="43.42164" lon="6.5136">
        <ele>161.5</ele>
        <time>2013-11-24T10:12:09Z</time>
      </trkpt>
      <trkpt lat="43.42163" lon="6.51359">
        <ele>161.4</ele>
        <time>2013-11-24T10:12:10Z</time>
      </trkpt>
      <trkpt lat="43.42153" lon="6.51343">
        <ele>162.5</ele>
        <time>2013-11-24T10:12:22Z</time>
      </trkpt>
      <trkpt lat="43.42148" lon="6.51334">
        <ele>162.5</ele>
        <time>2013-11-24T10:12:30Z</time>
      </trkpt>
      <trkpt lat="43.42143" lon="6.51324">
        <ele>162.7</ele>
        <time>2013-11-24T10:12:37Z</time>
      </trkpt>
      <trkpt lat="43.42138" lon="6.51315">
        <ele>163</ele>
        <time>2013-11-24T10:12:43Z</time>
      </trkpt>
      <trkpt lat="43.42134" lon="6.51305">
        <ele>163.1</ele>
        <time>2013-11-24T10:12:50Z</time>
      </trkpt>
      <trkpt lat="43.42128" lon="6.51297">
        <ele>162.9</ele>
        <time>2013-11-24T10:12:55Z</time>
      </trkpt>
      <trkpt lat="43.42121" lon="6.51291">
        <ele>163.2</ele>
        <time>2013-11-24T10:13:02Z</time>
      </trkpt>
      <trkpt lat="43.42114" lon="6.51286">
        <ele>163.8</ele>
        <time>2013-11-24T10:13:11Z</time>
      </trkpt>
      <trkpt lat="43.42112" lon="6.51285">
        <ele>163.9</ele>
        <time>2013-11-24T10:13:12Z</time>
      </trkpt>
      <trkpt lat="43.42101" lon="6.51272">
        <ele>164.2</ele>
        <time>2013-11-24T10:13:23Z</time>
      </trkpt>
      <trkpt lat="43.42095" lon="6.51264">
        <ele>164.6</ele>
        <time>2013-11-24T10:13:31Z</time>
      </trkpt>
      <trkpt lat="43.42092" lon="6.51252">
        <ele>165</ele>
        <time>2013-11-24T10:13:38Z</time>
      </trkpt>
      <trkpt lat="43.42089" lon="6.51241">
        <ele>165.5</ele>
        <time>2013-11-24T10:13:46Z</time>
      </trkpt>
      <trkpt lat="43.42085" lon="6.51231">
        <ele>165.3</ele>
        <time>2013-11-24T10:13:53Z</time>
      </trkpt>
      <trkpt lat="43.42082" lon="6.51222">
        <ele>165.5</ele>
        <time>2013-11-24T10:14:00Z</time>
      </trkpt>
      <trkpt lat="43.42077" lon="6.51212">
        <ele>165.9</ele>
        <time>2013-11-24T10:14:06Z</time>
      </trkpt>
      <trkpt lat="43.42073" lon="6.51202">
        <ele>166.8</ele>
        <time>2013-11-24T10:14:14Z</time>
      </trkpt>
      <trkpt lat="43.42072" lon="6.51201">
        <ele>166.7</ele>
        <time>2013-11-24T10:14:15Z</time>
      </trkpt>
      <trkpt lat="43.42061" lon="6.51186">
        <ele>166.4</ele>
        <time>2013-11-24T10:14:29Z</time>
      </trkpt>
      <trkpt lat="43.42056" lon="6.5118">
        <ele>167.1</ele>
        <time>2013-11-24T10:14:35Z</time>
      </trkpt>
      <trkpt lat="43.4205" lon="6.51172">
        <ele>167.9</ele>
        <time>2013-11-24T10:14:41Z</time>
      </trkpt>
      <trkpt lat="43.42044" lon="6.51164">
        <ele>167.4</ele>
        <time>2013-11-24T10:14:49Z</time>
      </trkpt>
      <trkpt lat="43.42039" lon="6.51154">
        <ele>167.9</ele>
        <time>2013-11-24T10:14:58Z</time>
      </trkpt>
      <trkpt lat="43.42033" lon="6.51144">
        <ele>168.2</ele>
        <time>2013-11-24T10:15:07Z</time>
      </trkpt>
      <trkpt lat="43.42029" lon="6.51135">
        <ele>168.4</ele>
        <time>2013-11-24T10:15:13Z</time>
      </trkpt>
      <trkpt lat="43.42024" lon="6.51127">
        <ele>168.7</ele>
        <time>2013-11-24T10:15:19Z</time>
      </trkpt>
      <trkpt lat="43.42023" lon="6.51125">
        <ele>168.6</ele>
        <time>2013-11-24T10:15:20Z</time>
      </trkpt>
      <trkpt lat="43.42015" lon="6.51109">
        <ele>169.2</ele>
        <time>2013-11-24T10:15:33Z</time>
      </trkpt>
      <trkpt lat="43.42011" lon="6.51098">
        <ele>169.4</ele>
        <time>2013-11-24T10:15:41Z</time>
      </trkpt>
      <trkpt lat="43.42004" lon="6.5109">
        <ele>169.4</ele>
        <time>2013-11-24T10:15:46Z</time>
      </trkpt>
      <trkpt lat="43.42001" lon="6.51081">
        <ele>169.5</ele>
        <time>2013-11-24T10:15:53Z</time>
      </trkpt>
      <trkpt lat="43.41997" lon="6.51072">
        <ele>169.9</ele>
        <time>2013-11-24T10:16:00Z</time>
      </trkpt>
      <trkpt lat="43.41991" lon="6.51065">
        <ele>170.2</ele>
        <time>2013-11-24T10:16:05Z</time>
      </trkpt>
      <trkpt lat="43.41988" lon="6.51054">
        <ele>170.8</ele>
        <time>2013-11-24T10:16:14Z</time>
      </trkpt>
      <trkpt lat="43.41982" lon="6.51047">
        <ele>171.1</ele>
        <time>2013-11-24T10:16:20Z</time>
      </trkpt>
      <trkpt lat="43.41981" lon="6.51045">
        <ele>171.1</ele>
        <time>2013-11-24T10:16:21Z</time>
      </trkpt>
      <trkpt lat="43.41967" lon="6.5105">
        <ele>170.6</ele>
        <time>2013-11-24T10:16:35Z</time>
      </trkpt>
      <trkpt lat="43.41959" lon="6.51055">
        <ele>170.6</ele>
        <time>2013-11-24T10:16:40Z</time>
      </trkpt>
      <trkpt lat="43.41951" lon="6.51059">
        <ele>171.1</ele>
        <time>2013-11-24T10:16:46Z</time>
      </trkpt>
      <trkpt lat="43.41946" lon="6.51069">
        <ele>171</ele>
        <time>2013-11-24T10:16:55Z</time>
      </trkpt>
      <trkpt lat="43.41952" lon="6.51078">
        <ele>170.6</ele>
        <time>2013-11-24T10:17:02Z</time>
      </trkpt>
      <trkpt lat="43.41959" lon="6.51085">
        <ele>170.6</ele>
        <time>2013-11-24T10:17:07Z</time>
      </trkpt>
      <trkpt lat="43.41966" lon="6.51091">
        <ele>170.5</ele>
        <time>2013-11-24T10:17:14Z</time>
      </trkpt>
      <trkpt lat="43.41972" lon="6.51101">
        <ele>170.7</ele>
        <time>2013-11-24T10:17:20Z</time>
      </trkpt>
      <trkpt lat="43.41975" lon="6.51111">
        <ele>169.8</ele>
        <time>2013-11-24T10:17:28Z</time>
      </trkpt>
      <trkpt lat="43.41976" lon="6.51113">
        <ele>169.8</ele>
        <time>2013-11-24T10:17:29Z</time>
      </trkpt>
      <trkpt lat="43.41979" lon="6.51133">
        <ele>169.6</ele>
        <time>2013-11-24T10:17:41Z</time>
      </trkpt>
      <trkpt lat="43.41979" lon="6.51145">
        <ele>169</ele>
        <time>2013-11-24T10:17:49Z</time>
      </trkpt>
      <trkpt lat="43.4198" lon="6.51156">
        <ele>169.2</ele>
        <time>2013-11-24T10:17:56Z</time>
      </trkpt>
      <trkpt lat="43.41982" lon="6.51167">
        <ele>169.1</ele>
        <time>2013-11-24T10:18:03Z</time>
      </trkpt>
      <trkpt lat="43.41985" lon="6.51178">
        <ele>168.9</ele>
        <time>2013-11-24T10:18:10Z</time>
      </trkpt>
      <trkpt lat="43.41988" lon="6.51188">
        <ele>168.9</ele>
        <time>2013-11-24T10:18:15Z</time>
      </trkpt>
      <trkpt lat="43.4199" lon="6.512">
        <ele>168.6</ele>
        <time>2013-11-24T10:18:22Z</time>
      </trkpt>
      <trkpt lat="43.41993" lon="6.51212">
        <ele>168.3</ele>
        <time>2013-11-24T10:18:29Z</time>
      </trkpt>
      <trkpt lat="43.41993" lon="6.51213">
        <ele>168</ele>
        <time>2013-11-24T10:18:30Z</time>
      </trkpt>
      <trkpt lat="43.41991" lon="6.51235">
        <ele>167.7</ele>
        <time>2013-11-24T10:18:43Z</time>
      </trkpt>
      <trkpt lat="43.41991" lon="6.51245">
        <ele>167.6</ele>
        <time>2013-11-24T10:18:49Z</time>
      </trkpt>
      <trkpt lat="43.41989" lon="6.51256">
        <ele>167.3</ele>
        <time>2013-11-24T10:18:54Z</time>
      </trkpt>
      <trkpt lat="43.41986" lon="6.51266">
        <ele>167.2</ele>
        <time>2013-11-24T10:19:03Z</time>
      </trkpt>
      <trkpt lat="43.41982" lon="6.51277">
        <ele>166.5</ele>
        <time>2013-11-24T10:19:10Z</time>
      </trkpt>
      <trkpt lat="43.4198" lon="6.51288">
        <ele>166.1</ele>
        <time>2013-11-24T10:19:15Z</time>
      </trkpt>
      <trkpt lat="43.41982" lon="6.513">
        <ele>165.5</ele>
        <time>2013-11-24T10:19:23Z</time>
      </trkpt>
      <trkpt lat="43.41987" lon="6.51309">
        <ele>165.7</ele>
        <time>2013-11-24T10:19:31Z</time>
      </trkpt>
      <trkpt lat="43.41988" lon="6.5131">
        <ele>165.7</ele>
        <time>2013-11-24T10:19:32Z</time>
      </trkpt>
      <trkpt lat="43.41998" lon="6.51326">
        <ele>165.4</ele>
        <time>2013-11-24T10:19:44Z</time>
      </trkpt>
      <trkpt lat="43.42001" lon="6.51336">
        <ele>165.3</ele>
        <time>2013-11-24T10:19:50Z</time>
      </trkpt>
      <trkpt lat="43.42003" lon="6.51348">
        <ele>165.1</ele>
        <time>2013-11-24T10:19:56Z</time>
      </trkpt>
      <trkpt lat="43.42005" lon="6.5136">
        <ele>165.1</ele>
        <time>2013-11-24T10:20:04Z</time>
      </trkpt>
      <trkpt lat="43.42007" lon="6.51371">
        <ele>164.7</ele>
        <time>2013-11-24T10:20:13Z</time>
      </trkpt>
      <trkpt lat="43.42009" lon="6.51382">
        <ele>164.4</ele>
        <time>2013-11-24T10:20:18Z</time>
      </trkpt>
      <trkpt lat="43.42012" lon="6.51394">
        <ele>164.5</ele>
        <time>2013-11-24T10:20:25Z</time>
      </trkpt>
      <trkpt lat="43.42015" lon="6.51405">
        <ele>164.1</ele>
        <time>2013-11-24T10:20:31Z</time>
      </trkpt>
      <trkpt lat="43.42017" lon="6.51417">
        <ele>164.6</ele>
        <time>2013-11-24T10:20:39Z</time>
      </trkpt>
      <trkpt lat="43.42017" lon="6.51419">
        <ele>164.4</ele>
        <time>2013-11-24T10:20:40Z</time>
      </trkpt>
      <trkpt lat="43.42025" lon="6.51438">
        <ele>164.6</ele>
        <time>2013-11-24T10:20:53Z</time>
      </trkpt>
      <trkpt lat="43.42026" lon="6.51449">
        <ele>163.7</ele>
        <time>2013-11-24T10:20:59Z</time>
      </trkpt>
      <trkpt lat="43.42028" lon="6.5146">
        <ele>164.1</ele>
        <time>2013-11-24T10:21:07Z</time>
      </trkpt>
      <trkpt lat="43.42024" lon="6.5147">
        <ele>163.6</ele>
        <time>2013-11-24T10:21:13Z</time>
      </trkpt>
      <trkpt lat="43.4202" lon="6.5148">
        <ele>163.7</ele>
        <time>2013-11-24T10:21:22Z</time>
      </trkpt>
      <trkpt lat="43.42015" lon="6.5149">
        <ele>163</ele>
        <time>2013-11-24T10:21:32Z</time>
      </trkpt>
      <trkpt lat="43.42009" lon="6.51498">
        <ele>162.3</ele>
        <time>2013-11-24T10:21:39Z</time>
      </trkpt>
      <trkpt lat="43.42002" lon="6.51505">
        <ele>162.7</ele>
        <time>2013-11-24T10:21:47Z</time>
      </trkpt>
      <trkpt lat="43.42001" lon="6.51506">
        <ele>162.7</ele>
        <time>2013-11-24T10:21:48Z</time>
      </trkpt>
      <trkpt lat="43.41991" lon="6.51522">
        <ele>163.1</ele>
        <time>2013-11-24T10:22:00Z</time>
      </trkpt>
      <trkpt lat="43.41985" lon="6.51529">
        <ele>163.3</ele>
        <time>2013-11-24T10:22:07Z</time>
      </trkpt>
      <trkpt lat="43.41983" lon="6.5154">
        <ele>163.4</ele>
        <time>2013-11-24T10:22:12Z</time>
      </trkpt>
      <trkpt lat="43.41977" lon="6.51549">
        <ele>162.9</ele>
        <time>2013-11-24T10:22:18Z</time>
      </trkpt>
      <trkpt lat="43.41972" lon="6.51558">
        <ele>162.7</ele>
        <time>2013-11-24T10:22:25Z</time>
      </trkpt>
      <trkpt lat="43.41967" lon="6.51567">
        <ele>162.5</ele>
        <time>2013-11-24T10:22:31Z</time>
      </trkpt>
      <trkpt lat="43.4196" lon="6.51574">
        <ele>162.7</ele>
        <time>2013-11-24T10:22:39Z</time>
      </trkpt>
      <trkpt lat="43.41954" lon="6.51583">
        <ele>162.3</ele>
        <time>2013-11-24T10:22:49Z</time>
      </trkpt>
      <trkpt lat="43.41953" lon="6.51584">
        <ele>162.3</ele>
        <time>2013-11-24T10:22:50Z</time>
      </trkpt>
      <trkpt lat="43.41943" lon="6.516">
        <ele>162.3</ele>
        <time>2013-11-24T10:23:08Z</time>
      </trkpt>
      <trkpt lat="43.41936" lon="6.51605">
        <ele>161.8</ele>
        <time>2013-11-24T10:23:16Z</time>
      </trkpt>
      <trkpt lat="43.41928" lon="6.5161">
        <ele>161.5</ele>
        <time>2013-11-24T10:23:23Z</time>
      </trkpt>
      <trkpt lat="43.41921" lon="6.51617">
        <ele>161.3</ele>
        <time>2013-11-24T10:23:30Z</time>
      </trkpt>
      <trkpt lat="43.41914" lon="6.51625">
        <ele>161</ele>
        <time>2013-11-24T10:23:38Z</time>
      </trkpt>
      <trkpt lat="43.4191" lon="6.51634">
        <ele>160.8</ele>
        <time>2013-11-24T10:23:44Z</time>
      </trkpt>
      <trkpt lat="43.41908" lon="6.51646">
        <ele>160.1</ele>
        <time>2013-11-24T10:23:51Z</time>
      </trkpt>
      <trkpt lat="43.41908" lon="6.51648">
        <ele>159.8</ele>
        <time>2013-11-24T10:23:52Z</time>
      </trkpt>
      <trkpt lat="43.41905" lon="6.51667">
        <ele>160</ele>
        <time>2013-11-24T10:24:02Z</time>
      </trkpt>
      <trkpt lat="43.41901" lon="6.51677">
        <ele>159.3</ele>
        <time>2013-11-24T10:24:10Z</time>
      </trkpt>
      <trkpt lat="43.41896" lon="6.51687">
        <ele>158.7</ele>
        <time>2013-11-24T10:24:16Z</time>
      </trkpt>
      <trkpt lat="43.4189" lon="6.51695">
        <ele>157.6</ele>
        <time>2013-11-24T10:24:47Z</time>
      </trkpt>
      <trkpt lat="43.41882" lon="6.51701">
        <ele>157.3</ele>
        <time>2013-11-24T10:24:54Z</time>
      </trkpt>
      <trkpt lat="43.41881" lon="6.51702">
        <ele>157.3</ele>
        <time>2013-11-24T10:24:55Z</time>
      </trkpt>
      <trkpt lat="43.41867" lon="6.51712">
        <ele>156.9</ele>
        <time>2013-11-24T10:25:07Z</time>
      </trkpt>
      <trkpt lat="43.41859" lon="6.51716">
        <ele>156.6</ele>
        <time>2013-11-24T10:25:16Z</time>
      </trkpt>
      <trkpt lat="43.41851" lon="6.51718">
        <ele>156.6</ele>
        <time>2013-11-24T10:25:24Z</time>
      </trkpt>
      <trkpt lat="43.41842" lon="6.51719">
        <ele>156.4</ele>
        <time>2013-11-24T10:25:31Z</time>
      </trkpt>
      <trkpt lat="43.41834" lon="6.51714">
        <ele>156.4</ele>
        <time>2013-11-24T10:25:37Z</time>
      </trkpt>
      <trkpt lat="43.41827" lon="6.51709">
        <ele>156.6</ele>
        <time>2013-11-24T10:25:47Z</time>
      </trkpt>
      <trkpt lat="43.41819" lon="6.51709">
        <ele>156.4</ele>
        <time>2013-11-24T10:25:52Z</time>
      </trkpt>
      <trkpt lat="43.41811" lon="6.5171">
        <ele>156.2</ele>
        <time>2013-11-24T10:25:59Z</time>
      </trkpt>
      <trkpt lat="43.4181" lon="6.5171">
        <ele>156.1</ele>
        <time>2013-11-24T10:26:00Z</time>
      </trkpt>
      <trkpt lat="43.41794" lon="6.51713">
        <ele>155.1</ele>
        <time>2013-11-24T10:26:11Z</time>
      </trkpt>
      <trkpt lat="43.41787" lon="6.51718">
        <ele>155.1</ele>
        <time>2013-11-24T10:26:16Z</time>
      </trkpt>
      <trkpt lat="43.41778" lon="6.5172">
        <ele>155.6</ele>
        <time>2013-11-24T10:26:23Z</time>
      </trkpt>
      <trkpt lat="43.4177" lon="6.51721">
        <ele>155.7</ele>
        <time>2013-11-24T10:26:29Z</time>
      </trkpt>
      <trkpt lat="43.41762" lon="6.51726">
        <ele>155.4</ele>
        <time>2013-11-24T10:26:37Z</time>
      </trkpt>
      <trkpt lat="43.41758" lon="6.51737">
        <ele>155.8</ele>
        <time>2013-11-24T10:26:43Z</time>
      </trkpt>
      <trkpt lat="43.41756" lon="6.51748">
        <ele>155.6</ele>
        <time>2013-11-24T10:26:49Z</time>
      </trkpt>
      <trkpt lat="43.41754" lon="6.51759">
        <ele>155.1</ele>
        <time>2013-11-24T10:26:55Z</time>
      </trkpt>
      <trkpt lat="43.41752" lon="6.51769">
        <ele>155</ele>
        <time>2013-11-24T10:27:01Z</time>
      </trkpt>
      <trkpt lat="43.41751" lon="6.51771">
        <ele>154.9</ele>
        <time>2013-11-24T10:27:02Z</time>
      </trkpt>
      <trkpt lat="43.41748" lon="6.51792">
        <ele>154.7</ele>
        <time>2013-11-24T10:27:14Z</time>
      </trkpt>
      <trkpt lat="43.41747" lon="6.51803">
        <ele>153.6</ele>
        <time>2013-11-24T10:27:21Z</time>
      </trkpt>
      <trkpt lat="43.41745" lon="6.51814">
        <ele>153.3</ele>
        <time>2013-11-24T10:27:27Z</time>
      </trkpt>
      <trkpt lat="43.41743" lon="6.51824">
        <ele>152.8</ele>
        <time>2013-11-24T10:27:35Z</time>
      </trkpt>
      <trkpt lat="43.41738" lon="6.51833">
        <ele>152.8</ele>
        <time>2013-11-24T10:27:41Z</time>
      </trkpt>
      <trkpt lat="43.4173" lon="6.51837">
        <ele>152.7</ele>
        <time>2013-11-24T10:27:49Z</time>
      </trkpt>
      <trkpt lat="43.41721" lon="6.51837">
        <ele>153</ele>
        <time>2013-11-24T10:27:57Z</time>
      </trkpt>
      <trkpt lat="43.41715" lon="6.51831">
        <ele>152.6</ele>
        <time>2013-11-24T10:28:06Z</time>
      </trkpt>
      <trkpt lat="43.41714" lon="6.51829">
        <ele>152.5</ele>
        <time>2013-11-24T10:28:07Z</time>
      </trkpt>
      <trkpt lat="43.41704" lon="6.51812">
        <ele>151.2</ele>
        <time>2013-11-24T10:28:20Z</time>
      </trkpt>
      <trkpt lat="43.417" lon="6.51802">
        <ele>150.5</ele>
        <time>2013-11-24T10:28:28Z</time>
      </trkpt>
      <trkpt lat="43.41696" lon="6.5179">
        <ele>150.7</ele>
        <time>2013-11-24T10:28:35Z</time>
      </trkpt>
      <trkpt lat="43.41694" lon="6.5178">
        <ele>150.4</ele>
        <time>2013-11-24T10:28:43Z</time>
      </trkpt>
      <trkpt lat="43.41692" lon="6.51769">
        <ele>150</ele>
        <time>2013-11-24T10:28:51Z</time>
      </trkpt>
      <trkpt lat="43.41687" lon="6.51759">
        <ele>149.5</ele>
        <time>2013-11-24T10:28:57Z</time>
      </trkpt>
      <trkpt lat="43.41683" lon="6.51749">
        <ele>149.2</ele>
        <time>2013-11-24T10:29:04Z</time>
      </trkpt>
      <trkpt lat="43.41678" lon="6.5174">
        <ele>148.7</ele>
        <time>2013-11-24T10:29:10Z</time>
      </trkpt>
      <trkpt lat="43.41677" lon="6.51739">
        <ele>148.9</ele>
        <time>2013-11-24T10:29:11Z</time>
      </trkpt>
      <trkpt lat="43.4167" lon="6.51719">
        <ele>148.4</ele>
        <time>2013-11-24T10:29:23Z</time>
      </trkpt>
      <trkpt lat="43.41664" lon="6.5171">
        <ele>148.2</ele>
        <time>2013-11-24T10:29:32Z</time>
      </trkpt>
      <trkpt lat="43.41657" lon="6.51707">
        <ele>147.9</ele>
        <time>2013-11-24T10:29:37Z</time>
      </trkpt>
      <trkpt lat="43.4165" lon="6.51703">
        <ele>148.2</ele>
        <time>2013-11-24T10:29:41Z</time>
      </trkpt>
      <trkpt lat="43.41642" lon="6.51698">
        <ele>148.2</ele>
        <time>2013-11-24T10:29:46Z</time>
      </trkpt>
      <trkpt lat="43.41634" lon="6.51695">
        <ele>148</ele>
        <time>2013-11-24T10:29:55Z</time>
      </trkpt>
      <trkpt lat="43.41626" lon="6.51695">
        <ele>147.7</ele>
        <time>2013-11-24T10:30:00Z</time>
      </trkpt>
      <trkpt lat="43.41619" lon="6.51701">
        <ele>147.8</ele>
        <time>2013-11-24T10:30:07Z</time>
      </trkpt>
      <trkpt lat="43.41615" lon="6.5171">
        <ele>148</ele>
        <time>2013-11-24T10:30:12Z</time>
      </trkpt>
      <trkpt lat="43.41614" lon="6.51712">
        <ele>148.2</ele>
        <time>2013-11-24T10:30:13Z</time>
      </trkpt>
      <trkpt lat="43.41603" lon="6.51724">
        <ele>148.1</ele>
        <time>2013-11-24T10:30:24Z</time>
      </trkpt>
      <trkpt lat="43.41596" lon="6.51731">
        <ele>148.5</ele>
        <time>2013-11-24T10:30:32Z</time>
      </trkpt>
      <trkpt lat="43.41588" lon="6.51735">
        <ele>148.4</ele>
        <time>2013-11-24T10:30:38Z</time>
      </trkpt>
      <trkpt lat="43.41582" lon="6.51743">
        <ele>147.7</ele>
        <time>2013-11-24T10:30:47Z</time>
      </trkpt>
      <trkpt lat="43.41573" lon="6.51743">
        <ele>148</ele>
        <time>2013-11-24T10:30:57Z</time>
      </trkpt>
      <trkpt lat="43.41564" lon="6.51741">
        <ele>148.1</ele>
        <time>2013-11-24T10:31:04Z</time>
      </trkpt>
      <trkpt lat="43.41558" lon="6.51736">
        <ele>148.1</ele>
        <time>2013-11-24T10:31:10Z</time>
      </trkpt>
      <trkpt lat="43.4155" lon="6.51732">
        <ele>148.3</ele>
        <time>2013-11-24T10:31:17Z</time>
      </trkpt>
      <trkpt lat="43.41548" lon="6.51732">
        <ele>148.4</ele>
        <time>2013-11-24T10:31:18Z</time>
      </trkpt>
      <trkpt lat="43.41534" lon="6.51722">
        <ele>148.4</ele>
        <time>2013-11-24T10:31:34Z</time>
      </trkpt>
      <trkpt lat="43.41529" lon="6.51713">
        <ele>149.1</ele>
        <time>2013-11-24T10:31:43Z</time>
      </trkpt>
      <trkpt lat="43.4152" lon="6.5171">
        <ele>149.5</ele>
        <time>2013-11-24T10:31:50Z</time>
      </trkpt>
      <trkpt lat="43.41512" lon="6.5171">
        <ele>149.4</ele>
        <time>2013-11-24T10:31:56Z</time>
      </trkpt>
      <trkpt lat="43.41504" lon="6.51707">
        <ele>149.2</ele>
        <time>2013-11-24T10:32:01Z</time>
      </trkpt>
      <trkpt lat="43.41497" lon="6.51706">
        <ele>149.6</ele>
        <time>2013-11-24T10:32:08Z</time>
      </trkpt>
      <trkpt lat="43.41489" lon="6.51701">
        <ele>149.7</ele>
        <time>2013-11-24T10:32:13Z</time>
      </trkpt>
      <trkpt lat="43.41483" lon="6.51697">
        <ele>149.7</ele>
        <time>2013-11-24T10:32:22Z</time>
      </trkpt>
      <trkpt lat="43.41481" lon="6.51697">
        <ele>149.6</ele>
        <time>2013-11-24T10:32:23Z</time>
      </trkpt>
      <trkpt lat="43.41467" lon="6.51696">
        <ele>149.6</ele>
        <time>2013-11-24T10:32:31Z</time>
      </trkpt>
      <trkpt lat="43.4146" lon="6.51699">
        <ele>150</ele>
        <time>2013-11-24T10:32:38Z</time>
      </trkpt>
      <trkpt lat="43.41455" lon="6.51708">
        <ele>150</ele>
        <time>2013-11-24T10:32:43Z</time>
      </trkpt>
      <trkpt lat="43.4145" lon="6.51716">
        <ele>149.8</ele>
        <time>2013-11-24T10:32:49Z</time>
      </trkpt>
      <trkpt lat="43.41443" lon="6.51722">
        <ele>149.7</ele>
        <time>2013-11-24T10:32:56Z</time>
      </trkpt>
      <trkpt lat="43.41436" lon="6.51729">
        <ele>149.9</ele>
        <time>2013-11-24T10:33:04Z</time>
      </trkpt>
      <trkpt lat="43.41429" lon="6.51736">
        <ele>149.6</ele>
        <time>2013-11-24T10:33:10Z</time>
      </trkpt>
      <trkpt lat="43.41423" lon="6.51745">
        <ele>149.8</ele>
        <time>2013-11-24T10:33:17Z</time>
      </trkpt>
      <trkpt lat="43.41417" lon="6.51753">
        <ele>150.2</ele>
        <time>2013-11-24T10:33:23Z</time>
      </trkpt>
      <trkpt lat="43.41416" lon="6.51754">
        <ele>150.3</ele>
        <time>2013-11-24T10:33:24Z</time>
      </trkpt>
      <trkpt lat="43.41404" lon="6.5177">
        <ele>150</ele>
        <time>2013-11-24T10:33:40Z</time>
      </trkpt>
      <trkpt lat="43.41396" lon="6.51769">
        <ele>149.5</ele>
        <time>2013-11-24T10:33:46Z</time>
      </trkpt>
      <trkpt lat="43.41387" lon="6.51766">
        <ele>148.8</ele>
        <time>2013-11-24T10:34:04Z</time>
      </trkpt>
      <trkpt lat="43.41383" lon="6.51756">
        <ele>149.4</ele>
        <time>2013-11-24T10:35:11Z</time>
      </trkpt>
      <trkpt lat="43.41382" lon="6.51755">
        <ele>149.5</ele>
        <time>2013-11-24T10:35:12Z</time>
      </trkpt>
      <trkpt lat="43.41369" lon="6.51741">
        <ele>149.7</ele>
        <time>2013-11-24T10:35:31Z</time>
      </trkpt>
      <trkpt lat="43.41362" lon="6.51734">
        <ele>150.2</ele>
        <time>2013-11-24T10:35:40Z</time>
      </trkpt>
      <trkpt lat="43.41356" lon="6.51727">
        <ele>150.7</ele>
        <time>2013-11-24T10:35:48Z</time>
      </trkpt>
      <trkpt lat="43.41348" lon="6.51725">
        <ele>151.4</ele>
        <time>2013-11-24T10:35:55Z</time>
      </trkpt>
      <trkpt lat="43.4134" lon="6.51725">
        <ele>151.7</ele>
        <time>2013-11-24T10:36:03Z</time>
      </trkpt>
      <trkpt lat="43.41332" lon="6.51726">
        <ele>153</ele>
        <time>2013-11-24T10:36:13Z</time>
      </trkpt>
      <trkpt lat="43.41331" lon="6.51727">
        <ele>153.2</ele>
        <time>2013-11-24T10:36:14Z</time>
      </trkpt>
      <trkpt lat="43.41315" lon="6.51728">
        <ele>154.4</ele>
        <time>2013-11-24T10:36:28Z</time>
      </trkpt>
      <trkpt lat="43.41306" lon="6.51728">
        <ele>154.6</ele>
        <time>2013-11-24T10:36:37Z</time>
      </trkpt>
      <trkpt lat="43.41298" lon="6.51725">
        <ele>154.9</ele>
        <time>2013-11-24T10:36:48Z</time>
      </trkpt>
      <trkpt lat="43.4129" lon="6.51721">
        <ele>155.5</ele>
        <time>2013-11-24T10:36:57Z</time>
      </trkpt>
      <trkpt lat="43.41284" lon="6.51714">
        <ele>155.7</ele>
        <time>2013-11-24T10:37:06Z</time>
      </trkpt>
      <trkpt lat="43.41277" lon="6.51709">
        <ele>156.3</ele>
        <time>2013-11-24T10:37:13Z</time>
      </trkpt>
      <trkpt lat="43.41269" lon="6.51705">
        <ele>157.3</ele>
        <time>2013-11-24T10:37:23Z</time>
      </trkpt>
      <trkpt lat="43.41267" lon="6.51704">
        <ele>157.7</ele>
        <time>2013-11-24T10:37:24Z</time>
      </trkpt>
      <trkpt lat="43.41253" lon="6.51695">
        <ele>159.9</ele>
        <time>2013-11-24T10:37:40Z</time>
      </trkpt>
      <trkpt lat="43.41245" lon="6.51691">
        <ele>160.5</ele>
        <time>2013-11-24T10:37:48Z</time>
      </trkpt>
      <trkpt lat="43.41237" lon="6.51686">
        <ele>162.2</ele>
        <time>2013-11-24T10:37:56Z</time>
      </trkpt>
      <trkpt lat="43.4123" lon="6.51679">
        <ele>161.9</ele>
        <time>2013-11-24T10:38:04Z</time>
      </trkpt>
      <trkpt lat="43.41226" lon="6.5167">
        <ele>162.7</ele>
        <time>2013-11-24T10:38:12Z</time>
      </trkpt>
      <trkpt lat="43.41221" lon="6.5166">
        <ele>163.9</ele>
        <time>2013-11-24T10:38:20Z</time>
      </trkpt>
      <trkpt lat="43.41217" lon="6.51651">
        <ele>164.4</ele>
        <time>2013-11-24T10:38:29Z</time>
      </trkpt>
      <trkpt lat="43.41217" lon="6.51649">
        <ele>164.5</ele>
        <time>2013-11-24T10:38:30Z</time>
      </trkpt>
      <trkpt lat="43.41212" lon="6.51628">
        <ele>166.1</ele>
        <time>2013-11-24T10:38:48Z</time>
      </trkpt>
      <trkpt lat="43.41213" lon="6.51617">
        <ele>166.6</ele>
        <time>2013-11-24T10:38:55Z</time>
      </trkpt>
      <trkpt lat="43.41211" lon="6.51606">
        <ele>167.8</ele>
        <time>2013-11-24T10:39:03Z</time>
      </trkpt>
      <trkpt lat="43.41211" lon="6.51594">
        <ele>168.6</ele>
        <time>2013-11-24T10:39:12Z</time>
      </trkpt>
      <trkpt lat="43.41211" lon="6.51582">
        <ele>169.9</ele>
        <time>2013-11-24T10:39:20Z</time>
      </trkpt>
      <trkpt lat="43.4122" lon="6.51583">
        <ele>172.5</ele>
        <time>2013-11-24T10:39:51Z</time>
      </trkpt>
      <trkpt lat="43.41221" lon="6.51584">
        <ele>172.5</ele>
        <time>2013-11-24T10:39:52Z</time>
      </trkpt>
      <trkpt lat="43.41236" lon="6.51588">
        <ele>175.1</ele>
        <time>2013-11-24T10:40:15Z</time>
      </trkpt>
      <trkpt lat="43.41243" lon="6.51582">
        <ele>176.5</ele>
        <time>2013-11-24T10:40:26Z</time>
      </trkpt>
      <trkpt lat="43.41248" lon="6.51573">
        <ele>178.2</ele>
        <time>2013-11-24T10:40:33Z</time>
      </trkpt>
      <trkpt lat="43.41252" lon="6.51563">
        <ele>179.7</ele>
        <time>2013-11-24T10:40:45Z</time>
      </trkpt>
      <trkpt lat="43.41256" lon="6.51553">
        <ele>181.2</ele>
        <time>2013-11-24T10:40:55Z</time>
      </trkpt>
      <trkpt lat="43.41256" lon="6.51551">
        <ele>181.3</ele>
        <time>2013-11-24T10:40:56Z</time>
      </trkpt>
      <trkpt lat="43.41261" lon="6.5153">
        <ele>182</ele>
        <time>2013-11-24T10:41:10Z</time>
      </trkpt>
      <trkpt lat="43.41257" lon="6.5152">
        <ele>182.1</ele>
        <time>2013-11-24T10:41:17Z</time>
      </trkpt>
      <trkpt lat="43.41254" lon="6.51508">
        <ele>183.1</ele>
        <time>2013-11-24T10:41:24Z</time>
      </trkpt>
      <trkpt lat="43.41248" lon="6.51501">
        <ele>184.2</ele>
        <time>2013-11-24T10:41:35Z</time>
      </trkpt>
      <trkpt lat="43.41239" lon="6.51497">
        <ele>184.7</ele>
        <time>2013-11-24T10:41:43Z</time>
      </trkpt>
      <trkpt lat="43.41231" lon="6.51492">
        <ele>185.9</ele>
        <time>2013-11-24T10:41:54Z</time>
      </trkpt>
      <trkpt lat="43.41224" lon="6.51489">
        <ele>186.9</ele>
        <time>2013-11-24T10:42:02Z</time>
      </trkpt>
      <trkpt lat="43.41223" lon="6.51488">
        <ele>187</ele>
        <time>2013-11-24T10:42:03Z</time>
      </trkpt>
      <trkpt lat="43.41209" lon="6.51476">
        <ele>188.1</ele>
        <time>2013-11-24T10:42:20Z</time>
      </trkpt>
      <trkpt lat="43.41203" lon="6.51467">
        <ele>189.1</ele>
        <time>2013-11-24T10:42:29Z</time>
      </trkpt>
      <trkpt lat="43.41196" lon="6.5146">
        <ele>190.7</ele>
        <time>2013-11-24T10:42:40Z</time>
      </trkpt>
      <trkpt lat="43.4119" lon="6.51451">
        <ele>191.6</ele>
        <time>2013-11-24T10:42:50Z</time>
      </trkpt>
      <trkpt lat="43.41184" lon="6.51443">
        <ele>192.8</ele>
        <time>2013-11-24T10:43:01Z</time>
      </trkpt>
      <trkpt lat="43.41176" lon="6.51438">
        <ele>193.9</ele>
        <time>2013-11-24T10:43:11Z</time>
      </trkpt>
      <trkpt lat="43.41175" lon="6.51437">
        <ele>193.8</ele>
        <time>2013-11-24T10:43:12Z</time>
      </trkpt>
      <trkpt lat="43.41164" lon="6.51422">
        <ele>195.8</ele>
        <time>2013-11-24T10:43:31Z</time>
      </trkpt>
      <trkpt lat="43.41159" lon="6.51413">
        <ele>197.2</ele>
        <time>2013-11-24T10:43:46Z</time>
      </trkpt>
      <trkpt lat="43.41153" lon="6.51404">
        <ele>198.4</ele>
        <time>2013-11-24T10:43:59Z</time>
      </trkpt>
      <trkpt lat="43.41148" lon="6.51394">
        <ele>199.8</ele>
        <time>2013-11-24T10:44:10Z</time>
      </trkpt>
      <trkpt lat="43.41143" lon="6.51385">
        <ele>201.5</ele>
        <time>2013-11-24T10:44:23Z</time>
      </trkpt>
      <trkpt lat="43.41142" lon="6.51384">
        <ele>201.6</ele>
        <time>2013-11-24T10:44:24Z</time>
      </trkpt>
      <trkpt lat="43.41136" lon="6.51363">
        <ele>205.1</ele>
        <time>2013-11-24T10:44:49Z</time>
      </trkpt>
      <trkpt lat="43.41133" lon="6.51352">
        <ele>207</ele>
        <time>2013-11-24T10:45:04Z</time>
      </trkpt>
      <trkpt lat="43.41141" lon="6.51358">
        <ele>209.6</ele>
        <time>2013-11-24T10:45:31Z</time>
      </trkpt>
      <trkpt lat="43.41141" lon="6.51358">
        <ele>209.6</ele>
        <time>2013-11-24T10:45:32Z</time>
      </trkpt>
      <trkpt lat="43.41154" lon="6.51372">
        <ele>212.2</ele>
        <time>2013-11-24T10:45:53Z</time>
      </trkpt>
      <trkpt lat="43.41161" lon="6.5138">
        <ele>212.9</ele>
        <time>2013-11-24T10:46:03Z</time>
      </trkpt>
      <trkpt lat="43.4117" lon="6.51379">
        <ele>214.8</ele>
        <time>2013-11-24T10:46:15Z</time>
      </trkpt>
      <trkpt lat="43.41178" lon="6.51377">
        <ele>215.9</ele>
        <time>2013-11-24T10:46:25Z</time>
      </trkpt>
      <trkpt lat="43.41187" lon="6.51376">
        <ele>215.3</ele>
        <time>2013-11-24T10:46:35Z</time>
      </trkpt>
      <trkpt lat="43.41187" lon="6.51377">
        <ele>215.2</ele>
        <time>2013-11-24T10:46:36Z</time>
      </trkpt>
      <trkpt lat="43.41203" lon="6.51381">
        <ele>216.6</ele>
        <time>2013-11-24T10:46:54Z</time>
      </trkpt>
      <trkpt lat="43.41211" lon="6.51381">
        <ele>217.6</ele>
        <time>2013-11-24T10:47:04Z</time>
      </trkpt>
      <trkpt lat="43.41219" lon="6.51384">
        <ele>218.9</ele>
        <time>2013-11-24T10:47:14Z</time>
      </trkpt>
      <trkpt lat="43.41228" lon="6.51385">
        <ele>219.3</ele>
        <time>2013-11-24T10:47:23Z</time>
      </trkpt>
      <trkpt lat="43.41236" lon="6.51388">
        <ele>219.9</ele>
        <time>2013-11-24T10:47:33Z</time>
      </trkpt>
      <trkpt lat="43.41245" lon="6.51386">
        <ele>221.2</ele>
        <time>2013-11-24T10:47:42Z</time>
      </trkpt>
      <trkpt lat="43.41246" lon="6.51386">
        <ele>221.3</ele>
        <time>2013-11-24T10:47:43Z</time>
      </trkpt>
      <trkpt lat="43.41262" lon="6.51387">
        <ele>223.5</ele>
        <time>2013-11-24T10:48:02Z</time>
      </trkpt>
      <trkpt lat="43.41271" lon="6.51385">
        <ele>224.5</ele>
        <time>2013-11-24T10:48:11Z</time>
      </trkpt>
      <trkpt lat="43.41279" lon="6.51386">
        <ele>226.4</ele>
        <time>2013-11-24T10:48:24Z</time>
      </trkpt>
      <trkpt lat="43.41287" lon="6.51385">
        <ele>227.4</ele>
        <time>2013-11-24T10:48:34Z</time>
      </trkpt>
      <trkpt lat="43.41295" lon="6.51384">
        <ele>227.5</ele>
        <time>2013-11-24T10:48:42Z</time>
      </trkpt>
      <trkpt lat="43.41304" lon="6.51382">
        <ele>228.7</ele>
        <time>2013-11-24T10:48:52Z</time>
      </trkpt>
      <trkpt lat="43.41304" lon="6.51382">
        <ele>228.7</ele>
        <time>2013-11-24T10:48:53Z</time>
      </trkpt>
      <trkpt lat="43.41318" lon="6.51392">
        <ele>231.1</ele>
        <time>2013-11-24T10:49:09Z</time>
      </trkpt>
      <trkpt lat="43.41326" lon="6.51397">
        <ele>231.5</ele>
        <time>2013-11-24T10:49:18Z</time>
      </trkpt>
      <trkpt lat="43.41334" lon="6.51401">
        <ele>232.8</ele>
        <time>2013-11-24T10:49:28Z</time>
      </trkpt>
      <trkpt lat="43.41343" lon="6.51404">
        <ele>234.2</ele>
        <time>2013-11-24T10:49:39Z</time>
      </trkpt>
      <trkpt lat="43.41351" lon="6.51408">
        <ele>235.3</ele>
        <time>2013-11-24T10:49:49Z</time>
      </trkpt>
      <trkpt lat="43.4136" lon="6.51409">
        <ele>236</ele>
        <time>2013-11-24T10:49:58Z</time>
      </trkpt>
      <trkpt lat="43.41361" lon="6.51409">
        <ele>236.1</ele>
        <time>2013-11-24T10:49:59Z</time>
      </trkpt>
      <trkpt lat="43.41375" lon="6.51407">
        <ele>238.1</ele>
        <time>2013-11-24T10:50:16Z</time>
      </trkpt>
      <trkpt lat="43.41384" lon="6.51404">
        <ele>239.3</ele>
        <time>2013-11-24T10:50:26Z</time>
      </trkpt>
      <trkpt lat="43.41393" lon="6.51403">
        <ele>240.8</ele>
        <time>2013-11-24T10:50:38Z</time>
      </trkpt>
      <trkpt lat="43.41401" lon="6.514">
        <ele>241.8</ele>
        <time>2013-11-24T10:50:52Z</time>
      </trkpt>
      <trkpt lat="43.41409" lon="6.51396">
        <ele>242.7</ele>
        <time>2013-11-24T10:51:02Z</time>
      </trkpt>
      <trkpt lat="43.41409" lon="6.51395">
        <ele>242.8</ele>
        <time>2013-11-24T10:51:03Z</time>
      </trkpt>
      <trkpt lat="43.41424" lon="6.51388">
        <ele>244.8</ele>
        <time>2013-11-24T10:51:21Z</time>
      </trkpt>
      <trkpt lat="43.41432" lon="6.51383">
        <ele>245.2</ele>
        <time>2013-11-24T10:51:30Z</time>
      </trkpt>
      <trkpt lat="43.4144" lon="6.51381">
        <ele>246</ele>
        <time>2013-11-24T10:51:40Z</time>
      </trkpt>
      <trkpt lat="43.41449" lon="6.51381">
        <ele>247.5</ele>
        <time>2013-11-24T10:51:52Z</time>
      </trkpt>
      <trkpt lat="43.41458" lon="6.51378">
        <ele>248.5</ele>
        <time>2013-11-24T10:52:02Z</time>
      </trkpt>
      <trkpt lat="43.41466" lon="6.51377">
        <ele>249.7</ele>
        <time>2013-11-24T10:52:13Z</time>
      </trkpt>
      <trkpt lat="43.41467" lon="6.51377">
        <ele>249.8</ele>
        <time>2013-11-24T10:52:14Z</time>
      </trkpt>
      <trkpt lat="43.41484" lon="6.51373">
        <ele>251.7</ele>
        <time>2013-11-24T10:53:48Z</time>
      </trkpt>
      <trkpt lat="43.41484" lon="6.51373">
        <ele>251.7</ele>
        <time>2013-11-24T10:53:49Z</time>
      </trkpt>
      <trkpt lat="43.415" lon="6.51367">
        <ele>253.7</ele>
        <time>2013-11-24T10:54:24Z</time>
      </trkpt>
      <trkpt lat="43.41508" lon="6.51364">
        <ele>255</ele>
        <time>2013-11-24T10:54:34Z</time>
      </trkpt>
      <trkpt lat="43.41517" lon="6.51361">
        <ele>256.1</ele>
        <time>2013-11-24T10:54:43Z</time>
      </trkpt>
      <trkpt lat="43.41525" lon="6.5136">
        <ele>257.4</ele>
        <time>2013-11-24T10:54:53Z</time>
      </trkpt>
      <trkpt lat="43.41526" lon="6.51359">
        <ele>257.5</ele>
        <time>2013-11-24T10:54:54Z</time>
      </trkpt>
      <trkpt lat="43.41541" lon="6.51359">
        <ele>260.4</ele>
        <time>2013-11-24T10:55:15Z</time>
      </trkpt>
      <trkpt lat="43.41549" lon="6.51359">
        <ele>261.2</ele>
        <time>2013-11-24T10:55:24Z</time>
      </trkpt>
      <trkpt lat="43.41557" lon="6.51358">
        <ele>261.5</ele>
        <time>2013-11-24T10:55:32Z</time>
      </trkpt>
      <trkpt lat="43.41566" lon="6.51357">
        <ele>261.8</ele>
        <time>2013-11-24T10:55:44Z</time>
      </trkpt>
      <trkpt lat="43.41574" lon="6.51358">
        <ele>261.3</ele>
        <time>2013-11-24T10:55:53Z</time>
      </trkpt>
      <trkpt lat="43.41583" lon="6.51359">
        <ele>261.3</ele>
        <time>2013-11-24T10:56:08Z</time>
      </trkpt>
      <trkpt lat="43.41583" lon="6.51359">
        <ele>261.4</ele>
        <time>2013-11-24T10:56:09Z</time>
      </trkpt>
      <trkpt lat="43.416" lon="6.51362">
        <ele>260.5</ele>
        <time>2013-11-24T10:56:39Z</time>
      </trkpt>
      <trkpt lat="43.41608" lon="6.51361">
        <ele>262.7</ele>
        <time>2013-11-24T10:57:24Z</time>
      </trkpt>
      <trkpt lat="43.41609" lon="6.51361">
        <ele>262.6</ele>
        <time>2013-11-24T10:57:25Z</time>
      </trkpt>
      <trkpt lat="43.41623" lon="6.51351">
        <ele>262</ele>
        <time>2013-11-24T10:57:38Z</time>
      </trkpt>
      <trkpt lat="43.41628" lon="6.51342">
        <ele>261.6</ele>
        <time>2013-11-24T10:57:45Z</time>
      </trkpt>
      <trkpt lat="43.41631" lon="6.51332">
        <ele>261.9</ele>
        <time>2013-11-24T10:57:53Z</time>
      </trkpt>
      <trkpt lat="43.41632" lon="6.51321">
        <ele>261.7</ele>
        <time>2013-11-24T10:58:00Z</time>
      </trkpt>
      <trkpt lat="43.41632" lon="6.51309">
        <ele>261.6</ele>
        <time>2013-11-24T10:58:07Z</time>
      </trkpt>
      <trkpt lat="43.41631" lon="6.51297">
        <ele>260.4</ele>
        <time>2013-11-24T10:58:16Z</time>
      </trkpt>
      <trkpt lat="43.41629" lon="6.51286">
        <ele>260.7</ele>
        <time>2013-11-24T10:58:22Z</time>
      </trkpt>
      <trkpt lat="43.4163" lon="6.51276">
        <ele>260.8</ele>
        <time>2013-11-24T10:58:29Z</time>
      </trkpt>
      <trkpt lat="43.4163" lon="6.51274">
        <ele>261.1</ele>
        <time>2013-11-24T10:58:30Z</time>
      </trkpt>
      <trkpt lat="43.41627" lon="6.51253">
        <ele>260.8</ele>
        <time>2013-11-24T10:58:45Z</time>
      </trkpt>
      <trkpt lat="43.41625" lon="6.51241">
        <ele>260.9</ele>
        <time>2013-11-24T10:58:52Z</time>
      </trkpt>
      <trkpt lat="43.41624" lon="6.51229">
        <ele>260.6</ele>
        <time>2013-11-24T10:59:13Z</time>
      </trkpt>
      <trkpt lat="43.41618" lon="6.51221">
        <ele>260</ele>
        <time>2013-11-24T10:59:21Z</time>
      </trkpt>
      <trkpt lat="43.41612" lon="6.51215">
        <ele>260.1</ele>
        <time>2013-11-24T10:59:26Z</time>
      </trkpt>
      <trkpt lat="43.41606" lon="6.51207">
        <ele>260.1</ele>
        <time>2013-11-24T10:59:33Z</time>
      </trkpt>
      <trkpt lat="43.41605" lon="6.51206">
        <ele>260.2</ele>
        <time>2013-11-24T10:59:34Z</time>
      </trkpt>
      <trkpt lat="43.41595" lon="6.51189">
        <ele>260.1</ele>
        <time>2013-11-24T10:59:47Z</time>
      </trkpt>
      <trkpt lat="43.41593" lon="6.51178">
        <ele>260</ele>
        <time>2013-11-24T10:59:54Z</time>
      </trkpt>
      <trkpt lat="43.41593" lon="6.51166">
        <ele>259.7</ele>
        <time>2013-11-24T11:00:01Z</time>
      </trkpt>
      <trkpt lat="43.41593" lon="6.51155">
        <ele>260</ele>
        <time>2013-11-24T11:00:08Z</time>
      </trkpt>
      <trkpt lat="43.41591" lon="6.51143">
        <ele>260.6</ele>
        <time>2013-11-24T11:00:17Z</time>
      </trkpt>
      <trkpt lat="43.41588" lon="6.51131">
        <ele>260.6</ele>
        <time>2013-11-24T11:00:24Z</time>
      </trkpt>
      <trkpt lat="43.41588" lon="6.51119">
        <ele>260.2</ele>
        <time>2013-11-24T11:00:31Z</time>
      </trkpt>
      <trkpt lat="43.41586" lon="6.51108">
        <ele>260.5</ele>
        <time>2013-11-24T11:00:39Z</time>
      </trkpt>
      <trkpt lat="43.41586" lon="6.51106">
        <ele>260.3</ele>
        <time>2013-11-24T11:00:40Z</time>
      </trkpt>
      <trkpt lat="43.41579" lon="6.51087">
        <ele>260.8</ele>
        <time>2013-11-24T11:00:53Z</time>
      </trkpt>
      <trkpt lat="43.41574" lon="6.51079">
        <ele>260.6</ele>
        <time>2013-11-24T11:00:59Z</time>
      </trkpt>
      <trkpt lat="43.41567" lon="6.51071">
        <ele>260.8</ele>
        <time>2013-11-24T11:01:06Z</time>
      </trkpt>
      <trkpt lat="43.41562" lon="6.51063">
        <ele>260.6</ele>
        <time>2013-11-24T11:01:13Z</time>
      </trkpt>
      <trkpt lat="43.41556" lon="6.51055">
        <ele>260.2</ele>
        <time>2013-11-24T11:01:20Z</time>
      </trkpt>
      <trkpt lat="43.41551" lon="6.51045">
        <ele>261.3</ele>
        <time>2013-11-24T11:01:27Z</time>
      </trkpt>
      <trkpt lat="43.41545" lon="6.51037">
        <ele>261</ele>
        <time>2013-11-24T11:01:34Z</time>
      </trkpt>
      <trkpt lat="43.41538" lon="6.51031">
        <ele>260.1</ele>
        <time>2013-11-24T11:01:40Z</time>
      </trkpt>
      <trkpt lat="43.41537" lon="6.51029">
        <ele>259.9</ele>
        <time>2013-11-24T11:01:41Z</time>
      </trkpt>
      <trkpt lat="43.41539" lon="6.51009">
        <ele>259.8</ele>
        <time>2013-11-24T11:01:58Z</time>
      </trkpt>
      <trkpt lat="43.41544" lon="6.51001">
        <ele>259.5</ele>
        <time>2013-11-24T11:02:03Z</time>
      </trkpt>
      <trkpt lat="43.4155" lon="6.50992">
        <ele>259.6</ele>
        <time>2013-11-24T11:02:12Z</time>
      </trkpt>
      <trkpt lat="43.41556" lon="6.50985">
        <ele>260.4</ele>
        <time>2013-11-24T11:02:22Z</time>
      </trkpt>
      <trkpt lat="43.41564" lon="6.50981">
        <ele>260.3</ele>
        <time>2013-11-24T11:02:29Z</time>
      </trkpt>
      <trkpt lat="43.41572" lon="6.50978">
        <ele>260.7</ele>
        <time>2013-11-24T11:02:36Z</time>
      </trkpt>
      <trkpt lat="43.41581" lon="6.50976">
        <ele>260.3</ele>
        <time>2013-11-24T11:02:43Z</time>
      </trkpt>
      <trkpt lat="43.41582" lon="6.50976">
        <ele>260.4</ele>
        <time>2013-11-24T11:02:44Z</time>
      </trkpt>
      <trkpt lat="43.41597" lon="6.50978">
        <ele>260.4</ele>
        <time>2013-11-24T11:02:56Z</time>
      </trkpt>
      <trkpt lat="43.41605" lon="6.50978">
        <ele>260.2</ele>
        <time>2013-11-24T11:03:03Z</time>
      </trkpt>
      <trkpt lat="43.41613" lon="6.50978">
        <ele>261.7</ele>
        <time>2013-11-24T11:03:11Z</time>
      </trkpt>
      <trkpt lat="43.41622" lon="6.5098">
        <ele>261.7</ele>
        <time>2013-11-24T11:03:17Z</time>
      </trkpt>
      <trkpt lat="43.4163" lon="6.50982">
        <ele>262.1</ele>
        <time>2013-11-24T11:03:24Z</time>
      </trkpt>
      <trkpt lat="43.41637" lon="6.50986">
        <ele>262.3</ele>
        <time>2013-11-24T11:03:31Z</time>
      </trkpt>
      <trkpt lat="43.41645" lon="6.50989">
        <ele>262</ele>
        <time>2013-11-24T11:03:38Z</time>
      </trkpt>
      <trkpt lat="43.41654" lon="6.50987">
        <ele>261.8</ele>
        <time>2013-11-24T11:03:44Z</time>
      </trkpt>
      <trkpt lat="43.41656" lon="6.50988">
        <ele>261.8</ele>
        <time>2013-11-24T11:03:45Z</time>
      </trkpt>
      <trkpt lat="43.4167" lon="6.50987">
        <ele>261.6</ele>
        <time>2013-11-24T11:04:05Z</time>
      </trkpt>
      <trkpt lat="43.41678" lon="6.50986">
        <ele>261.3</ele>
        <time>2013-11-24T11:04:17Z</time>
      </trkpt>
      <trkpt lat="43.41687" lon="6.50986">
        <ele>262.5</ele>
        <time>2013-11-24T11:04:25Z</time>
      </trkpt>
      <trkpt lat="43.41695" lon="6.50986">
        <ele>262.1</ele>
        <time>2013-11-24T11:04:33Z</time>
      </trkpt>
      <trkpt lat="43.41703" lon="6.50987">
        <ele>261.8</ele>
        <time>2013-11-24T11:04:39Z</time>
      </trkpt>
      <trkpt lat="43.41712" lon="6.50983">
        <ele>262.2</ele>
        <time>2013-11-24T11:04:47Z</time>
      </trkpt>
      <trkpt lat="43.41713" lon="6.50983">
        <ele>262.2</ele>
        <time>2013-11-24T11:04:48Z</time>
      </trkpt>
      <trkpt lat="43.41728" lon="6.50976">
        <ele>261.7</ele>
        <time>2013-11-24T11:05:03Z</time>
      </trkpt>
      <trkpt lat="43.41736" lon="6.50972">
        <ele>262</ele>
        <time>2013-11-24T11:05:09Z</time>
      </trkpt>
      <trkpt lat="43.41741" lon="6.50962">
        <ele>262.4</ele>
        <time>2013-11-24T11:05:17Z</time>
      </trkpt>
      <trkpt lat="43.41748" lon="6.50956">
        <ele>261.7</ele>
        <time>2013-11-24T11:05:23Z</time>
      </trkpt>
      <trkpt lat="43.41755" lon="6.5095">
        <ele>262</ele>
        <time>2013-11-24T11:05:30Z</time>
      </trkpt>
      <trkpt lat="43.41762" lon="6.50946">
        <ele>262</ele>
        <time>2013-11-24T11:05:36Z</time>
      </trkpt>
      <trkpt lat="43.4177" lon="6.50941">
        <ele>261.9</ele>
        <time>2013-11-24T11:05:43Z</time>
      </trkpt>
      <trkpt lat="43.41778" lon="6.50937">
        <ele>261.3</ele>
        <time>2013-11-24T11:05:52Z</time>
      </trkpt>
      <trkpt lat="43.41779" lon="6.50937">
        <ele>261.5</ele>
        <time>2013-11-24T11:05:53Z</time>
      </trkpt>
      <trkpt lat="43.41789" lon="6.5092">
        <ele>261.6</ele>
        <time>2013-11-24T11:06:05Z</time>
      </trkpt>
      <trkpt lat="43.41794" lon="6.50911">
        <ele>261.3</ele>
        <time>2013-11-24T11:06:11Z</time>
      </trkpt>
      <trkpt lat="43.41797" lon="6.509">
        <ele>260.4</ele>
        <time>2013-11-24T11:06:19Z</time>
      </trkpt>
      <trkpt lat="43.41796" lon="6.50888">
        <ele>260.1</ele>
        <time>2013-11-24T11:06:29Z</time>
      </trkpt>
      <trkpt lat="43.41797" lon="6.50876">
        <ele>260.4</ele>
        <time>2013-11-24T11:06:55Z</time>
      </trkpt>
      <trkpt lat="43.41797" lon="6.50874">
        <ele>260.6</ele>
        <time>2013-11-24T11:06:56Z</time>
      </trkpt>
      <trkpt lat="43.41793" lon="6.50853">
        <ele>261.3</ele>
        <time>2013-11-24T11:07:09Z</time>
      </trkpt>
      <trkpt lat="43.41792" lon="6.50842">
        <ele>261.6</ele>
        <time>2013-11-24T11:07:16Z</time>
      </trkpt>
      <trkpt lat="43.4179" lon="6.5083">
        <ele>261.5</ele>
        <time>2013-11-24T11:07:23Z</time>
      </trkpt>
      <trkpt lat="43.41788" lon="6.50818">
        <ele>261.8</ele>
        <time>2013-11-24T11:07:32Z</time>
      </trkpt>
      <trkpt lat="43.41786" lon="6.50808">
        <ele>263</ele>
        <time>2013-11-24T11:07:41Z</time>
      </trkpt>
      <trkpt lat="43.41783" lon="6.50797">
        <ele>262.7</ele>
        <time>2013-11-24T11:07:49Z</time>
      </trkpt>
      <trkpt lat="43.41779" lon="6.50787">
        <ele>262.2</ele>
        <time>2013-11-24T11:08:11Z</time>
      </trkpt>
      <trkpt lat="43.41779" lon="6.50784">
        <ele>262.2</ele>
        <time>2013-11-24T11:08:12Z</time>
      </trkpt>
      <trkpt lat="43.41777" lon="6.50766">
        <ele>262.3</ele>
        <time>2013-11-24T11:08:22Z</time>
      </trkpt>
      <trkpt lat="43.41773" lon="6.50755">
        <ele>261.6</ele>
        <time>2013-11-24T11:08:28Z</time>
      </trkpt>
      <trkpt lat="43.41767" lon="6.50748">
        <ele>261.5</ele>
        <time>2013-11-24T11:08:34Z</time>
      </trkpt>
      <trkpt lat="43.4176" lon="6.50741">
        <ele>261.6</ele>
        <time>2013-11-24T11:08:42Z</time>
      </trkpt>
      <trkpt lat="43.41753" lon="6.50735">
        <ele>261.1</ele>
        <time>2013-11-24T11:08:49Z</time>
      </trkpt>
      <trkpt lat="43.41746" lon="6.5073">
        <ele>261.2</ele>
        <time>2013-11-24T11:08:56Z</time>
      </trkpt>
      <trkpt lat="43.41739" lon="6.50724">
        <ele>261.3</ele>
        <time>2013-11-24T11:09:03Z</time>
      </trkpt>
      <trkpt lat="43.41732" lon="6.5072">
        <ele>261.6</ele>
        <time>2013-11-24T11:09:09Z</time>
      </trkpt>
      <trkpt lat="43.41724" lon="6.50715">
        <ele>262</ele>
        <time>2013-11-24T11:09:16Z</time>
      </trkpt>
      <trkpt lat="43.41723" lon="6.50714">
        <ele>261.9</ele>
        <time>2013-11-24T11:09:17Z</time>
      </trkpt>
      <trkpt lat="43.4171" lon="6.507">
        <ele>261.6</ele>
        <time>2013-11-24T11:09:31Z</time>
      </trkpt>
      <trkpt lat="43.41705" lon="6.50692">
        <ele>260.9</ele>
        <time>2013-11-24T11:09:36Z</time>
      </trkpt>
      <trkpt lat="43.41702" lon="6.5068">
        <ele>260.4</ele>
        <time>2013-11-24T11:09:43Z</time>
      </trkpt>
      <trkpt lat="43.41695" lon="6.50673">
        <ele>261.4</ele>
        <time>2013-11-24T11:09:54Z</time>
      </trkpt>
      <trkpt lat="43.41689" lon="6.50665">
        <ele>265</ele>
        <time>2013-11-24T11:10:23Z</time>
      </trkpt>
      <trkpt lat="43.41689" lon="6.50663">
        <ele>265.2</ele>
        <time>2013-11-24T11:10:24Z</time>
      </trkpt>
      <trkpt lat="43.41674" lon="6.50656">
        <ele>268.6</ele>
        <time>2013-11-24T11:10:55Z</time>
      </trkpt>
      <trkpt lat="43.41665" lon="6.50653">
        <ele>269.3</ele>
        <time>2013-11-24T11:11:06Z</time>
      </trkpt>
      <trkpt lat="43.41657" lon="6.50654">
        <ele>270.9</ele>
        <time>2013-11-24T11:11:20Z</time>
      </trkpt>
      <trkpt lat="43.4165" lon="6.50662">
        <ele>273</ele>
        <time>2013-11-24T11:11:42Z</time>
      </trkpt>
      <trkpt lat="43.41649" lon="6.50662">
        <ele>272.9</ele>
        <time>2013-11-24T11:11:43Z</time>
      </trkpt>
      <trkpt lat="43.41634" lon="6.5067">
        <ele>277</ele>
        <time>2013-11-24T11:12:43Z</time>
      </trkpt>
      <trkpt lat="43.41633" lon="6.50671">
        <ele>277.3</ele>
        <time>2013-11-24T11:12:44Z</time>
      </trkpt>
      <trkpt lat="43.41619" lon="6.50684">
        <ele>281.4</ele>
        <time>2013-11-24T11:13:42Z</time>
      </trkpt>
      <trkpt lat="43.41612" lon="6.50691">
        <ele>281.7</ele>
        <time>2013-11-24T11:14:07Z</time>
      </trkpt>
      <trkpt lat="43.41612" lon="6.50692">
        <ele>281.9</ele>
        <time>2013-11-24T11:14:08Z</time>
      </trkpt>
      <trkpt lat="43.41597" lon="6.50702">
        <ele>284</ele>
        <time>2013-11-24T11:14:32Z</time>
      </trkpt>
      <trkpt lat="43.41589" lon="6.50708">
        <ele>285.2</ele>
        <time>2013-11-24T11:14:45Z</time>
      </trkpt>
      <trkpt lat="43.41583" lon="6.50716">
        <ele>286.9</ele>
        <time>2013-11-24T11:15:05Z</time>
      </trkpt>
      <trkpt lat="43.41576" lon="6.50723">
        <ele>289.1</ele>
        <time>2013-11-24T11:15:18Z</time>
      </trkpt>
      <trkpt lat="43.41575" lon="6.50723">
        <ele>289</ele>
        <time>2013-11-24T11:15:19Z</time>
      </trkpt>
      <trkpt lat="43.4156" lon="6.50734">
        <ele>291.1</ele>
        <time>2013-11-24T11:15:44Z</time>
      </trkpt>
      <trkpt lat="43.41554" lon="6.50742">
        <ele>292.5</ele>
        <time>2013-11-24T11:16:01Z</time>
      </trkpt>
      <trkpt lat="43.41546" lon="6.50749">
        <ele>293.6</ele>
        <time>2013-11-24T11:16:11Z</time>
      </trkpt>
      <trkpt lat="43.4154" lon="6.50757">
        <ele>294</ele>
        <time>2013-11-24T11:16:22Z</time>
      </trkpt>
      <trkpt lat="43.41539" lon="6.50758">
        <ele>294.2</ele>
        <time>2013-11-24T11:16:23Z</time>
      </trkpt>
      <trkpt lat="43.41539" lon="6.5078">
        <ele>295.2</ele>
        <time>2013-11-24T11:16:50Z</time>
      </trkpt>
      <trkpt lat="43.41545" lon="6.50772">
        <ele>294.6</ele>
        <time>2013-11-24T11:42:25Z</time>
      </trkpt>
      <trkpt lat="43.41545" lon="6.50771">
        <ele>294.4</ele>
        <time>2013-11-24T11:42:26Z</time>
      </trkpt>
      <trkpt lat="43.4154" lon="6.50794">
        <ele>294.6</ele>
        <time>2013-11-24T11:45:35Z</time>
      </trkpt>
      <trkpt lat="43.4154" lon="6.50795">
        <ele>294.6</ele>
        <time>2013-11-24T11:45:36Z</time>
      </trkpt>
      <trkpt lat="43.41543" lon="6.50783">
        <ele>294.8</ele>
        <time>2013-11-24T11:49:38Z</time>
      </trkpt>
      <trkpt lat="43.41536" lon="6.50774">
        <ele>295.3</ele>
        <time>2013-11-24T11:59:58Z</time>
      </trkpt>
      <trkpt lat="43.41549" lon="6.50756">
        <ele>294</ele>
        <time>2013-11-24T12:02:09Z</time>
      </trkpt>
      <trkpt lat="43.41549" lon="6.50756">
        <ele>294</ele>
        <time>2013-11-24T12:02:10Z</time>
      </trkpt>
      <trkpt lat="43.41563" lon="6.50741">
        <ele>291.2</ele>
        <time>2013-11-24T12:02:50Z</time>
      </trkpt>
      <trkpt lat="43.4157" lon="6.50736">
        <ele>290.3</ele>
        <time>2013-11-24T12:03:44Z</time>
      </trkpt>
      <trkpt lat="43.41571" lon="6.50734">
        <ele>290.1</ele>
        <time>2013-11-24T12:03:45Z</time>
      </trkpt>
      <trkpt lat="43.41583" lon="6.5072">
        <ele>287.8</ele>
        <time>2013-11-24T12:04:26Z</time>
      </trkpt>
      <trkpt lat="43.4159" lon="6.50713">
        <ele>286.2</ele>
        <time>2013-11-24T12:04:40Z</time>
      </trkpt>
      <trkpt lat="43.41597" lon="6.50707">
        <ele>284.1</ele>
        <time>2013-11-24T12:04:53Z</time>
      </trkpt>
      <trkpt lat="43.41598" lon="6.50706">
        <ele>284</ele>
        <time>2013-11-24T12:04:54Z</time>
      </trkpt>
      <trkpt lat="43.41612" lon="6.50695">
        <ele>281.1</ele>
        <time>2013-11-24T12:05:13Z</time>
      </trkpt>
      <trkpt lat="43.41619" lon="6.50688">
        <ele>281.2</ele>
        <time>2013-11-24T12:05:21Z</time>
      </trkpt>
      <trkpt lat="43.41626" lon="6.50681">
        <ele>279.6</ele>
        <time>2013-11-24T12:05:36Z</time>
      </trkpt>
      <trkpt lat="43.41633" lon="6.50673">
        <ele>277.7</ele>
        <time>2013-11-24T12:05:58Z</time>
      </trkpt>
      <trkpt lat="43.41634" lon="6.50672">
        <ele>277.7</ele>
        <time>2013-11-24T12:05:59Z</time>
      </trkpt>
      <trkpt lat="43.41648" lon="6.50662">
        <ele>273.3</ele>
        <time>2013-11-24T12:06:16Z</time>
      </trkpt>
      <trkpt lat="43.41655" lon="6.50657">
        <ele>271.1</ele>
        <time>2013-11-24T12:06:25Z</time>
      </trkpt>
      <trkpt lat="43.41662" lon="6.5065">
        <ele>271.4</ele>
        <time>2013-11-24T12:06:31Z</time>
      </trkpt>
      <trkpt lat="43.41669" lon="6.50644">
        <ele>269.7</ele>
        <time>2013-11-24T12:06:40Z</time>
      </trkpt>
      <trkpt lat="43.41676" lon="6.50637">
        <ele>267.5</ele>
        <time>2013-11-24T12:06:50Z</time>
      </trkpt>
      <trkpt lat="43.41684" lon="6.50631">
        <ele>266.4</ele>
        <time>2013-11-24T12:07:01Z</time>
      </trkpt>
      <trkpt lat="43.41685" lon="6.50631">
        <ele>266</ele>
        <time>2013-11-24T12:07:02Z</time>
      </trkpt>
      <trkpt lat="43.41699" lon="6.5062">
        <ele>264.1</ele>
        <time>2013-11-24T12:07:15Z</time>
      </trkpt>
      <trkpt lat="43.41705" lon="6.50614">
        <ele>263.6</ele>
        <time>2013-11-24T12:07:23Z</time>
      </trkpt>
      <trkpt lat="43.41712" lon="6.50607">
        <ele>262.3</ele>
        <time>2013-11-24T12:07:32Z</time>
      </trkpt>
      <trkpt lat="43.4172" lon="6.50602">
        <ele>261.6</ele>
        <time>2013-11-24T12:07:40Z</time>
      </trkpt>
      <trkpt lat="43.41727" lon="6.50596">
        <ele>260.9</ele>
        <time>2013-11-24T12:07:48Z</time>
      </trkpt>
      <trkpt lat="43.41735" lon="6.50591">
        <ele>260.6</ele>
        <time>2013-11-24T12:08:10Z</time>
      </trkpt>
      <trkpt lat="43.41736" lon="6.5059">
        <ele>260.8</ele>
        <time>2013-11-24T12:08:11Z</time>
      </trkpt>
      <trkpt lat="43.41744" lon="6.50572">
        <ele>260.6</ele>
        <time>2013-11-24T12:08:29Z</time>
      </trkpt>
      <trkpt lat="43.41746" lon="6.5056">
        <ele>260.1</ele>
        <time>2013-11-24T12:08:38Z</time>
      </trkpt>
      <trkpt lat="43.41746" lon="6.50549">
        <ele>259.9</ele>
        <time>2013-11-24T12:08:45Z</time>
      </trkpt>
      <trkpt lat="43.41745" lon="6.50537">
        <ele>258.8</ele>
        <time>2013-11-24T12:08:53Z</time>
      </trkpt>
      <trkpt lat="43.41744" lon="6.50525">
        <ele>259</ele>
        <time>2013-11-24T12:09:00Z</time>
      </trkpt>
      <trkpt lat="43.41746" lon="6.50515">
        <ele>258.6</ele>
        <time>2013-11-24T12:09:07Z</time>
      </trkpt>
      <trkpt lat="43.41746" lon="6.50504">
        <ele>258.8</ele>
        <time>2013-11-24T12:09:14Z</time>
      </trkpt>
      <trkpt lat="43.41746" lon="6.50502">
        <ele>258.8</ele>
        <time>2013-11-24T12:09:15Z</time>
      </trkpt>
      <trkpt lat="43.4175" lon="6.5048">
        <ele>258.5</ele>
        <time>2013-11-24T12:09:29Z</time>
      </trkpt>
      <trkpt lat="43.41754" lon="6.50469">
        <ele>259.7</ele>
        <time>2013-11-24T12:09:39Z</time>
      </trkpt>
      <trkpt lat="43.41751" lon="6.50459">
        <ele>258.9</ele>
        <time>2013-11-24T12:09:56Z</time>
      </trkpt>
      <trkpt lat="43.41748" lon="6.50447">
        <ele>259</ele>
        <time>2013-11-24T12:10:05Z</time>
      </trkpt>
      <trkpt lat="43.41746" lon="6.50437">
        <ele>259.7</ele>
        <time>2013-11-24T12:10:15Z</time>
      </trkpt>
      <trkpt lat="43.41745" lon="6.50435">
        <ele>259.5</ele>
        <time>2013-11-24T12:10:16Z</time>
      </trkpt>
      <trkpt lat="43.41739" lon="6.50415">
        <ele>260.4</ele>
        <time>2013-11-24T12:10:30Z</time>
      </trkpt>
      <trkpt lat="43.41732" lon="6.50407">
        <ele>257.5</ele>
        <time>2013-11-24T12:10:42Z</time>
      </trkpt>
      <trkpt lat="43.41727" lon="6.50397">
        <ele>256.1</ele>
        <time>2013-11-24T12:10:52Z</time>
      </trkpt>
      <trkpt lat="43.41721" lon="6.50388">
        <ele>253.2</ele>
        <time>2013-11-24T12:11:05Z</time>
      </trkpt>
      <trkpt lat="43.41716" lon="6.50379">
        <ele>250.6</ele>
        <time>2013-11-24T12:11:17Z</time>
      </trkpt>
      <trkpt lat="43.41716" lon="6.50379">
        <ele>250.5</ele>
        <time>2013-11-24T12:11:18Z</time>
      </trkpt>
      <trkpt lat="43.41707" lon="6.50359">
        <ele>245.3</ele>
        <time>2013-11-24T12:11:42Z</time>
      </trkpt>
      <trkpt lat="43.41702" lon="6.50349">
        <ele>242.5</ele>
        <time>2013-11-24T12:11:53Z</time>
      </trkpt>
      <trkpt lat="43.41699" lon="6.50338">
        <ele>240.5</ele>
        <time>2013-11-24T12:12:05Z</time>
      </trkpt>
      <trkpt lat="43.41695" lon="6.50327">
        <ele>238.8</ele>
        <time>2013-11-24T12:12:16Z</time>
      </trkpt>
      <trkpt lat="43.41691" lon="6.50317">
        <ele>238.4</ele>
        <time>2013-11-24T12:12:24Z</time>
      </trkpt>
      <trkpt lat="43.4169" lon="6.50316">
        <ele>238.1</ele>
        <time>2013-11-24T12:12:25Z</time>
      </trkpt>
      <trkpt lat="43.41683" lon="6.50298">
        <ele>236.9</ele>
        <time>2013-11-24T12:12:41Z</time>
      </trkpt>
      <trkpt lat="43.41678" lon="6.50289">
        <ele>236.1</ele>
        <time>2013-11-24T12:12:49Z</time>
      </trkpt>
      <trkpt lat="43.41672" lon="6.50282">
        <ele>235.1</ele>
        <time>2013-11-24T12:12:57Z</time>
      </trkpt>
      <trkpt lat="43.41668" lon="6.50271">
        <ele>233.8</ele>
        <time>2013-11-24T12:13:06Z</time>
      </trkpt>
      <trkpt lat="43.41664" lon="6.50262">
        <ele>232.4</ele>
        <time>2013-11-24T12:13:14Z</time>
      </trkpt>
      <trkpt lat="43.41661" lon="6.5025">
        <ele>231.5</ele>
        <time>2013-11-24T12:13:23Z</time>
      </trkpt>
      <trkpt lat="43.41659" lon="6.50238">
        <ele>230.9</ele>
        <time>2013-11-24T12:13:32Z</time>
      </trkpt>
      <trkpt lat="43.41659" lon="6.50237">
        <ele>230.8</ele>
        <time>2013-11-24T12:13:33Z</time>
      </trkpt>
      <trkpt lat="43.41651" lon="6.50219">
        <ele>229.3</ele>
        <time>2013-11-24T12:13:50Z</time>
      </trkpt>
      <trkpt lat="43.41647" lon="6.5021">
        <ele>227.4</ele>
        <time>2013-11-24T12:14:00Z</time>
      </trkpt>
      <trkpt lat="43.41643" lon="6.50199">
        <ele>225.3</ele>
        <time>2013-11-24T12:14:10Z</time>
      </trkpt>
      <trkpt lat="43.41639" lon="6.50189">
        <ele>223.3</ele>
        <time>2013-11-24T12:14:19Z</time>
      </trkpt>
      <trkpt lat="43.41636" lon="6.50179">
        <ele>222.1</ele>
        <time>2013-11-24T12:14:28Z</time>
      </trkpt>
      <trkpt lat="43.41632" lon="6.50167">
        <ele>220.7</ele>
        <time>2013-11-24T12:14:38Z</time>
      </trkpt>
      <trkpt lat="43.41632" lon="6.50166">
        <ele>220.4</ele>
        <time>2013-11-24T12:14:39Z</time>
      </trkpt>
      <trkpt lat="43.41626" lon="6.50145">
        <ele>216.5</ele>
        <time>2013-11-24T12:14:59Z</time>
      </trkpt>
      <trkpt lat="43.41623" lon="6.50135">
        <ele>214.7</ele>
        <time>2013-11-24T12:15:09Z</time>
      </trkpt>
      <trkpt lat="43.41619" lon="6.50124">
        <ele>212.7</ele>
        <time>2013-11-24T12:15:21Z</time>
      </trkpt>
      <trkpt lat="43.41616" lon="6.50112">
        <ele>211.2</ele>
        <time>2013-11-24T12:15:36Z</time>
      </trkpt>
      <trkpt lat="43.41612" lon="6.50101">
        <ele>209</ele>
        <time>2013-11-24T12:15:55Z</time>
      </trkpt>
      <trkpt lat="43.41612" lon="6.50101">
        <ele>208.8</ele>
        <time>2013-11-24T12:15:56Z</time>
      </trkpt>
      <trkpt lat="43.41605" lon="6.50079">
        <ele>206.5</ele>
        <time>2013-11-24T12:16:16Z</time>
      </trkpt>
      <trkpt lat="43.41606" lon="6.50067">
        <ele>205.3</ele>
        <time>2013-11-24T12:16:26Z</time>
      </trkpt>
      <trkpt lat="43.41604" lon="6.50056">
        <ele>203.6</ele>
        <time>2013-11-24T12:16:36Z</time>
      </trkpt>
      <trkpt lat="43.41599" lon="6.50046">
        <ele>201.8</ele>
        <time>2013-11-24T12:16:46Z</time>
      </trkpt>
      <trkpt lat="43.41596" lon="6.50035">
        <ele>200</ele>
        <time>2013-11-24T12:16:56Z</time>
      </trkpt>
      <trkpt lat="43.41596" lon="6.50034">
        <ele>200</ele>
        <time>2013-11-24T12:16:57Z</time>
      </trkpt>
      <trkpt lat="43.41587" lon="6.50015">
        <ele>197.6</ele>
        <time>2013-11-24T12:17:16Z</time>
      </trkpt>
      <trkpt lat="43.41583" lon="6.50004">
        <ele>195.4</ele>
        <time>2013-11-24T12:17:29Z</time>
      </trkpt>
      <trkpt lat="43.4158" lon="6.49992">
        <ele>192.7</ele>
        <time>2013-11-24T12:17:44Z</time>
      </trkpt>
      <trkpt lat="43.41578" lon="6.49981">
        <ele>190.2</ele>
        <time>2013-11-24T12:17:57Z</time>
      </trkpt>
      <trkpt lat="43.41578" lon="6.4998">
        <ele>190.1</ele>
        <time>2013-11-24T12:17:58Z</time>
      </trkpt>
      <trkpt lat="43.41571" lon="6.49959">
        <ele>185.8</ele>
        <time>2013-11-24T12:18:24Z</time>
      </trkpt>
      <trkpt lat="43.41567" lon="6.49947">
        <ele>183.2</ele>
        <time>2013-11-24T12:18:37Z</time>
      </trkpt>
      <trkpt lat="43.41565" lon="6.49936">
        <ele>180.6</ele>
        <time>2013-11-24T12:18:50Z</time>
      </trkpt>
      <trkpt lat="43.41567" lon="6.49924">
        <ele>177.9</ele>
        <time>2013-11-24T12:19:08Z</time>
      </trkpt>
      <trkpt lat="43.41567" lon="6.49923">
        <ele>177.7</ele>
        <time>2013-11-24T12:19:09Z</time>
      </trkpt>
      <trkpt lat="43.4156" lon="6.49902">
        <ele>173.8</ele>
        <time>2013-11-24T12:19:34Z</time>
      </trkpt>
      <trkpt lat="43.41554" lon="6.49893">
        <ele>171.2</ele>
        <time>2013-11-24T12:19:49Z</time>
      </trkpt>
      <trkpt lat="43.41548" lon="6.49885">
        <ele>170.7</ele>
        <time>2013-11-24T12:20:01Z</time>
      </trkpt>
      <trkpt lat="43.41543" lon="6.49876">
        <ele>168.8</ele>
        <time>2013-11-24T12:20:15Z</time>
      </trkpt>
      <trkpt lat="43.41542" lon="6.49875">
        <ele>168.8</ele>
        <time>2013-11-24T12:20:16Z</time>
      </trkpt>
      <trkpt lat="43.41541" lon="6.49851">
        <ele>162.1</ele>
        <time>2013-11-24T12:21:05Z</time>
      </trkpt>
      <trkpt lat="43.41542" lon="6.4984">
        <ele>159.2</ele>
        <time>2013-11-24T12:21:21Z</time>
      </trkpt>
      <trkpt lat="43.41543" lon="6.49839">
        <ele>159.1</ele>
        <time>2013-11-24T12:21:22Z</time>
      </trkpt>
      <trkpt lat="43.41538" lon="6.49817">
        <ele>154</ele>
        <time>2013-11-24T12:21:52Z</time>
      </trkpt>
      <trkpt lat="43.41536" lon="6.49805">
        <ele>152.7</ele>
        <time>2013-11-24T12:22:38Z</time>
      </trkpt>
      <trkpt lat="43.41536" lon="6.49805">
        <ele>152.8</ele>
        <time>2013-11-24T12:22:39Z</time>
      </trkpt>
      <trkpt lat="43.41533" lon="6.49792">
        <ele>148.6</ele>
        <time>2013-11-24T12:25:00Z</time>
      </trkpt>
      <trkpt lat="43.4154" lon="6.49781">
        <ele>145.5</ele>
        <time>2013-11-24T12:26:21Z</time>
      </trkpt>
      <trkpt lat="43.4154" lon="6.49781">
        <ele>145.3</ele>
        <time>2013-11-24T12:26:22Z</time>
      </trkpt>
      <trkpt lat="43.41533" lon="6.49789">
        <ele>146.3</ele>
        <time>2013-11-24T12:27:34Z</time>
      </trkpt>
      <trkpt lat="43.41537" lon="6.49813">
        <ele>152.6</ele>
        <time>2013-11-24T12:28:32Z</time>
      </trkpt>
      <trkpt lat="43.41539" lon="6.49824">
        <ele>156.2</ele>
        <time>2013-11-24T12:29:13Z</time>
      </trkpt>
      <trkpt lat="43.41539" lon="6.49825">
        <ele>156.4</ele>
        <time>2013-11-24T12:29:14Z</time>
      </trkpt>
      <trkpt lat="43.41539" lon="6.49847">
        <ele>160.3</ele>
        <time>2013-11-24T12:30:09Z</time>
      </trkpt>
      <trkpt lat="43.4154" lon="6.49859">
        <ele>163.8</ele>
        <time>2013-11-24T12:30:37Z</time>
      </trkpt>
      <trkpt lat="43.4154" lon="6.4986">
        <ele>164.1</ele>
        <time>2013-11-24T12:30:38Z</time>
      </trkpt>
      <trkpt lat="43.41543" lon="6.49883">
        <ele>167.7</ele>
        <time>2013-11-24T12:31:27Z</time>
      </trkpt>
      <trkpt lat="43.41549" lon="6.49892">
        <ele>169.6</ele>
        <time>2013-11-24T12:31:44Z</time>
      </trkpt>
      <trkpt lat="43.4155" lon="6.49893">
        <ele>169.8</ele>
        <time>2013-11-24T12:31:45Z</time>
      </trkpt>
      <trkpt lat="43.41561" lon="6.49909">
        <ele>173.6</ele>
        <time>2013-11-24T12:32:19Z</time>
      </trkpt>
      <trkpt lat="43.41565" lon="6.4992">
        <ele>176.7</ele>
        <time>2013-11-24T12:32:43Z</time>
      </trkpt>
      <trkpt lat="43.41562" lon="6.49931">
        <ele>179.3</ele>
        <time>2013-11-24T12:33:02Z</time>
      </trkpt>
      <trkpt lat="43.41562" lon="6.49932">
        <ele>179.5</ele>
        <time>2013-11-24T12:33:03Z</time>
      </trkpt>
      <trkpt lat="43.41567" lon="6.49954">
        <ele>182.6</ele>
        <time>2013-11-24T12:33:32Z</time>
      </trkpt>
      <trkpt lat="43.41571" lon="6.49964">
        <ele>184.9</ele>
        <time>2013-11-24T12:33:51Z</time>
      </trkpt>
      <trkpt lat="43.41574" lon="6.49975">
        <ele>187.6</ele>
        <time>2013-11-24T12:34:09Z</time>
      </trkpt>
      <trkpt lat="43.41575" lon="6.49976">
        <ele>187.7</ele>
        <time>2013-11-24T12:34:10Z</time>
      </trkpt>
      <trkpt lat="43.41578" lon="6.49999">
        <ele>193.6</ele>
        <time>2013-11-24T12:34:54Z</time>
      </trkpt>
      <trkpt lat="43.4158" lon="6.50011">
        <ele>196.7</ele>
        <time>2013-11-24T12:35:17Z</time>
      </trkpt>
      <trkpt lat="43.4158" lon="6.50011">
        <ele>197.1</ele>
        <time>2013-11-24T12:35:18Z</time>
      </trkpt>
      <trkpt lat="43.41597" lon="6.50017">
        <ele>196.7</ele>
        <time>2013-11-24T12:36:07Z</time>
      </trkpt>
      <trkpt lat="43.41604" lon="6.50023">
        <ele>196.7</ele>
        <time>2013-11-24T12:36:16Z</time>
      </trkpt>
      <trkpt lat="43.4161" lon="6.50031">
        <ele>196.2</ele>
        <time>2013-11-24T12:36:24Z</time>
      </trkpt>
      <trkpt lat="43.4161" lon="6.50032">
        <ele>196.1</ele>
        <time>2013-11-24T12:36:25Z</time>
      </trkpt>
      <trkpt lat="43.41624" lon="6.50045">
        <ele>196.7</ele>
        <time>2013-11-24T12:36:41Z</time>
      </trkpt>
      <trkpt lat="43.4163" lon="6.50053">
        <ele>196.2</ele>
        <time>2013-11-24T12:36:48Z</time>
      </trkpt>
      <trkpt lat="43.41637" lon="6.50059">
        <ele>196.4</ele>
        <time>2013-11-24T12:36:57Z</time>
      </trkpt>
      <trkpt lat="43.41644" lon="6.50064">
        <ele>196.7</ele>
        <time>2013-11-24T12:37:05Z</time>
      </trkpt>
      <trkpt lat="43.41653" lon="6.50068">
        <ele>196.6</ele>
        <time>2013-11-24T12:37:14Z</time>
      </trkpt>
      <trkpt lat="43.41661" lon="6.50074">
        <ele>196.5</ele>
        <time>2013-11-24T12:37:25Z</time>
      </trkpt>
      <trkpt lat="43.41661" lon="6.50074">
        <ele>196.6</ele>
        <time>2013-11-24T12:37:26Z</time>
      </trkpt>
      <trkpt lat="43.41676" lon="6.50084">
        <ele>196.8</ele>
        <time>2013-11-24T12:37:44Z</time>
      </trkpt>
      <trkpt lat="43.41684" lon="6.5009">
        <ele>196.8</ele>
        <time>2013-11-24T12:37:53Z</time>
      </trkpt>
      <trkpt lat="43.4169" lon="6.50099">
        <ele>196.5</ele>
        <time>2013-11-24T12:38:04Z</time>
      </trkpt>
      <trkpt lat="43.41695" lon="6.50108">
        <ele>197.1</ele>
        <time>2013-11-24T12:38:13Z</time>
      </trkpt>
      <trkpt lat="43.41701" lon="6.50116">
        <ele>196.8</ele>
        <time>2013-11-24T12:38:21Z</time>
      </trkpt>
      <trkpt lat="43.41704" lon="6.50127">
        <ele>197.4</ele>
        <time>2013-11-24T12:38:35Z</time>
      </trkpt>
      <trkpt lat="43.41704" lon="6.50129">
        <ele>197.3</ele>
        <time>2013-11-24T12:38:36Z</time>
      </trkpt>
      <trkpt lat="43.4171" lon="6.50149">
        <ele>196.3</ele>
        <time>2013-11-24T12:38:52Z</time>
      </trkpt>
      <trkpt lat="43.41714" lon="6.5016">
        <ele>196.5</ele>
        <time>2013-11-24T12:39:00Z</time>
      </trkpt>
      <trkpt lat="43.41719" lon="6.5017">
        <ele>196.7</ele>
        <time>2013-11-24T12:39:08Z</time>
      </trkpt>
      <trkpt lat="43.41725" lon="6.50178">
        <ele>196.7</ele>
        <time>2013-11-24T12:39:15Z</time>
      </trkpt>
      <trkpt lat="43.41731" lon="6.50185">
        <ele>196.6</ele>
        <time>2013-11-24T12:39:22Z</time>
      </trkpt>
      <trkpt lat="43.41739" lon="6.50189">
        <ele>195.8</ele>
        <time>2013-11-24T12:39:29Z</time>
      </trkpt>
      <trkpt lat="43.41748" lon="6.50189">
        <ele>196.2</ele>
        <time>2013-11-24T12:39:37Z</time>
      </trkpt>
      <trkpt lat="43.41748" lon="6.5019">
        <ele>196.2</ele>
        <time>2013-11-24T12:39:38Z</time>
      </trkpt>
      <trkpt lat="43.4176" lon="6.50203">
        <ele>196.3</ele>
        <time>2013-11-24T12:39:49Z</time>
      </trkpt>
      <trkpt lat="43.41766" lon="6.5021">
        <ele>196</ele>
        <time>2013-11-24T12:39:55Z</time>
      </trkpt>
      <trkpt lat="43.41775" lon="6.50212">
        <ele>196.1</ele>
        <time>2013-11-24T12:40:03Z</time>
      </trkpt>
      <trkpt lat="43.41783" lon="6.50211">
        <ele>195.7</ele>
        <time>2013-11-24T12:40:11Z</time>
      </trkpt>
      <trkpt lat="43.41792" lon="6.50211">
        <ele>195.7</ele>
        <time>2013-11-24T12:40:19Z</time>
      </trkpt>
      <trkpt lat="43.418" lon="6.50215">
        <ele>195.8</ele>
        <time>2013-11-24T12:40:26Z</time>
      </trkpt>
      <trkpt lat="43.41807" lon="6.50222">
        <ele>196.6</ele>
        <time>2013-11-24T12:40:35Z</time>
      </trkpt>
      <trkpt lat="43.41815" lon="6.50225">
        <ele>196</ele>
        <time>2013-11-24T12:40:42Z</time>
      </trkpt>
      <trkpt lat="43.41817" lon="6.50226">
        <ele>195.7</ele>
        <time>2013-11-24T12:40:43Z</time>
      </trkpt>
      <trkpt lat="43.41827" lon="6.50243">
        <ele>196.3</ele>
        <time>2013-11-24T12:40:59Z</time>
      </trkpt>
      <trkpt lat="43.41835" lon="6.50246">
        <ele>196.8</ele>
        <time>2013-11-24T12:41:08Z</time>
      </trkpt>
      <trkpt lat="43.4184" lon="6.50254">
        <ele>197</ele>
        <time>2013-11-24T12:41:13Z</time>
      </trkpt>
      <trkpt lat="43.41849" lon="6.50255">
        <ele>196.9</ele>
        <time>2013-11-24T12:41:21Z</time>
      </trkpt>
      <trkpt lat="43.41856" lon="6.50249">
        <ele>197.1</ele>
        <time>2013-11-24T12:41:28Z</time>
      </trkpt>
      <trkpt lat="43.41865" lon="6.50245">
        <ele>197.1</ele>
        <time>2013-11-24T12:41:35Z</time>
      </trkpt>
      <trkpt lat="43.41872" lon="6.50245">
        <ele>196.4</ele>
        <time>2013-11-24T12:41:42Z</time>
      </trkpt>
      <trkpt lat="43.41881" lon="6.50244">
        <ele>196.3</ele>
        <time>2013-11-24T12:41:50Z</time>
      </trkpt>
      <trkpt lat="43.41882" lon="6.50245">
        <ele>196.3</ele>
        <time>2013-11-24T12:41:51Z</time>
      </trkpt>
      <trkpt lat="43.41894" lon="6.50258">
        <ele>196.8</ele>
        <time>2013-11-24T12:42:05Z</time>
      </trkpt>
      <trkpt lat="43.41898" lon="6.50269">
        <ele>196.6</ele>
        <time>2013-11-24T12:42:14Z</time>
      </trkpt>
      <trkpt lat="43.41897" lon="6.50281">
        <ele>196.2</ele>
        <time>2013-11-24T12:42:22Z</time>
      </trkpt>
      <trkpt lat="43.41898" lon="6.50293">
        <ele>196</ele>
        <time>2013-11-24T12:42:29Z</time>
      </trkpt>
      <trkpt lat="43.41905" lon="6.50299">
        <ele>195.5</ele>
        <time>2013-11-24T12:42:42Z</time>
      </trkpt>
      <trkpt lat="43.41913" lon="6.50298">
        <ele>195.6</ele>
        <time>2013-11-24T12:42:48Z</time>
      </trkpt>
      <trkpt lat="43.41921" lon="6.50299">
        <ele>194.9</ele>
        <time>2013-11-24T12:42:58Z</time>
      </trkpt>
      <trkpt lat="43.41923" lon="6.50299">
        <ele>194.9</ele>
        <time>2013-11-24T12:42:59Z</time>
      </trkpt>
      <trkpt lat="43.41936" lon="6.50309">
        <ele>194.4</ele>
        <time>2013-11-24T12:43:15Z</time>
      </trkpt>
      <trkpt lat="43.41944" lon="6.50314">
        <ele>194.1</ele>
        <time>2013-11-24T12:43:21Z</time>
      </trkpt>
      <trkpt lat="43.41952" lon="6.50318">
        <ele>194</ele>
        <time>2013-11-24T12:43:28Z</time>
      </trkpt>
      <trkpt lat="43.41957" lon="6.50326">
        <ele>193.4</ele>
        <time>2013-11-24T12:43:33Z</time>
      </trkpt>
      <trkpt lat="43.41963" lon="6.50335">
        <ele>193.5</ele>
        <time>2013-11-24T12:43:43Z</time>
      </trkpt>
      <trkpt lat="43.41969" lon="6.50343">
        <ele>193</ele>
        <time>2013-11-24T12:43:52Z</time>
      </trkpt>
      <trkpt lat="43.41973" lon="6.50333">
        <ele>193.4</ele>
        <time>2013-11-24T12:44:08Z</time>
      </trkpt>
      <trkpt lat="43.41973" lon="6.50332">
        <ele>193.3</ele>
        <time>2013-11-24T12:44:09Z</time>
      </trkpt>
      <trkpt lat="43.41967" lon="6.5031">
        <ele>193.7</ele>
        <time>2013-11-24T12:44:26Z</time>
      </trkpt>
      <trkpt lat="43.41966" lon="6.503">
        <ele>194.3</ele>
        <time>2013-11-24T12:44:35Z</time>
      </trkpt>
      <trkpt lat="43.41965" lon="6.50288">
        <ele>194.8</ele>
        <time>2013-11-24T12:44:42Z</time>
      </trkpt>
      <trkpt lat="43.41961" lon="6.50277">
        <ele>194</ele>
        <time>2013-11-24T12:44:55Z</time>
      </trkpt>
      <trkpt lat="43.41959" lon="6.50266">
        <ele>194.1</ele>
        <time>2013-11-24T12:45:05Z</time>
      </trkpt>
      <trkpt lat="43.41956" lon="6.50255">
        <ele>194.1</ele>
        <time>2013-11-24T12:45:12Z</time>
      </trkpt>
      <trkpt lat="43.41955" lon="6.50254">
        <ele>194</ele>
        <time>2013-11-24T12:45:13Z</time>
      </trkpt>
      <trkpt lat="43.41956" lon="6.50232">
        <ele>194.1</ele>
        <time>2013-11-24T12:45:35Z</time>
      </trkpt>
      <trkpt lat="43.41956" lon="6.50221">
        <ele>193.9</ele>
        <time>2013-11-24T12:45:44Z</time>
      </trkpt>
      <trkpt lat="43.41957" lon="6.50209">
        <ele>194.5</ele>
        <time>2013-11-24T12:45:52Z</time>
      </trkpt>
      <trkpt lat="43.41954" lon="6.50198">
        <ele>194.1</ele>
        <time>2013-11-24T12:45:59Z</time>
      </trkpt>
      <trkpt lat="43.41951" lon="6.50188">
        <ele>193.9</ele>
        <time>2013-11-24T12:46:05Z</time>
      </trkpt>
      <trkpt lat="43.41949" lon="6.50177">
        <ele>192.9</ele>
        <time>2013-11-24T12:46:12Z</time>
      </trkpt>
      <trkpt lat="43.4195" lon="6.50166">
        <ele>193.5</ele>
        <time>2013-11-24T12:46:20Z</time>
      </trkpt>
      <trkpt lat="43.41951" lon="6.50165">
        <ele>193.3</ele>
        <time>2013-11-24T12:46:21Z</time>
      </trkpt>
      <trkpt lat="43.41955" lon="6.50143">
        <ele>193.4</ele>
        <time>2013-11-24T12:46:38Z</time>
      </trkpt>
      <trkpt lat="43.41959" lon="6.50133">
        <ele>193.5</ele>
        <time>2013-11-24T12:46:49Z</time>
      </trkpt>
      <trkpt lat="43.41959" lon="6.50122">
        <ele>193.5</ele>
        <time>2013-11-24T12:47:00Z</time>
      </trkpt>
      <trkpt lat="43.41959" lon="6.50109">
        <ele>193.6</ele>
        <time>2013-11-24T12:47:34Z</time>
      </trkpt>
      <trkpt lat="43.41959" lon="6.50109">
        <ele>193.4</ele>
        <time>2013-11-24T12:47:35Z</time>
      </trkpt>
      <trkpt lat="43.41943" lon="6.50099">
        <ele>193.1</ele>
        <time>2013-11-24T12:48:18Z</time>
      </trkpt>
      <trkpt lat="43.41936" lon="6.50094">
        <ele>193</ele>
        <time>2013-11-24T12:48:31Z</time>
      </trkpt>
      <trkpt lat="43.41928" lon="6.50088">
        <ele>193.2</ele>
        <time>2013-11-24T12:48:42Z</time>
      </trkpt>
      <trkpt lat="43.41927" lon="6.50088">
        <ele>193.2</ele>
        <time>2013-11-24T12:48:43Z</time>
      </trkpt>
      <trkpt lat="43.41913" lon="6.50079">
        <ele>193.5</ele>
        <time>2013-11-24T12:48:54Z</time>
      </trkpt>
      <trkpt lat="43.41905" lon="6.50076">
        <ele>193.1</ele>
        <time>2013-11-24T12:49:01Z</time>
      </trkpt>
      <trkpt lat="43.41897" lon="6.50071">
        <ele>193.3</ele>
        <time>2013-11-24T12:49:07Z</time>
      </trkpt>
      <trkpt lat="43.41889" lon="6.50069">
        <ele>193.2</ele>
        <time>2013-11-24T12:49:15Z</time>
      </trkpt>
      <trkpt lat="43.41882" lon="6.50064">
        <ele>192.8</ele>
        <time>2013-11-24T12:49:21Z</time>
      </trkpt>
      <trkpt lat="43.41874" lon="6.5006">
        <ele>192.6</ele>
        <time>2013-11-24T12:49:29Z</time>
      </trkpt>
      <trkpt lat="43.41867" lon="6.50054">
        <ele>192</ele>
        <time>2013-11-24T12:49:37Z</time>
      </trkpt>
      <trkpt lat="43.41861" lon="6.50047">
        <ele>192.1</ele>
        <time>2013-11-24T12:49:44Z</time>
      </trkpt>
      <trkpt lat="43.4186" lon="6.50045">
        <ele>192.3</ele>
        <time>2013-11-24T12:49:45Z</time>
      </trkpt>
      <trkpt lat="43.41852" lon="6.50029">
        <ele>191.8</ele>
        <time>2013-11-24T12:49:58Z</time>
      </trkpt>
      <trkpt lat="43.41846" lon="6.5002">
        <ele>192.2</ele>
        <time>2013-11-24T12:50:05Z</time>
      </trkpt>
      <trkpt lat="43.4184" lon="6.50011">
        <ele>192.3</ele>
        <time>2013-11-24T12:50:12Z</time>
      </trkpt>
      <trkpt lat="43.41836" lon="6.50001">
        <ele>191.6</ele>
        <time>2013-11-24T12:50:22Z</time>
      </trkpt>
      <trkpt lat="43.41832" lon="6.4999">
        <ele>191.8</ele>
        <time>2013-11-24T12:50:28Z</time>
      </trkpt>
      <trkpt lat="43.41826" lon="6.49982">
        <ele>191.3</ele>
        <time>2013-11-24T12:50:34Z</time>
      </trkpt>
      <trkpt lat="43.41823" lon="6.49972">
        <ele>191.9</ele>
        <time>2013-11-24T12:50:41Z</time>
      </trkpt>
      <trkpt lat="43.4182" lon="6.49962">
        <ele>191.1</ele>
        <time>2013-11-24T12:50:48Z</time>
      </trkpt>
      <trkpt lat="43.41819" lon="6.49961">
        <ele>191.3</ele>
        <time>2013-11-24T12:50:49Z</time>
      </trkpt>
      <trkpt lat="43.41815" lon="6.49942">
        <ele>191.5</ele>
        <time>2013-11-24T12:51:01Z</time>
      </trkpt>
      <trkpt lat="43.41813" lon="6.49931">
        <ele>191.7</ele>
        <time>2013-11-24T12:51:08Z</time>
      </trkpt>
      <trkpt lat="43.41816" lon="6.4992">
        <ele>191.4</ele>
        <time>2013-11-24T12:51:17Z</time>
      </trkpt>
      <trkpt lat="43.41817" lon="6.49909">
        <ele>191.2</ele>
        <time>2013-11-24T12:51:25Z</time>
      </trkpt>
      <trkpt lat="43.41818" lon="6.49897">
        <ele>192.2</ele>
        <time>2013-11-24T12:51:34Z</time>
      </trkpt>
      <trkpt lat="43.41814" lon="6.49887">
        <ele>191.7</ele>
        <time>2013-11-24T12:51:52Z</time>
      </trkpt>
      <trkpt lat="43.41813" lon="6.49886">
        <ele>191.3</ele>
        <time>2013-11-24T12:51:53Z</time>
      </trkpt>
      <trkpt lat="43.41802" lon="6.49872">
        <ele>190.4</ele>
        <time>2013-11-24T12:52:05Z</time>
      </trkpt>
      <trkpt lat="43.41796" lon="6.49863">
        <ele>190.1</ele>
        <time>2013-11-24T12:52:13Z</time>
      </trkpt>
      <trkpt lat="43.4179" lon="6.49856">
        <ele>188.9</ele>
        <time>2013-11-24T12:52:20Z</time>
      </trkpt>
      <trkpt lat="43.41785" lon="6.49848">
        <ele>188.1</ele>
        <time>2013-11-24T12:52:27Z</time>
      </trkpt>
      <trkpt lat="43.41778" lon="6.4984">
        <ele>187.6</ele>
        <time>2013-11-24T12:52:32Z</time>
      </trkpt>
      <trkpt lat="43.41774" lon="6.49833">
        <ele>187.8</ele>
        <time>2013-11-24T12:52:38Z</time>
      </trkpt>
      <trkpt lat="43.41769" lon="6.49824">
        <ele>187.4</ele>
        <time>2013-11-24T12:52:44Z</time>
      </trkpt>
      <trkpt lat="43.41764" lon="6.49814">
        <ele>185.8</ele>
        <time>2013-11-24T12:52:54Z</time>
      </trkpt>
      <trkpt lat="43.41763" lon="6.49813">
        <ele>185.7</ele>
        <time>2013-11-24T12:52:55Z</time>
      </trkpt>
      <trkpt lat="43.41752" lon="6.49796">
        <ele>185.2</ele>
        <time>2013-11-24T12:53:07Z</time>
      </trkpt>
      <trkpt lat="43.41746" lon="6.49789">
        <ele>184.4</ele>
        <time>2013-11-24T12:53:14Z</time>
      </trkpt>
      <trkpt lat="43.4174" lon="6.49781">
        <ele>183.5</ele>
        <time>2013-11-24T12:53:22Z</time>
      </trkpt>
      <trkpt lat="43.41735" lon="6.49771">
        <ele>183.7</ele>
        <time>2013-11-24T12:53:30Z</time>
      </trkpt>
      <trkpt lat="43.41729" lon="6.49763">
        <ele>183.4</ele>
        <time>2013-11-24T12:53:39Z</time>
      </trkpt>
      <trkpt lat="43.41724" lon="6.49753">
        <ele>183.4</ele>
        <time>2013-11-24T12:53:46Z</time>
      </trkpt>
      <trkpt lat="43.41721" lon="6.49743">
        <ele>182.3</ele>
        <time>2013-11-24T12:53:56Z</time>
      </trkpt>
      <trkpt lat="43.41721" lon="6.49742">
        <ele>182.4</ele>
        <time>2013-11-24T12:53:57Z</time>
      </trkpt>
      <trkpt lat="43.4172" lon="6.4972">
        <ele>181.8</ele>
        <time>2013-11-24T12:54:12Z</time>
      </trkpt>
      <trkpt lat="43.41719" lon="6.49708">
        <ele>180.8</ele>
        <time>2013-11-24T12:54:19Z</time>
      </trkpt>
      <trkpt lat="43.41721" lon="6.49697">
        <ele>180.6</ele>
        <time>2013-11-24T12:54:26Z</time>
      </trkpt>
      <trkpt lat="43.41722" lon="6.49686">
        <ele>179.9</ele>
        <time>2013-11-24T12:54:34Z</time>
      </trkpt>
      <trkpt lat="43.41725" lon="6.49675">
        <ele>179.4</ele>
        <time>2013-11-24T12:54:39Z</time>
      </trkpt>
      <trkpt lat="43.41731" lon="6.49667">
        <ele>179.7</ele>
        <time>2013-11-24T12:54:45Z</time>
      </trkpt>
      <trkpt lat="43.41739" lon="6.49667">
        <ele>179.6</ele>
        <time>2013-11-24T12:54:53Z</time>
      </trkpt>
      <trkpt lat="43.41746" lon="6.49671">
        <ele>179.3</ele>
        <time>2013-11-24T12:55:01Z</time>
      </trkpt>
      <trkpt lat="43.41747" lon="6.49672">
        <ele>179.3</ele>
        <time>2013-11-24T12:55:02Z</time>
      </trkpt>
      <trkpt lat="43.4176" lon="6.49683">
        <ele>179</ele>
        <time>2013-11-24T12:55:17Z</time>
      </trkpt>
      <trkpt lat="43.41767" lon="6.4969">
        <ele>178.8</ele>
        <time>2013-11-24T12:55:27Z</time>
      </trkpt>
      <trkpt lat="43.41772" lon="6.497">
        <ele>178.9</ele>
        <time>2013-11-24T12:55:38Z</time>
      </trkpt>
      <trkpt lat="43.41779" lon="6.49707">
        <ele>178.9</ele>
        <time>2013-11-24T12:55:47Z</time>
      </trkpt>
      <trkpt lat="43.41786" lon="6.49713">
        <ele>179.6</ele>
        <time>2013-11-24T12:55:54Z</time>
      </trkpt>
      <trkpt lat="43.41792" lon="6.49721">
        <ele>179.5</ele>
        <time>2013-11-24T12:56:02Z</time>
      </trkpt>
      <trkpt lat="43.41793" lon="6.49722">
        <ele>179.7</ele>
        <time>2013-11-24T12:56:03Z</time>
      </trkpt>
      <trkpt lat="43.41806" lon="6.49734">
        <ele>178.4</ele>
        <time>2013-11-24T12:56:17Z</time>
      </trkpt>
      <trkpt lat="43.41813" lon="6.49741">
        <ele>178.4</ele>
        <time>2013-11-24T12:56:24Z</time>
      </trkpt>
      <trkpt lat="43.41819" lon="6.4975">
        <ele>178.7</ele>
        <time>2013-11-24T12:56:32Z</time>
      </trkpt>
      <trkpt lat="43.41825" lon="6.49757">
        <ele>178.7</ele>
        <time>2013-11-24T12:56:39Z</time>
      </trkpt>
      <trkpt lat="43.4183" lon="6.49765">
        <ele>178.3</ele>
        <time>2013-11-24T12:56:48Z</time>
      </trkpt>
      <trkpt lat="43.41838" lon="6.49772">
        <ele>179</ele>
        <time>2013-11-24T12:56:55Z</time>
      </trkpt>
      <trkpt lat="43.41845" lon="6.49778">
        <ele>178.8</ele>
        <time>2013-11-24T12:57:02Z</time>
      </trkpt>
      <trkpt lat="43.41851" lon="6.49787">
        <ele>178.6</ele>
        <time>2013-11-24T12:57:12Z</time>
      </trkpt>
      <trkpt lat="43.41852" lon="6.49787">
        <ele>178.7</ele>
        <time>2013-11-24T12:57:13Z</time>
      </trkpt>
      <trkpt lat="43.41859" lon="6.49807">
        <ele>178.2</ele>
        <time>2013-11-24T12:57:34Z</time>
      </trkpt>
      <trkpt lat="43.41861" lon="6.49818">
        <ele>178.4</ele>
        <time>2013-11-24T12:57:45Z</time>
      </trkpt>
      <trkpt lat="43.41858" lon="6.4983">
        <ele>178</ele>
        <time>2013-11-24T12:57:57Z</time>
      </trkpt>
      <trkpt lat="43.41857" lon="6.49841">
        <ele>178.3</ele>
        <time>2013-11-24T12:58:07Z</time>
      </trkpt>
      <trkpt lat="43.41855" lon="6.49853">
        <ele>177.8</ele>
        <time>2013-11-24T12:58:15Z</time>
      </trkpt>
      <trkpt lat="43.41855" lon="6.49854">
        <ele>177.5</ele>
        <time>2013-11-24T12:58:16Z</time>
      </trkpt>
      <trkpt lat="43.41863" lon="6.49873">
        <ele>177.5</ele>
        <time>2013-11-24T12:58:33Z</time>
      </trkpt>
      <trkpt lat="43.41871" lon="6.49877">
        <ele>177.8</ele>
        <time>2013-11-24T12:58:41Z</time>
      </trkpt>
      <trkpt lat="43.41879" lon="6.49883">
        <ele>177.6</ele>
        <time>2013-11-24T12:59:52Z</time>
      </trkpt>
      <trkpt lat="43.4188" lon="6.49883">
        <ele>177.6</ele>
        <time>2013-11-24T12:59:53Z</time>
      </trkpt>
      <trkpt lat="43.41894" lon="6.49894">
        <ele>177.5</ele>
        <time>2013-11-24T13:00:30Z</time>
      </trkpt>
      <trkpt lat="43.41902" lon="6.499">
        <ele>177.1</ele>
        <time>2013-11-24T13:00:44Z</time>
      </trkpt>
      <trkpt lat="43.41909" lon="6.49904">
        <ele>176.9</ele>
        <time>2013-11-24T13:00:53Z</time>
      </trkpt>
      <trkpt lat="43.41911" lon="6.49905">
        <ele>177</ele>
        <time>2013-11-24T13:00:54Z</time>
      </trkpt>
      <trkpt lat="43.41919" lon="6.49923">
        <ele>177</ele>
        <time>2013-11-24T13:01:18Z</time>
      </trkpt>
      <trkpt lat="43.41924" lon="6.49933">
        <ele>177.3</ele>
        <time>2013-11-24T13:01:26Z</time>
      </trkpt>
      <trkpt lat="43.4193" lon="6.49941">
        <ele>177.2</ele>
        <time>2013-11-24T13:01:34Z</time>
      </trkpt>
      <trkpt lat="43.41938" lon="6.49946">
        <ele>176.8</ele>
        <time>2013-11-24T13:01:42Z</time>
      </trkpt>
      <trkpt lat="43.41945" lon="6.49952">
        <ele>176.6</ele>
        <time>2013-11-24T13:01:49Z</time>
      </trkpt>
      <trkpt lat="43.41952" lon="6.49959">
        <ele>176.8</ele>
        <time>2013-11-24T13:01:58Z</time>
      </trkpt>
      <trkpt lat="43.41952" lon="6.49959">
        <ele>176.8</ele>
        <time>2013-11-24T13:02:00Z</time>
      </trkpt>
      <trkpt lat="43.41967" lon="6.49967">
        <ele>177</ele>
        <time>2013-11-24T13:02:17Z</time>
      </trkpt>
      <trkpt lat="43.41975" lon="6.49972">
        <ele>177.1</ele>
        <time>2013-11-24T13:02:24Z</time>
      </trkpt>
      <trkpt lat="43.41982" lon="6.49978">
        <ele>176.6</ele>
        <time>2013-11-24T13:02:32Z</time>
      </trkpt>
      <trkpt lat="43.41988" lon="6.49984">
        <ele>176.3</ele>
        <time>2013-11-24T13:02:39Z</time>
      </trkpt>
      <trkpt lat="43.41994" lon="6.49993">
        <ele>176.1</ele>
        <time>2013-11-24T13:02:46Z</time>
      </trkpt>
      <trkpt lat="43.41999" lon="6.50002">
        <ele>175.8</ele>
        <time>2013-11-24T13:02:57Z</time>
      </trkpt>
      <trkpt lat="43.42003" lon="6.50012">
        <ele>176.3</ele>
        <time>2013-11-24T13:03:05Z</time>
      </trkpt>
      <trkpt lat="43.42004" lon="6.50012">
        <ele>176.4</ele>
        <time>2013-11-24T13:03:06Z</time>
      </trkpt>
      <trkpt lat="43.42009" lon="6.50034">
        <ele>175.8</ele>
        <time>2013-11-24T13:03:21Z</time>
      </trkpt>
      <trkpt lat="43.42013" lon="6.50043">
        <ele>175.8</ele>
        <time>2013-11-24T13:03:28Z</time>
      </trkpt>
      <trkpt lat="43.42018" lon="6.50053">
        <ele>175.5</ele>
        <time>2013-11-24T13:03:37Z</time>
      </trkpt>
      <trkpt lat="43.42022" lon="6.50063">
        <ele>175.6</ele>
        <time>2013-11-24T13:03:46Z</time>
      </trkpt>
      <trkpt lat="43.42023" lon="6.50075">
        <ele>175.4</ele>
        <time>2013-11-24T13:03:54Z</time>
      </trkpt>
      <trkpt lat="43.4203" lon="6.50082">
        <ele>175.2</ele>
        <time>2013-11-24T13:04:01Z</time>
      </trkpt>
      <trkpt lat="43.42038" lon="6.50086">
        <ele>175.6</ele>
        <time>2013-11-24T13:04:06Z</time>
      </trkpt>
      <trkpt lat="43.4204" lon="6.50087">
        <ele>175.8</ele>
        <time>2013-11-24T13:04:07Z</time>
      </trkpt>
      <trkpt lat="43.42054" lon="6.50093">
        <ele>175.1</ele>
        <time>2013-11-24T13:04:21Z</time>
      </trkpt>
      <trkpt lat="43.42061" lon="6.501">
        <ele>174.7</ele>
        <time>2013-11-24T13:04:27Z</time>
      </trkpt>
      <trkpt lat="43.42065" lon="6.50111">
        <ele>174.8</ele>
        <time>2013-11-24T13:04:34Z</time>
      </trkpt>
      <trkpt lat="43.42073" lon="6.50104">
        <ele>173.6</ele>
        <time>2013-11-24T13:04:51Z</time>
      </trkpt>
      <trkpt lat="43.42075" lon="6.50093">
        <ele>173.4</ele>
        <time>2013-11-24T13:04:58Z</time>
      </trkpt>
      <trkpt lat="43.42079" lon="6.50083">
        <ele>173.1</ele>
        <time>2013-11-24T13:05:06Z</time>
      </trkpt>
      <trkpt lat="43.42084" lon="6.50073">
        <ele>171.9</ele>
        <time>2013-11-24T13:05:20Z</time>
      </trkpt>
      <trkpt lat="43.42084" lon="6.50073">
        <ele>171.9</ele>
        <time>2013-11-24T13:05:21Z</time>
      </trkpt>
      <trkpt lat="43.42096" lon="6.50058">
        <ele>171.1</ele>
        <time>2013-11-24T13:05:51Z</time>
      </trkpt>
      <trkpt lat="43.42103" lon="6.50051">
        <ele>171.3</ele>
        <time>2013-11-24T13:05:58Z</time>
      </trkpt>
      <trkpt lat="43.42109" lon="6.50044">
        <ele>169.9</ele>
        <time>2013-11-24T13:06:06Z</time>
      </trkpt>
      <trkpt lat="43.42114" lon="6.50036">
        <ele>169.5</ele>
        <time>2013-11-24T13:06:14Z</time>
      </trkpt>
      <trkpt lat="43.42121" lon="6.50029">
        <ele>169.4</ele>
        <time>2013-11-24T13:06:22Z</time>
      </trkpt>
      <trkpt lat="43.42122" lon="6.50028">
        <ele>169.5</ele>
        <time>2013-11-24T13:06:23Z</time>
      </trkpt>
      <trkpt lat="43.42137" lon="6.5003">
        <ele>168.5</ele>
        <time>2013-11-24T13:06:38Z</time>
      </trkpt>
      <trkpt lat="43.42145" lon="6.50033">
        <ele>168.7</ele>
        <time>2013-11-24T13:06:45Z</time>
      </trkpt>
      <trkpt lat="43.42151" lon="6.50042">
        <ele>168.3</ele>
        <time>2013-11-24T13:06:53Z</time>
      </trkpt>
      <trkpt lat="43.42154" lon="6.50052">
        <ele>168.4</ele>
        <time>2013-11-24T13:07:03Z</time>
      </trkpt>
      <trkpt lat="43.42159" lon="6.50062">
        <ele>168.4</ele>
        <time>2013-11-24T13:07:13Z</time>
      </trkpt>
      <trkpt lat="43.42163" lon="6.50072">
        <ele>168.5</ele>
        <time>2013-11-24T13:07:21Z</time>
      </trkpt>
      <trkpt lat="43.42167" lon="6.50081">
        <ele>168</ele>
        <time>2013-11-24T13:07:42Z</time>
      </trkpt>
      <trkpt lat="43.42168" lon="6.50082">
        <ele>168</ele>
        <time>2013-11-24T13:07:43Z</time>
      </trkpt>
      <trkpt lat="43.42179" lon="6.50097">
        <ele>167.7</ele>
        <time>2013-11-24T13:08:02Z</time>
      </trkpt>
      <trkpt lat="43.42186" lon="6.50104">
        <ele>167.6</ele>
        <time>2013-11-24T13:08:11Z</time>
      </trkpt>
      <trkpt lat="43.42194" lon="6.5011">
        <ele>168.2</ele>
        <time>2013-11-24T13:08:19Z</time>
      </trkpt>
      <trkpt lat="43.42199" lon="6.50118">
        <ele>167.6</ele>
        <time>2013-11-24T13:08:29Z</time>
      </trkpt>
      <trkpt lat="43.42206" lon="6.50125">
        <ele>167.4</ele>
        <time>2013-11-24T13:08:38Z</time>
      </trkpt>
      <trkpt lat="43.42214" lon="6.50132">
        <ele>166.9</ele>
        <time>2013-11-24T13:08:50Z</time>
      </trkpt>
      <trkpt lat="43.42215" lon="6.50133">
        <ele>166.9</ele>
        <time>2013-11-24T13:08:51Z</time>
      </trkpt>
      <trkpt lat="43.42229" lon="6.50143">
        <ele>166.9</ele>
        <time>2013-11-24T13:09:05Z</time>
      </trkpt>
      <trkpt lat="43.42236" lon="6.50148">
        <ele>166.5</ele>
        <time>2013-11-24T13:09:12Z</time>
      </trkpt>
      <trkpt lat="43.42242" lon="6.50155">
        <ele>166.6</ele>
        <time>2013-11-24T13:09:18Z</time>
      </trkpt>
      <trkpt lat="43.42248" lon="6.50163">
        <ele>166.3</ele>
        <time>2013-11-24T13:09:24Z</time>
      </trkpt>
      <trkpt lat="43.42252" lon="6.50172">
        <ele>166.4</ele>
        <time>2013-11-24T13:09:31Z</time>
      </trkpt>
      <trkpt lat="43.42256" lon="6.50182">
        <ele>166.3</ele>
        <time>2013-11-24T13:09:38Z</time>
      </trkpt>
      <trkpt lat="43.42259" lon="6.50193">
        <ele>166.1</ele>
        <time>2013-11-24T13:09:45Z</time>
      </trkpt>
      <trkpt lat="43.4226" lon="6.50204">
        <ele>166</ele>
        <time>2013-11-24T13:10:06Z</time>
      </trkpt>
      <trkpt lat="43.4226" lon="6.50205">
        <ele>166</ele>
        <time>2013-11-24T13:10:07Z</time>
      </trkpt>
      <trkpt lat="43.42265" lon="6.50226">
        <ele>166.8</ele>
        <time>2013-11-24T13:10:29Z</time>
      </trkpt>
      <trkpt lat="43.4227" lon="6.50236">
        <ele>166.3</ele>
        <time>2013-11-24T13:10:36Z</time>
      </trkpt>
      <trkpt lat="43.42275" lon="6.50245">
        <ele>166.1</ele>
        <time>2013-11-24T13:10:42Z</time>
      </trkpt>
      <trkpt lat="43.42278" lon="6.50256">
        <ele>165.5</ele>
        <time>2013-11-24T13:10:50Z</time>
      </trkpt>
      <trkpt lat="43.42277" lon="6.50268">
        <ele>165.5</ele>
        <time>2013-11-24T13:11:01Z</time>
      </trkpt>
      <trkpt lat="43.42281" lon="6.50279">
        <ele>165.5</ele>
        <time>2013-11-24T13:11:10Z</time>
      </trkpt>
      <trkpt lat="43.42281" lon="6.50281">
        <ele>165.5</ele>
        <time>2013-11-24T13:11:11Z</time>
      </trkpt>
      <trkpt lat="43.4228" lon="6.503">
        <ele>165.8</ele>
        <time>2013-11-24T13:11:27Z</time>
      </trkpt>
      <trkpt lat="43.42286" lon="6.50308">
        <ele>164.8</ele>
        <time>2013-11-24T13:11:35Z</time>
      </trkpt>
      <trkpt lat="43.42289" lon="6.50318">
        <ele>164.5</ele>
        <time>2013-11-24T13:11:42Z</time>
      </trkpt>
      <trkpt lat="43.4229" lon="6.50329">
        <ele>164.4</ele>
        <time>2013-11-24T13:11:52Z</time>
      </trkpt>
      <trkpt lat="43.42289" lon="6.50339">
        <ele>164.2</ele>
        <time>2013-11-24T13:11:59Z</time>
      </trkpt>
      <trkpt lat="43.42288" lon="6.50351">
        <ele>164.1</ele>
        <time>2013-11-24T13:12:08Z</time>
      </trkpt>
      <trkpt lat="43.42295" lon="6.50358">
        <ele>164.2</ele>
        <time>2013-11-24T13:12:20Z</time>
      </trkpt>
      <trkpt lat="43.42296" lon="6.50359">
        <ele>164</ele>
        <time>2013-11-24T13:12:21Z</time>
      </trkpt>
      <trkpt lat="43.42308" lon="6.50344">
        <ele>163.9</ele>
        <time>2013-11-24T13:12:37Z</time>
      </trkpt>
      <trkpt lat="43.42311" lon="6.50334">
        <ele>163.1</ele>
        <time>2013-11-24T13:12:44Z</time>
      </trkpt>
      <trkpt lat="43.42316" lon="6.50324">
        <ele>162.4</ele>
        <time>2013-11-24T13:12:53Z</time>
      </trkpt>
      <trkpt lat="43.42323" lon="6.50321">
        <ele>162.1</ele>
        <time>2013-11-24T13:13:00Z</time>
      </trkpt>
      <trkpt lat="43.42329" lon="6.50312">
        <ele>161.9</ele>
        <time>2013-11-24T13:13:12Z</time>
      </trkpt>
      <trkpt lat="43.42334" lon="6.50302">
        <ele>161.1</ele>
        <time>2013-11-24T13:13:22Z</time>
      </trkpt>
      <trkpt lat="43.42334" lon="6.503">
        <ele>161.1</ele>
        <time>2013-11-24T13:13:23Z</time>
      </trkpt>
      <trkpt lat="43.42343" lon="6.50283">
        <ele>160.6</ele>
        <time>2013-11-24T13:13:36Z</time>
      </trkpt>
      <trkpt lat="43.42348" lon="6.50273">
        <ele>160.5</ele>
        <time>2013-11-24T13:13:43Z</time>
      </trkpt>
      <trkpt lat="43.42355" lon="6.50267">
        <ele>159.8</ele>
        <time>2013-11-24T13:13:51Z</time>
      </trkpt>
      <trkpt lat="43.4236" lon="6.50257">
        <ele>159.5</ele>
        <time>2013-11-24T13:13:58Z</time>
      </trkpt>
      <trkpt lat="43.4236" lon="6.50246">
        <ele>159.7</ele>
        <time>2013-11-24T13:14:04Z</time>
      </trkpt>
      <trkpt lat="43.42365" lon="6.50236">
        <ele>159.3</ele>
        <time>2013-11-24T13:14:13Z</time>
      </trkpt>
      <trkpt lat="43.42369" lon="6.50228">
        <ele>159.3</ele>
        <time>2013-11-24T13:14:20Z</time>
      </trkpt>
      <trkpt lat="43.42375" lon="6.50219">
        <ele>159.1</ele>
        <time>2013-11-24T13:14:28Z</time>
      </trkpt>
      <trkpt lat="43.42375" lon="6.50217">
        <ele>159</ele>
        <time>2013-11-24T13:14:29Z</time>
      </trkpt>
      <trkpt lat="43.42384" lon="6.50199">
        <ele>158.8</ele>
        <time>2013-11-24T13:14:42Z</time>
      </trkpt>
      <trkpt lat="43.42388" lon="6.50189">
        <ele>157.9</ele>
        <time>2013-11-24T13:14:52Z</time>
      </trkpt>
      <trkpt lat="43.42389" lon="6.50178">
        <ele>157.3</ele>
        <time>2013-11-24T13:14:58Z</time>
      </trkpt>
      <trkpt lat="43.42392" lon="6.50167">
        <ele>157.3</ele>
        <time>2013-11-24T13:15:04Z</time>
      </trkpt>
      <trkpt lat="43.42395" lon="6.50157">
        <ele>156.9</ele>
        <time>2013-11-24T13:15:12Z</time>
      </trkpt>
      <trkpt lat="43.42395" lon="6.50145">
        <ele>157.1</ele>
        <time>2013-11-24T13:15:19Z</time>
      </trkpt>
      <trkpt lat="43.42396" lon="6.50133">
        <ele>156.9</ele>
        <time>2013-11-24T13:15:26Z</time>
      </trkpt>
      <trkpt lat="43.42398" lon="6.50121">
        <ele>156.6</ele>
        <time>2013-11-24T13:15:33Z</time>
      </trkpt>
      <trkpt lat="43.42399" lon="6.50119">
        <ele>156.7</ele>
        <time>2013-11-24T13:15:34Z</time>
      </trkpt>
      <trkpt lat="43.42413" lon="6.50111">
        <ele>156.4</ele>
        <time>2013-11-24T13:15:49Z</time>
      </trkpt>
      <trkpt lat="43.42421" lon="6.50111">
        <ele>155.7</ele>
        <time>2013-11-24T13:15:57Z</time>
      </trkpt>
      <trkpt lat="43.42429" lon="6.50115">
        <ele>154.6</ele>
        <time>2013-11-24T13:16:05Z</time>
      </trkpt>
      <trkpt lat="43.42437" lon="6.50118">
        <ele>153.9</ele>
        <time>2013-11-24T13:16:13Z</time>
      </trkpt>
      <trkpt lat="43.42443" lon="6.50126">
        <ele>153.9</ele>
        <time>2013-11-24T13:16:19Z</time>
      </trkpt>
      <trkpt lat="43.42449" lon="6.50135">
        <ele>153.3</ele>
        <time>2013-11-24T13:16:27Z</time>
      </trkpt>
      <trkpt lat="43.42456" lon="6.5014">
        <ele>152.8</ele>
        <time>2013-11-24T13:16:34Z</time>
      </trkpt>
      <trkpt lat="43.42457" lon="6.50142">
        <ele>152.7</ele>
        <time>2013-11-24T13:16:35Z</time>
      </trkpt>
      <trkpt lat="43.4247" lon="6.5015">
        <ele>152.3</ele>
        <time>2013-11-24T13:16:52Z</time>
      </trkpt>
      <trkpt lat="43.42478" lon="6.50149">
        <ele>150.8</ele>
        <time>2013-11-24T13:17:01Z</time>
      </trkpt>
      <trkpt lat="43.42486" lon="6.50153">
        <ele>150.3</ele>
        <time>2013-11-24T13:17:07Z</time>
      </trkpt>
      <trkpt lat="43.42491" lon="6.50161">
        <ele>150.3</ele>
        <time>2013-11-24T13:17:12Z</time>
      </trkpt>
      <trkpt lat="43.42496" lon="6.50171">
        <ele>150.8</ele>
        <time>2013-11-24T13:17:20Z</time>
      </trkpt>
      <trkpt lat="43.425" lon="6.50181">
        <ele>150.5</ele>
        <time>2013-11-24T13:17:27Z</time>
      </trkpt>
      <trkpt lat="43.42504" lon="6.50191">
        <ele>150.5</ele>
        <time>2013-11-24T13:17:34Z</time>
      </trkpt>
      <trkpt lat="43.42508" lon="6.50201">
        <ele>150.3</ele>
        <time>2013-11-24T13:17:41Z</time>
      </trkpt>
      <trkpt lat="43.42509" lon="6.50203">
        <ele>150</ele>
        <time>2013-11-24T13:17:42Z</time>
      </trkpt>
      <trkpt lat="43.42524" lon="6.50213">
        <ele>149.1</ele>
        <time>2013-11-24T13:18:00Z</time>
      </trkpt>
      <trkpt lat="43.42529" lon="6.50221">
        <ele>148.5</ele>
        <time>2013-11-24T13:18:07Z</time>
      </trkpt>
      <trkpt lat="43.42534" lon="6.50231">
        <ele>147.9</ele>
        <time>2013-11-24T13:18:17Z</time>
      </trkpt>
      <trkpt lat="43.42542" lon="6.50232">
        <ele>147.4</ele>
        <time>2013-11-24T13:18:26Z</time>
      </trkpt>
      <trkpt lat="43.42551" lon="6.50235">
        <ele>147</ele>
        <time>2013-11-24T13:18:33Z</time>
      </trkpt>
      <trkpt lat="43.42559" lon="6.50237">
        <ele>146.1</ele>
        <time>2013-11-24T13:18:40Z</time>
      </trkpt>
      <trkpt lat="43.42567" lon="6.50238">
        <ele>145.4</ele>
        <time>2013-11-24T13:18:46Z</time>
      </trkpt>
      <trkpt lat="43.42568" lon="6.50238">
        <ele>145.3</ele>
        <time>2013-11-24T13:18:47Z</time>
      </trkpt>
      <trkpt lat="43.42584" lon="6.50242">
        <ele>144.9</ele>
        <time>2013-11-24T13:19:02Z</time>
      </trkpt>
      <trkpt lat="43.42593" lon="6.50244">
        <ele>144.5</ele>
        <time>2013-11-24T13:19:11Z</time>
      </trkpt>
      <trkpt lat="43.42598" lon="6.50253">
        <ele>143.8</ele>
        <time>2013-11-24T13:19:20Z</time>
      </trkpt>
      <trkpt lat="43.42597" lon="6.50265">
        <ele>142.8</ele>
        <time>2013-11-24T13:19:31Z</time>
      </trkpt>
      <trkpt lat="43.42596" lon="6.50277">
        <ele>141.7</ele>
        <time>2013-11-24T13:19:41Z</time>
      </trkpt>
      <trkpt lat="43.42599" lon="6.50288">
        <ele>141.2</ele>
        <time>2013-11-24T13:19:49Z</time>
      </trkpt>
      <trkpt lat="43.42599" lon="6.5029">
        <ele>141.2</ele>
        <time>2013-11-24T13:19:50Z</time>
      </trkpt>
      <trkpt lat="43.42597" lon="6.50312">
        <ele>140.8</ele>
        <time>2013-11-24T13:20:03Z</time>
      </trkpt>
      <trkpt lat="43.42595" lon="6.50322">
        <ele>140.5</ele>
        <time>2013-11-24T13:20:09Z</time>
      </trkpt>
      <trkpt lat="43.42596" lon="6.50333">
        <ele>139.9</ele>
        <time>2013-11-24T13:20:17Z</time>
      </trkpt>
      <trkpt lat="43.42604" lon="6.50339">
        <ele>139.5</ele>
        <time>2013-11-24T13:20:21Z</time>
      </trkpt>
      <trkpt lat="43.42612" lon="6.50343">
        <ele>138.9</ele>
        <time>2013-11-24T13:20:27Z</time>
      </trkpt>
      <trkpt lat="43.42619" lon="6.50348">
        <ele>139</ele>
        <time>2013-11-24T13:20:34Z</time>
      </trkpt>
      <trkpt lat="43.42626" lon="6.50354">
        <ele>138.5</ele>
        <time>2013-11-24T13:20:43Z</time>
      </trkpt>
      <trkpt lat="43.42632" lon="6.50362">
        <ele>138</ele>
        <time>2013-11-24T13:20:51Z</time>
      </trkpt>
      <trkpt lat="43.42633" lon="6.50363">
        <ele>138.1</ele>
        <time>2013-11-24T13:20:52Z</time>
      </trkpt>
      <trkpt lat="43.42644" lon="6.50379">
        <ele>136.9</ele>
        <time>2013-11-24T13:21:04Z</time>
      </trkpt>
      <trkpt lat="43.4265" lon="6.50386">
        <ele>136.4</ele>
        <time>2013-11-24T13:21:11Z</time>
      </trkpt>
      <trkpt lat="43.42656" lon="6.50393">
        <ele>135.6</ele>
        <time>2013-11-24T13:21:19Z</time>
      </trkpt>
      <trkpt lat="43.4266" lon="6.50403">
        <ele>134.7</ele>
        <time>2013-11-24T13:21:28Z</time>
      </trkpt>
      <trkpt lat="43.42665" lon="6.50412">
        <ele>134.4</ele>
        <time>2013-11-24T13:21:38Z</time>
      </trkpt>
      <trkpt lat="43.4267" lon="6.50422">
        <ele>134.1</ele>
        <time>2013-11-24T13:21:46Z</time>
      </trkpt>
      <trkpt lat="43.42676" lon="6.5043">
        <ele>133.5</ele>
        <time>2013-11-24T13:21:52Z</time>
      </trkpt>
      <trkpt lat="43.42677" lon="6.50432">
        <ele>133.3</ele>
        <time>2013-11-24T13:21:53Z</time>
      </trkpt>
      <trkpt lat="43.4268" lon="6.50453">
        <ele>132.7</ele>
        <time>2013-11-24T13:22:05Z</time>
      </trkpt>
      <trkpt lat="43.42682" lon="6.50464">
        <ele>131.8</ele>
        <time>2013-11-24T13:22:12Z</time>
      </trkpt>
      <trkpt lat="43.4268" lon="6.50475">
        <ele>131.1</ele>
        <time>2013-11-24T13:22:19Z</time>
      </trkpt>
      <trkpt lat="43.42682" lon="6.50486">
        <ele>130.4</ele>
        <time>2013-11-24T13:22:27Z</time>
      </trkpt>
      <trkpt lat="43.42687" lon="6.50497">
        <ele>130.3</ele>
        <time>2013-11-24T13:22:36Z</time>
      </trkpt>
      <trkpt lat="43.42694" lon="6.50502">
        <ele>129.8</ele>
        <time>2013-11-24T13:22:44Z</time>
      </trkpt>
      <trkpt lat="43.427" lon="6.50508">
        <ele>128.9</ele>
        <time>2013-11-24T13:22:53Z</time>
      </trkpt>
      <trkpt lat="43.42702" lon="6.5051">
        <ele>129.1</ele>
        <time>2013-11-24T13:22:54Z</time>
      </trkpt>
      <trkpt lat="43.42712" lon="6.50525">
        <ele>129.5</ele>
        <time>2013-11-24T13:23:05Z</time>
      </trkpt>
      <trkpt lat="43.42718" lon="6.50532">
        <ele>128.8</ele>
        <time>2013-11-24T13:23:13Z</time>
      </trkpt>
      <trkpt lat="43.42725" lon="6.50536">
        <ele>128</ele>
        <time>2013-11-24T13:23:22Z</time>
      </trkpt>
      <trkpt lat="43.42733" lon="6.50539">
        <ele>127.3</ele>
        <time>2013-11-24T13:23:34Z</time>
      </trkpt>
      <trkpt lat="43.42741" lon="6.50542">
        <ele>125.5</ele>
        <time>2013-11-24T13:25:57Z</time>
      </trkpt>
      <trkpt lat="43.42742" lon="6.50542">
        <ele>125.5</ele>
        <time>2013-11-24T13:25:58Z</time>
      </trkpt>
      <trkpt lat="43.42743" lon="6.50536">
        <ele>124.6</ele>
        <time>2013-11-24T13:26:34Z</time>
      </trkpt>
      <trkpt lat="43.42752" lon="6.50535">
        <ele>125.1</ele>
        <time>2013-11-24T13:28:01Z</time>
      </trkpt>
      <trkpt lat="43.42753" lon="6.50535">
        <ele>125.3</ele>
        <time>2013-11-24T13:28:02Z</time>
      </trkpt>
      <trkpt lat="43.42762" lon="6.5052">
        <ele>124.1</ele>
        <time>2013-11-24T13:28:56Z</time>
      </trkpt>
      <trkpt lat="43.4277" lon="6.50515">
        <ele>123.2</ele>
        <time>2013-11-24T13:29:17Z</time>
      </trkpt>
      <trkpt lat="43.42771" lon="6.50515">
        <ele>123.3</ele>
        <time>2013-11-24T13:29:18Z</time>
      </trkpt>
      <trkpt lat="43.42787" lon="6.50521">
        <ele>121.5</ele>
        <time>2013-11-24T13:29:40Z</time>
      </trkpt>
      <trkpt lat="43.42794" lon="6.50528">
        <ele>120.6</ele>
        <time>2013-11-24T13:29:52Z</time>
      </trkpt>
      <trkpt lat="43.42803" lon="6.50529">
        <ele>119.3</ele>
        <time>2013-11-24T13:30:01Z</time>
      </trkpt>
      <trkpt lat="43.42811" lon="6.50533">
        <ele>117.5</ele>
        <time>2013-11-24T13:30:11Z</time>
      </trkpt>
      <trkpt lat="43.42819" lon="6.50527">
        <ele>116.1</ele>
        <time>2013-11-24T13:30:19Z</time>
      </trkpt>
      <trkpt lat="43.4282" lon="6.50527">
        <ele>115.7</ele>
        <time>2013-11-24T13:30:20Z</time>
      </trkpt>
      <trkpt lat="43.42835" lon="6.50533">
        <ele>114.5</ele>
        <time>2013-11-24T13:30:39Z</time>
      </trkpt>
      <trkpt lat="43.42842" lon="6.50539">
        <ele>113.4</ele>
        <time>2013-11-24T13:30:49Z</time>
      </trkpt>
      <trkpt lat="43.4285" lon="6.50541">
        <ele>112.6</ele>
        <time>2013-11-24T13:30:55Z</time>
      </trkpt>
      <trkpt lat="43.42857" lon="6.50545">
        <ele>111.9</ele>
        <time>2013-11-24T13:31:05Z</time>
      </trkpt>
      <trkpt lat="43.42866" lon="6.50543">
        <ele>110.4</ele>
        <time>2013-11-24T13:31:17Z</time>
      </trkpt>
      <trkpt lat="43.42875" lon="6.50544">
        <ele>109</ele>
        <time>2013-11-24T13:31:27Z</time>
      </trkpt>
      <trkpt lat="43.42876" lon="6.50544">
        <ele>109.2</ele>
        <time>2013-11-24T13:31:28Z</time>
      </trkpt>
      <trkpt lat="43.42892" lon="6.50544">
        <ele>105.7</ele>
        <time>2013-11-24T13:31:45Z</time>
      </trkpt>
      <trkpt lat="43.429" lon="6.50542">
        <ele>103.9</ele>
        <time>2013-11-24T13:31:54Z</time>
      </trkpt>
      <trkpt lat="43.42908" lon="6.50541">
        <ele>102.2</ele>
        <time>2013-11-24T13:32:05Z</time>
      </trkpt>
      <trkpt lat="43.42916" lon="6.50537">
        <ele>101.5</ele>
        <time>2013-11-24T13:32:13Z</time>
      </trkpt>
      <trkpt lat="43.42924" lon="6.50535">
        <ele>100.8</ele>
        <time>2013-11-24T13:32:21Z</time>
      </trkpt>
      <trkpt lat="43.42931" lon="6.50528">
        <ele>98.3</ele>
        <time>2013-11-24T13:32:32Z</time>
      </trkpt>
      <trkpt lat="43.42932" lon="6.50528">
        <ele>98.1</ele>
        <time>2013-11-24T13:32:33Z</time>
      </trkpt>
      <trkpt lat="43.42946" lon="6.50532">
        <ele>96.4</ele>
        <time>2013-11-24T13:32:48Z</time>
      </trkpt>
      <trkpt lat="43.42954" lon="6.50534">
        <ele>95.8</ele>
        <time>2013-11-24T13:32:53Z</time>
      </trkpt>
      <trkpt lat="43.4296" lon="6.5054">
        <ele>94</ele>
        <time>2013-11-24T13:33:05Z</time>
      </trkpt>
      <trkpt lat="43.42968" lon="6.50543">
        <ele>93.4</ele>
        <time>2013-11-24T13:33:11Z</time>
      </trkpt>
      <trkpt lat="43.42975" lon="6.50546">
        <ele>91.9</ele>
        <time>2013-11-24T13:33:18Z</time>
      </trkpt>
      <trkpt lat="43.42984" lon="6.50546">
        <ele>91</ele>
        <time>2013-11-24T13:33:31Z</time>
      </trkpt>
      <trkpt lat="43.42993" lon="6.5055">
        <ele>89.2</ele>
        <time>2013-11-24T13:33:42Z</time>
      </trkpt>
      <trkpt lat="43.42994" lon="6.50551">
        <ele>88.8</ele>
        <time>2013-11-24T13:33:43Z</time>
      </trkpt>
      <trkpt lat="43.43006" lon="6.50564">
        <ele>86.6</ele>
        <time>2013-11-24T13:34:06Z</time>
      </trkpt>
      <trkpt lat="43.43014" lon="6.5057">
        <ele>85.1</ele>
        <time>2013-11-24T13:34:15Z</time>
      </trkpt>
      <trkpt lat="43.43022" lon="6.50575">
        <ele>83.6</ele>
        <time>2013-11-24T13:34:26Z</time>
      </trkpt>
      <trkpt lat="43.43026" lon="6.50586">
        <ele>81.4</ele>
        <time>2013-11-24T13:34:41Z</time>
      </trkpt>
      <trkpt lat="43.43028" lon="6.50598">
        <ele>80</ele>
        <time>2013-11-24T13:34:53Z</time>
      </trkpt>
      <trkpt lat="43.43029" lon="6.50598">
        <ele>80.1</ele>
        <time>2013-11-24T13:34:54Z</time>
      </trkpt>
      <trkpt lat="43.43037" lon="6.50617">
        <ele>77.1</ele>
        <time>2013-11-24T13:35:18Z</time>
      </trkpt>
      <trkpt lat="43.4304" lon="6.50627">
        <ele>76.2</ele>
        <time>2013-11-24T13:35:26Z</time>
      </trkpt>
      <trkpt lat="43.43045" lon="6.50635">
        <ele>74.4</ele>
        <time>2013-11-24T13:35:34Z</time>
      </trkpt>
      <trkpt lat="43.43049" lon="6.50646">
        <ele>73</ele>
        <time>2013-11-24T13:35:43Z</time>
      </trkpt>
      <trkpt lat="43.4305" lon="6.50657">
        <ele>71.4</ele>
        <time>2013-11-24T13:35:53Z</time>
      </trkpt>
      <trkpt lat="43.43055" lon="6.50666">
        <ele>70.4</ele>
        <time>2013-11-24T13:36:08Z</time>
      </trkpt>
      <trkpt lat="43.43057" lon="6.50666">
        <ele>70.4</ele>
        <time>2013-11-24T13:36:09Z</time>
      </trkpt>
      <trkpt lat="43.43067" lon="6.50685">
        <ele>67.5</ele>
        <time>2013-11-24T13:36:39Z</time>
      </trkpt>
      <trkpt lat="43.43072" lon="6.50693">
        <ele>66.7</ele>
        <time>2013-11-24T13:36:46Z</time>
      </trkpt>
      <trkpt lat="43.43078" lon="6.507">
        <ele>66</ele>
        <time>2013-11-24T13:36:52Z</time>
      </trkpt>
      <trkpt lat="43.43085" lon="6.50708">
        <ele>65.2</ele>
        <time>2013-11-24T13:37:00Z</time>
      </trkpt>
      <trkpt lat="43.43092" lon="6.50713">
        <ele>65.6</ele>
        <time>2013-11-24T13:37:08Z</time>
      </trkpt>
      <trkpt lat="43.43099" lon="6.50719">
        <ele>65.1</ele>
        <time>2013-11-24T13:37:13Z</time>
      </trkpt>
      <trkpt lat="43.43099" lon="6.5072">
        <ele>64.9</ele>
        <time>2013-11-24T13:37:14Z</time>
      </trkpt>
      <trkpt lat="43.43112" lon="6.50737">
        <ele>61.8</ele>
        <time>2013-11-24T13:37:41Z</time>
      </trkpt>
      <trkpt lat="43.43115" lon="6.50748">
        <ele>59.2</ele>
        <time>2013-11-24T13:37:57Z</time>
      </trkpt>
      <trkpt lat="43.43118" lon="6.50759">
        <ele>57.7</ele>
        <time>2013-11-24T13:38:10Z</time>
      </trkpt>
      <trkpt lat="43.43123" lon="6.50767">
        <ele>56.6</ele>
        <time>2013-11-24T13:38:21Z</time>
      </trkpt>
      <trkpt lat="43.43124" lon="6.50768">
        <ele>56.4</ele>
        <time>2013-11-24T13:38:22Z</time>
      </trkpt>
      <trkpt lat="43.43131" lon="6.50787">
        <ele>54.3</ele>
        <time>2013-11-24T13:38:41Z</time>
      </trkpt>
      <trkpt lat="43.43135" lon="6.50798">
        <ele>52.4</ele>
        <time>2013-11-24T13:38:52Z</time>
      </trkpt>
      <trkpt lat="43.43138" lon="6.50809">
        <ele>51.7</ele>
        <time>2013-11-24T13:39:02Z</time>
      </trkpt>
      <trkpt lat="43.43135" lon="6.5082">
        <ele>49.4</ele>
        <time>2013-11-24T13:39:19Z</time>
      </trkpt>
      <trkpt lat="43.43137" lon="6.50832">
        <ele>48.5</ele>
        <time>2013-11-24T13:39:27Z</time>
      </trkpt>
      <trkpt lat="43.43137" lon="6.50833">
        <ele>48.6</ele>
        <time>2013-11-24T13:39:28Z</time>
      </trkpt>
      <trkpt lat="43.43147" lon="6.50851">
        <ele>45.2</ele>
        <time>2013-11-24T13:39:50Z</time>
      </trkpt>
      <trkpt lat="43.43153" lon="6.50859">
        <ele>44.2</ele>
        <time>2013-11-24T13:40:04Z</time>
      </trkpt>
      <trkpt lat="43.43158" lon="6.50868">
        <ele>43.1</ele>
        <time>2013-11-24T13:40:13Z</time>
      </trkpt>
      <trkpt lat="43.43164" lon="6.50877">
        <ele>41.9</ele>
        <time>2013-11-24T13:40:26Z</time>
      </trkpt>
      <trkpt lat="43.43166" lon="6.50888">
        <ele>41.5</ele>
        <time>2013-11-24T13:40:35Z</time>
      </trkpt>
      <trkpt lat="43.43166" lon="6.50889">
        <ele>41.7</ele>
        <time>2013-11-24T13:40:36Z</time>
      </trkpt>
      <trkpt lat="43.43168" lon="6.5091">
        <ele>39.7</ele>
        <time>2013-11-24T13:40:58Z</time>
      </trkpt>
      <trkpt lat="43.43173" lon="6.5092">
        <ele>38.5</ele>
        <time>2013-11-24T13:41:07Z</time>
      </trkpt>
      <trkpt lat="43.43171" lon="6.50931">
        <ele>37.9</ele>
        <time>2013-11-24T13:41:13Z</time>
      </trkpt>
      <trkpt lat="43.43171" lon="6.50943">
        <ele>35.5</ele>
        <time>2013-11-24T13:41:30Z</time>
      </trkpt>
      <trkpt lat="43.43176" lon="6.50953">
        <ele>34.8</ele>
        <time>2013-11-24T13:41:36Z</time>
      </trkpt>
      <trkpt lat="43.43176" lon="6.50954">
        <ele>34.7</ele>
        <time>2013-11-24T13:41:37Z</time>
      </trkpt>
      <trkpt lat="43.43175" lon="6.50976">
        <ele>32.8</ele>
        <time>2013-11-24T13:41:55Z</time>
      </trkpt>
      <trkpt lat="43.43177" lon="6.50987">
        <ele>31.6</ele>
        <time>2013-11-24T13:42:03Z</time>
      </trkpt>
      <trkpt lat="43.43176" lon="6.50999">
        <ele>29.8</ele>
        <time>2013-11-24T13:42:15Z</time>
      </trkpt>
      <trkpt lat="43.43175" lon="6.51011">
        <ele>29</ele>
        <time>2013-11-24T13:42:27Z</time>
      </trkpt>
      <trkpt lat="43.43177" lon="6.51022">
        <ele>27.8</ele>
        <time>2013-11-24T13:42:37Z</time>
      </trkpt>
      <trkpt lat="43.43177" lon="6.51024">
        <ele>27.5</ele>
        <time>2013-11-24T13:42:38Z</time>
      </trkpt>
      <trkpt lat="43.43183" lon="6.51039">
        <ele>28.3</ele>
        <time>2013-11-24T13:42:56Z</time>
      </trkpt>
      <trkpt lat="43.43191" lon="6.51038">
        <ele>28.2</ele>
        <time>2013-11-24T13:43:14Z</time>
      </trkpt>
      <trkpt lat="43.43199" lon="6.51042">
        <ele>27.9</ele>
        <time>2013-11-24T13:43:24Z</time>
      </trkpt>
      <trkpt lat="43.43207" lon="6.51042">
        <ele>27.8</ele>
        <time>2013-11-24T13:43:32Z</time>
      </trkpt>
      <trkpt lat="43.43216" lon="6.51043">
        <ele>27.5</ele>
        <time>2013-11-24T13:43:49Z</time>
      </trkpt>
      <trkpt lat="43.43217" lon="6.51043">
        <ele>27.4</ele>
        <time>2013-11-24T13:43:50Z</time>
      </trkpt>
      <trkpt lat="43.43232" lon="6.51048">
        <ele>27.2</ele>
        <time>2013-11-24T13:44:05Z</time>
      </trkpt>
      <trkpt lat="43.4324" lon="6.5105">
        <ele>27.6</ele>
        <time>2013-11-24T13:44:13Z</time>
      </trkpt>
      <trkpt lat="43.43247" lon="6.51055">
        <ele>27.3</ele>
        <time>2013-11-24T13:44:23Z</time>
      </trkpt>
      <trkpt lat="43.43255" lon="6.51059">
        <ele>28.2</ele>
        <time>2013-11-24T13:44:30Z</time>
      </trkpt>
      <trkpt lat="43.43264" lon="6.51057">
        <ele>27.7</ele>
        <time>2013-11-24T13:44:39Z</time>
      </trkpt>
      <trkpt lat="43.43272" lon="6.51052">
        <ele>27.8</ele>
        <time>2013-11-24T13:44:45Z</time>
      </trkpt>
      <trkpt lat="43.4328" lon="6.51051">
        <ele>28.2</ele>
        <time>2013-11-24T13:44:54Z</time>
      </trkpt>
      <trkpt lat="43.43282" lon="6.5105">
        <ele>28.4</ele>
        <time>2013-11-24T13:44:55Z</time>
      </trkpt>
      <trkpt lat="43.43297" lon="6.51045">
        <ele>28.4</ele>
        <time>2013-11-24T13:45:11Z</time>
      </trkpt>
      <trkpt lat="43.43304" lon="6.51039">
        <ele>28.3</ele>
        <time>2013-11-24T13:45:18Z</time>
      </trkpt>
      <trkpt lat="43.43312" lon="6.51037">
        <ele>28.6</ele>
        <time>2013-11-24T13:45:26Z</time>
      </trkpt>
      <trkpt lat="43.43321" lon="6.51036">
        <ele>28.9</ele>
        <time>2013-11-24T13:45:37Z</time>
      </trkpt>
      <trkpt lat="43.43329" lon="6.51032">
        <ele>29.5</ele>
        <time>2013-11-24T13:45:47Z</time>
      </trkpt>
      <trkpt lat="43.43338" lon="6.5103">
        <ele>29.7</ele>
        <time>2013-11-24T13:45:54Z</time>
      </trkpt>
      <trkpt lat="43.43347" lon="6.51028">
        <ele>29.5</ele>
        <time>2013-11-24T13:46:02Z</time>
      </trkpt>
      <trkpt lat="43.43347" lon="6.51027">
        <ele>29.6</ele>
        <time>2013-11-24T13:46:03Z</time>
      </trkpt>
      <trkpt lat="43.43362" lon="6.51036">
        <ele>30.4</ele>
        <time>2013-11-24T13:46:20Z</time>
      </trkpt>
      <trkpt lat="43.4337" lon="6.51038">
        <ele>30.6</ele>
        <time>2013-11-24T13:46:28Z</time>
      </trkpt>
      <trkpt lat="43.43378" lon="6.51038">
        <ele>30.4</ele>
        <time>2013-11-24T13:46:36Z</time>
      </trkpt>
      <trkpt lat="43.43386" lon="6.51037">
        <ele>30.4</ele>
        <time>2013-11-24T13:46:45Z</time>
      </trkpt>
      <trkpt lat="43.43394" lon="6.51042">
        <ele>30.5</ele>
        <time>2013-11-24T13:46:54Z</time>
      </trkpt>
      <trkpt lat="43.43402" lon="6.51045">
        <ele>30.9</ele>
        <time>2013-11-24T13:47:02Z</time>
      </trkpt>
      <trkpt lat="43.43409" lon="6.51052">
        <ele>31.5</ele>
        <time>2013-11-24T13:47:08Z</time>
      </trkpt>
      <trkpt lat="43.4341" lon="6.51052">
        <ele>31.6</ele>
        <time>2013-11-24T13:47:09Z</time>
      </trkpt>
      <trkpt lat="43.43424" lon="6.51061">
        <ele>32.1</ele>
        <time>2013-11-24T13:47:22Z</time>
      </trkpt>
      <trkpt lat="43.43431" lon="6.51066">
        <ele>31.7</ele>
        <time>2013-11-24T13:47:30Z</time>
      </trkpt>
      <trkpt lat="43.43437" lon="6.51074">
        <ele>32.1</ele>
        <time>2013-11-24T13:47:36Z</time>
      </trkpt>
      <trkpt lat="43.43446" lon="6.51071">
        <ele>32</ele>
        <time>2013-11-24T13:47:43Z</time>
      </trkpt>
      <trkpt lat="43.43454" lon="6.51073">
        <ele>32.4</ele>
        <time>2013-11-24T13:47:50Z</time>
      </trkpt>
      <trkpt lat="43.43463" lon="6.51077">
        <ele>32.6</ele>
        <time>2013-11-24T13:47:57Z</time>
      </trkpt>
      <trkpt lat="43.43469" lon="6.51085">
        <ele>32.5</ele>
        <time>2013-11-24T13:48:03Z</time>
      </trkpt>
      <trkpt lat="43.43476" lon="6.51086">
        <ele>32.5</ele>
        <time>2013-11-24T13:48:11Z</time>
      </trkpt>
      <trkpt lat="43.43478" lon="6.51085">
        <ele>32.6</ele>
        <time>2013-11-24T13:48:12Z</time>
      </trkpt>
      <trkpt lat="43.43492" lon="6.51087">
        <ele>31.9</ele>
        <time>2013-11-24T13:48:27Z</time>
      </trkpt>
      <trkpt lat="43.435" lon="6.51086">
        <ele>31.3</ele>
        <time>2013-11-24T13:48:35Z</time>
      </trkpt>
      <trkpt lat="43.43508" lon="6.51084">
        <ele>31.1</ele>
        <time>2013-11-24T13:48:43Z</time>
      </trkpt>
      <trkpt lat="43.43515" lon="6.51076">
        <ele>30.8</ele>
        <time>2013-11-24T13:48:51Z</time>
      </trkpt>
      <trkpt lat="43.43522" lon="6.51069">
        <ele>31</ele>
        <time>2013-11-24T13:49:16Z</time>
      </trkpt>
      <trkpt lat="43.43523" lon="6.51069">
        <ele>31.1</ele>
        <time>2013-11-24T13:49:17Z</time>
      </trkpt>
      <trkpt lat="43.43531" lon="6.51065">
        <ele>31.2</ele>
        <time>2013-11-24T13:51:05Z</time>
      </trkpt>
      <trkpt lat="43.43547" lon="6.5106">
        <ele>33.6</ele>
        <time>2013-11-24T13:51:29Z</time>
      </trkpt>
      <trkpt lat="43.43554" lon="6.51054">
        <ele>33.6</ele>
        <time>2013-11-24T13:51:37Z</time>
      </trkpt>
      <trkpt lat="43.43561" lon="6.51048">
        <ele>34.8</ele>
        <time>2013-11-24T13:51:44Z</time>
      </trkpt>
      <trkpt lat="43.43568" lon="6.51041">
        <ele>34.8</ele>
        <time>2013-11-24T13:51:51Z</time>
      </trkpt>
      <trkpt lat="43.43575" lon="6.51034">
        <ele>35.7</ele>
        <time>2013-11-24T13:51:58Z</time>
      </trkpt>
      <trkpt lat="43.43581" lon="6.51025">
        <ele>36.6</ele>
        <time>2013-11-24T13:52:06Z</time>
      </trkpt>
      <trkpt lat="43.43583" lon="6.51024">
        <ele>36.8</ele>
        <time>2013-11-24T13:52:07Z</time>
      </trkpt>
      <trkpt lat="43.43597" lon="6.51029">
        <ele>38.8</ele>
        <time>2013-11-24T13:52:26Z</time>
      </trkpt>
      <trkpt lat="43.43604" lon="6.51035">
        <ele>39.6</ele>
        <time>2013-11-24T13:52:35Z</time>
      </trkpt>
      <trkpt lat="43.43612" lon="6.5104">
        <ele>40.3</ele>
        <time>2013-11-24T13:52:46Z</time>
      </trkpt>
      <trkpt lat="43.4362" lon="6.51045">
        <ele>41.3</ele>
        <time>2013-11-24T13:52:52Z</time>
      </trkpt>
      <trkpt lat="43.43628" lon="6.51049">
        <ele>42.2</ele>
        <time>2013-11-24T13:52:59Z</time>
      </trkpt>
      <trkpt lat="43.43636" lon="6.51048">
        <ele>43.4</ele>
        <time>2013-11-24T13:53:07Z</time>
      </trkpt>
      <trkpt lat="43.43638" lon="6.51048">
        <ele>43.3</ele>
        <time>2013-11-24T13:53:08Z</time>
      </trkpt>
      <trkpt lat="43.43652" lon="6.51049">
        <ele>44.1</ele>
        <time>2013-11-24T13:53:20Z</time>
      </trkpt>
      <trkpt lat="43.43659" lon="6.51043">
        <ele>44.4</ele>
        <time>2013-11-24T13:53:26Z</time>
      </trkpt>
      <trkpt lat="43.43663" lon="6.51033">
        <ele>45.1</ele>
        <time>2013-11-24T13:53:32Z</time>
      </trkpt>
      <trkpt lat="43.43664" lon="6.51021">
        <ele>46.1</ele>
        <time>2013-11-24T13:53:40Z</time>
      </trkpt>
      <trkpt lat="43.43665" lon="6.51009">
        <ele>46.6</ele>
        <time>2013-11-24T13:53:46Z</time>
      </trkpt>
      <trkpt lat="43.43662" lon="6.50999">
        <ele>47.1</ele>
        <time>2013-11-24T13:53:52Z</time>
      </trkpt>
      <trkpt lat="43.43658" lon="6.50988">
        <ele>47.9</ele>
        <time>2013-11-24T13:54:01Z</time>
      </trkpt>
      <trkpt lat="43.43656" lon="6.50978">
        <ele>48.4</ele>
        <time>2013-11-24T13:54:10Z</time>
      </trkpt>
      <trkpt lat="43.43656" lon="6.50976">
        <ele>48.4</ele>
        <time>2013-11-24T13:54:11Z</time>
      </trkpt>
      <trkpt lat="43.43651" lon="6.50955">
        <ele>49.5</ele>
        <time>2013-11-24T13:54:23Z</time>
      </trkpt>
      <trkpt lat="43.43647" lon="6.50944">
        <ele>50.3</ele>
        <time>2013-11-24T13:54:32Z</time>
      </trkpt>
      <trkpt lat="43.43647" lon="6.50932">
        <ele>50.8</ele>
        <time>2013-11-24T13:54:47Z</time>
      </trkpt>
      <trkpt lat="43.43643" lon="6.50921">
        <ele>50.8</ele>
        <time>2013-11-24T13:54:59Z</time>
      </trkpt>
      <trkpt lat="43.4365" lon="6.50927">
        <ele>50.7</ele>
        <time>2013-11-24T13:55:20Z</time>
      </trkpt>
      <trkpt lat="43.43651" lon="6.50927">
        <ele>50.7</ele>
        <time>2013-11-24T13:55:21Z</time>
      </trkpt>
      <trkpt lat="43.43645" lon="6.50908">
        <ele>50.2</ele>
        <time>2013-11-24T13:55:55Z</time>
      </trkpt>
      <trkpt lat="43.43651" lon="6.50899">
        <ele>49</ele>
        <time>2013-11-24T13:56:07Z</time>
      </trkpt>
      <trkpt lat="43.43657" lon="6.50892">
        <ele>47.7</ele>
        <time>2013-11-24T13:56:18Z</time>
      </trkpt>
      <trkpt lat="43.43662" lon="6.50882">
        <ele>46.4</ele>
        <time>2013-11-24T13:56:28Z</time>
      </trkpt>
      <trkpt lat="43.43662" lon="6.50881">
        <ele>46.4</ele>
        <time>2013-11-24T13:56:29Z</time>
      </trkpt>
      <trkpt lat="43.4366" lon="6.50858">
        <ele>44.7</ele>
        <time>2013-11-24T13:56:48Z</time>
      </trkpt>
      <trkpt lat="43.43657" lon="6.50848">
        <ele>44.2</ele>
        <time>2013-11-24T13:56:56Z</time>
      </trkpt>
      <trkpt lat="43.43656" lon="6.50837">
        <ele>44.2</ele>
        <time>2013-11-24T13:57:03Z</time>
      </trkpt>
      <trkpt lat="43.43662" lon="6.50829">
        <ele>43.5</ele>
        <time>2013-11-24T13:57:10Z</time>
      </trkpt>
      <trkpt lat="43.43669" lon="6.50824">
        <ele>43.8</ele>
        <time>2013-11-24T13:57:17Z</time>
      </trkpt>
      <trkpt lat="43.43676" lon="6.50817">
        <ele>42.9</ele>
        <time>2013-11-24T13:57:27Z</time>
      </trkpt>
      <trkpt lat="43.4368" lon="6.50808">
        <ele>42.2</ele>
        <time>2013-11-24T13:57:35Z</time>
      </trkpt>
      <trkpt lat="43.4368" lon="6.50806">
        <ele>42</ele>
        <time>2013-11-24T13:57:36Z</time>
      </trkpt>
      <trkpt lat="43.43689" lon="6.50788">
        <ele>41.8</ele>
        <time>2013-11-24T13:57:51Z</time>
      </trkpt>
      <trkpt lat="43.43692" lon="6.50777">
        <ele>40.5</ele>
        <time>2013-11-24T13:57:59Z</time>
      </trkpt>
      <trkpt lat="43.43697" lon="6.50767">
        <ele>39.5</ele>
        <time>2013-11-24T13:58:07Z</time>
      </trkpt>
      <trkpt lat="43.43699" lon="6.50756">
        <ele>39</ele>
        <time>2013-11-24T13:58:15Z</time>
      </trkpt>
      <trkpt lat="43.437" lon="6.50744">
        <ele>37.8</ele>
        <time>2013-11-24T13:58:23Z</time>
      </trkpt>
      <trkpt lat="43.43701" lon="6.50732">
        <ele>37.6</ele>
        <time>2013-11-24T13:58:31Z</time>
      </trkpt>
      <trkpt lat="43.43705" lon="6.50723">
        <ele>37.7</ele>
        <time>2013-11-24T13:58:38Z</time>
      </trkpt>
      <trkpt lat="43.43705" lon="6.5072">
        <ele>37.6</ele>
        <time>2013-11-24T13:58:39Z</time>
      </trkpt>
      <trkpt lat="43.4371" lon="6.50702">
        <ele>37.1</ele>
        <time>2013-11-24T13:58:52Z</time>
      </trkpt>
      <trkpt lat="43.43712" lon="6.50692">
        <ele>37</ele>
        <time>2013-11-24T13:58:59Z</time>
      </trkpt>
      <trkpt lat="43.43712" lon="6.50681">
        <ele>37.1</ele>
        <time>2013-11-24T13:59:07Z</time>
      </trkpt>
      <trkpt lat="43.43715" lon="6.50671">
        <ele>36.5</ele>
        <time>2013-11-24T13:59:14Z</time>
      </trkpt>
      <trkpt lat="43.43719" lon="6.50661">
        <ele>35.9</ele>
        <time>2013-11-24T13:59:21Z</time>
      </trkpt>
      <trkpt lat="43.4372" lon="6.5065">
        <ele>35.3</ele>
        <time>2013-11-24T13:59:28Z</time>
      </trkpt>
      <trkpt lat="43.43722" lon="6.50638">
        <ele>35.5</ele>
        <time>2013-11-24T13:59:36Z</time>
      </trkpt>
      <trkpt lat="43.43724" lon="6.50627">
        <ele>36.5</ele>
        <time>2013-11-24T13:59:42Z</time>
      </trkpt>
      <trkpt lat="43.43725" lon="6.50626">
        <ele>36.2</ele>
        <time>2013-11-24T13:59:43Z</time>
      </trkpt>
      <trkpt lat="43.43731" lon="6.50609">
        <ele>35.2</ele>
        <time>2013-11-24T13:59:53Z</time>
      </trkpt>
      <trkpt lat="43.43731" lon="6.50598">
        <ele>34.6</ele>
        <time>2013-11-24T13:59:59Z</time>
      </trkpt>
      <trkpt lat="43.43729" lon="6.50587">
        <ele>34.7</ele>
        <time>2013-11-24T14:00:09Z</time>
      </trkpt>
      <trkpt lat="43.43731" lon="6.50575">
        <ele>34.2</ele>
        <time>2013-11-24T14:00:18Z</time>
      </trkpt>
      <trkpt lat="43.43732" lon="6.50564">
        <ele>34.9</ele>
        <time>2013-11-24T14:00:26Z</time>
      </trkpt>
      <trkpt lat="43.4373" lon="6.50552">
        <ele>35.6</ele>
        <time>2013-11-24T14:00:35Z</time>
      </trkpt>
      <trkpt lat="43.4373" lon="6.5054">
        <ele>34.7</ele>
        <time>2013-11-24T14:00:42Z</time>
      </trkpt>
      <trkpt lat="43.43729" lon="6.50529">
        <ele>35.4</ele>
        <time>2013-11-24T14:00:49Z</time>
      </trkpt>
      <trkpt lat="43.43729" lon="6.50527">
        <ele>35.5</ele>
        <time>2013-11-24T14:00:50Z</time>
      </trkpt>
      <trkpt lat="43.43729" lon="6.50506">
        <ele>34.9</ele>
        <time>2013-11-24T14:01:04Z</time>
      </trkpt>
      <trkpt lat="43.43734" lon="6.50498">
        <ele>34</ele>
        <time>2013-11-24T14:01:11Z</time>
      </trkpt>
      <trkpt lat="43.43737" lon="6.50487">
        <ele>34.1</ele>
        <time>2013-11-24T14:01:18Z</time>
      </trkpt>
      <trkpt lat="43.43742" lon="6.50479">
        <ele>33.2</ele>
        <time>2013-11-24T14:01:25Z</time>
      </trkpt>
      <trkpt lat="43.43746" lon="6.50468">
        <ele>32.9</ele>
        <time>2013-11-24T14:01:30Z</time>
      </trkpt>
      <trkpt lat="43.43744" lon="6.50456">
        <ele>33.3</ele>
        <time>2013-11-24T14:01:41Z</time>
      </trkpt>
      <trkpt lat="43.43742" lon="6.50446">
        <ele>33.4</ele>
        <time>2013-11-24T14:01:46Z</time>
      </trkpt>
      <trkpt lat="43.43738" lon="6.50436">
        <ele>33.1</ele>
        <time>2013-11-24T14:01:52Z</time>
      </trkpt>
      <trkpt lat="43.43738" lon="6.50433">
        <ele>33.3</ele>
        <time>2013-11-24T14:01:53Z</time>
      </trkpt>
      <trkpt lat="43.43731" lon="6.50416">
        <ele>33.8</ele>
        <time>2013-11-24T14:02:06Z</time>
      </trkpt>
      <trkpt lat="43.43726" lon="6.50407">
        <ele>34.7</ele>
        <time>2013-11-24T14:02:15Z</time>
      </trkpt>
      <trkpt lat="43.43725" lon="6.50395">
        <ele>34.9</ele>
        <time>2013-11-24T14:02:25Z</time>
      </trkpt>
      <trkpt lat="43.43723" lon="6.50386">
        <ele>35.1</ele>
        <time>2013-11-24T14:02:32Z</time>
      </trkpt>
      <trkpt lat="43.43719" lon="6.50375">
        <ele>35.4</ele>
        <time>2013-11-24T14:02:39Z</time>
      </trkpt>
      <trkpt lat="43.4372" lon="6.50364">
        <ele>34.9</ele>
        <time>2013-11-24T14:02:45Z</time>
      </trkpt>
      <trkpt lat="43.43715" lon="6.50354">
        <ele>35.1</ele>
        <time>2013-11-24T14:02:51Z</time>
      </trkpt>
      <trkpt lat="43.43712" lon="6.50345">
        <ele>35</ele>
        <time>2013-11-24T14:02:58Z</time>
      </trkpt>
      <trkpt lat="43.43711" lon="6.50343">
        <ele>35.1</ele>
        <time>2013-11-24T14:02:59Z</time>
      </trkpt>
      <trkpt lat="43.43706" lon="6.50323">
        <ele>35.1</ele>
        <time>2013-11-24T14:03:15Z</time>
      </trkpt>
      <trkpt lat="43.43703" lon="6.50313">
        <ele>35.4</ele>
        <time>2013-11-24T14:03:20Z</time>
      </trkpt>
      <trkpt lat="43.43702" lon="6.50302">
        <ele>35.7</ele>
        <time>2013-11-24T14:03:29Z</time>
      </trkpt>
      <trkpt lat="43.43699" lon="6.50292">
        <ele>35.4</ele>
        <time>2013-11-24T14:03:35Z</time>
      </trkpt>
      <trkpt lat="43.43696" lon="6.50281">
        <ele>35.1</ele>
        <time>2013-11-24T14:03:42Z</time>
      </trkpt>
      <trkpt lat="43.43694" lon="6.5027">
        <ele>35.1</ele>
        <time>2013-11-24T14:03:50Z</time>
      </trkpt>
      <trkpt lat="43.43692" lon="6.50259">
        <ele>35.1</ele>
        <time>2013-11-24T14:03:58Z</time>
      </trkpt>
      <trkpt lat="43.43695" lon="6.50248">
        <ele>35.4</ele>
        <time>2013-11-24T14:04:06Z</time>
      </trkpt>
      <trkpt lat="43.43695" lon="6.50246">
        <ele>35.4</ele>
        <time>2013-11-24T14:04:07Z</time>
      </trkpt>
      <trkpt lat="43.43694" lon="6.50225">
        <ele>35.4</ele>
        <time>2013-11-24T14:04:30Z</time>
      </trkpt>
      <trkpt lat="43.43702" lon="6.5023">
        <ele>35.5</ele>
        <time>2013-11-24T14:04:40Z</time>
      </trkpt>
      <trkpt lat="43.43694" lon="6.50234">
        <ele>35.3</ele>
        <time>2013-11-24T14:04:53Z</time>
      </trkpt>
      <trkpt lat="43.43686" lon="6.50232">
        <ele>35.3</ele>
        <time>2013-11-24T14:05:18Z</time>
      </trkpt>
      <trkpt lat="43.43686" lon="6.50231">
        <ele>35.4</ele>
        <time>2013-11-24T14:05:19Z</time>
      </trkpt>
      <trkpt lat="43.43681" lon="6.50211">
        <ele>35.9</ele>
        <time>2013-11-24T14:05:37Z</time>
      </trkpt>
      <trkpt lat="43.43678" lon="6.50202">
        <ele>36.8</ele>
        <time>2013-11-24T14:05:46Z</time>
      </trkpt>
      <trkpt lat="43.43673" lon="6.50192">
        <ele>37.7</ele>
        <time>2013-11-24T14:05:52Z</time>
      </trkpt>
      <trkpt lat="43.43673" lon="6.5018">
        <ele>37.8</ele>
        <time>2013-11-24T14:05:59Z</time>
      </trkpt>
      <trkpt lat="43.43675" lon="6.50169">
        <ele>36.9</ele>
        <time>2013-11-24T14:06:09Z</time>
      </trkpt>
      <trkpt lat="43.43678" lon="6.50158">
        <ele>36.9</ele>
        <time>2013-11-24T14:06:19Z</time>
      </trkpt>
      <trkpt lat="43.43678" lon="6.50156">
        <ele>36.9</ele>
        <time>2013-11-24T14:06:20Z</time>
      </trkpt>
      <trkpt lat="43.43672" lon="6.50136">
        <ele>37.1</ele>
        <time>2013-11-24T14:06:32Z</time>
      </trkpt>
      <trkpt lat="43.43668" lon="6.50125">
        <ele>37.3</ele>
        <time>2013-11-24T14:06:35Z</time>
      </trkpt>
      <trkpt lat="43.43667" lon="6.50114">
        <ele>37.3</ele>
        <time>2013-11-24T14:06:43Z</time>
      </trkpt>
      <trkpt lat="43.4367" lon="6.50102">
        <ele>37.9</ele>
        <time>2013-11-24T14:06:53Z</time>
      </trkpt>
      <trkpt lat="43.43665" lon="6.50092">
        <ele>39.2</ele>
        <time>2013-11-24T14:07:03Z</time>
      </trkpt>
      <trkpt lat="43.43664" lon="6.50081">
        <ele>39.7</ele>
        <time>2013-11-24T14:07:14Z</time>
      </trkpt>
      <trkpt lat="43.4366" lon="6.50072">
        <ele>40</ele>
        <time>2013-11-24T14:07:19Z</time>
      </trkpt>
      <trkpt lat="43.43654" lon="6.50065">
        <ele>40.5</ele>
        <time>2013-11-24T14:07:23Z</time>
      </trkpt>
      <trkpt lat="43.43652" lon="6.50065">
        <ele>40.6</ele>
        <time>2013-11-24T14:07:24Z</time>
      </trkpt>
      <trkpt lat="43.43641" lon="6.50053">
        <ele>41.1</ele>
        <time>2013-11-24T14:07:37Z</time>
      </trkpt>
      <trkpt lat="43.43634" lon="6.50047">
        <ele>41</ele>
        <time>2013-11-24T14:07:41Z</time>
      </trkpt>
      <trkpt lat="43.43627" lon="6.5004">
        <ele>40.6</ele>
        <time>2013-11-24T14:07:47Z</time>
      </trkpt>
      <trkpt lat="43.43626" lon="6.50029">
        <ele>40.3</ele>
        <time>2013-11-24T14:07:55Z</time>
      </trkpt>
      <trkpt lat="43.43629" lon="6.50017">
        <ele>41</ele>
        <time>2013-11-24T14:08:06Z</time>
      </trkpt>
      <trkpt lat="43.43634" lon="6.50007">
        <ele>41.7</ele>
        <time>2013-11-24T14:08:15Z</time>
      </trkpt>
      <trkpt lat="43.43638" lon="6.49997">
        <ele>42</ele>
        <time>2013-11-24T14:08:23Z</time>
      </trkpt>
      <trkpt lat="43.43639" lon="6.49985">
        <ele>40.8</ele>
        <time>2013-11-24T14:08:31Z</time>
      </trkpt>
      <trkpt lat="43.43639" lon="6.49984">
        <ele>40.7</ele>
        <time>2013-11-24T14:08:32Z</time>
      </trkpt>
      <trkpt lat="43.43638" lon="6.49961">
        <ele>38.7</ele>
        <time>2013-11-24T14:08:49Z</time>
      </trkpt>
      <trkpt lat="43.4364" lon="6.4995">
        <ele>38.3</ele>
        <time>2013-11-24T14:08:57Z</time>
      </trkpt>
      <trkpt lat="43.43642" lon="6.49939">
        <ele>37.3</ele>
        <time>2013-11-24T14:09:09Z</time>
      </trkpt>
      <trkpt lat="43.4364" lon="6.49927">
        <ele>37.5</ele>
        <time>2013-11-24T14:09:16Z</time>
      </trkpt>
      <trkpt lat="43.43634" lon="6.4992">
        <ele>36.9</ele>
        <time>2013-11-24T14:09:21Z</time>
      </trkpt>
      <trkpt lat="43.43629" lon="6.4991">
        <ele>36.3</ele>
        <time>2013-11-24T14:09:28Z</time>
      </trkpt>
      <trkpt lat="43.43623" lon="6.49903">
        <ele>36</ele>
        <time>2013-11-24T14:09:36Z</time>
      </trkpt>
      <trkpt lat="43.43621" lon="6.49901">
        <ele>35.8</ele>
        <time>2013-11-24T14:09:37Z</time>
      </trkpt>
      <trkpt lat="43.43611" lon="6.49886">
        <ele>34</ele>
        <time>2013-11-24T14:09:48Z</time>
      </trkpt>
      <trkpt lat="43.43605" lon="6.49879">
        <ele>32.6</ele>
        <time>2013-11-24T14:09:56Z</time>
      </trkpt>
      <trkpt lat="43.43606" lon="6.49867">
        <ele>32.7</ele>
        <time>2013-11-24T14:10:06Z</time>
      </trkpt>
      <trkpt lat="43.43613" lon="6.4986">
        <ele>32.5</ele>
        <time>2013-11-24T14:10:13Z</time>
      </trkpt>
      <trkpt lat="43.43618" lon="6.49851">
        <ele>33.2</ele>
        <time>2013-11-24T14:10:24Z</time>
      </trkpt>
      <trkpt lat="43.43621" lon="6.4984">
        <ele>35</ele>
        <time>2013-11-24T14:10:38Z</time>
      </trkpt>
      <trkpt lat="43.43621" lon="6.49839">
        <ele>35</ele>
        <time>2013-11-24T14:10:39Z</time>
      </trkpt>
      <trkpt lat="43.43624" lon="6.49817">
        <ele>37</ele>
        <time>2013-11-24T14:10:58Z</time>
      </trkpt>
      <trkpt lat="43.43621" lon="6.49806">
        <ele>36.8</ele>
        <time>2013-11-24T14:11:04Z</time>
      </trkpt>
      <trkpt lat="43.43618" lon="6.49794">
        <ele>36.1</ele>
        <time>2013-11-24T14:11:12Z</time>
      </trkpt>
      <trkpt lat="43.43619" lon="6.49783">
        <ele>36.9</ele>
        <time>2013-11-24T14:11:19Z</time>
      </trkpt>
      <trkpt lat="43.43615" lon="6.49772">
        <ele>36.9</ele>
        <time>2013-11-24T14:11:27Z</time>
      </trkpt>
      <trkpt lat="43.43612" lon="6.49761">
        <ele>37</ele>
        <time>2013-11-24T14:11:34Z</time>
      </trkpt>
      <trkpt lat="43.43609" lon="6.4975">
        <ele>38.2</ele>
        <time>2013-11-24T14:11:46Z</time>
      </trkpt>
      <trkpt lat="43.4361" lon="6.49749">
        <ele>38.3</ele>
        <time>2013-11-24T14:11:47Z</time>
      </trkpt>
      <trkpt lat="43.43613" lon="6.49729">
        <ele>38.8</ele>
        <time>2013-11-24T14:12:02Z</time>
      </trkpt>
      <trkpt lat="43.43613" lon="6.49717">
        <ele>38.6</ele>
        <time>2013-11-24T14:12:09Z</time>
      </trkpt>
      <trkpt lat="43.43618" lon="6.49707">
        <ele>38.9</ele>
        <time>2013-11-24T14:12:20Z</time>
      </trkpt>
      <trkpt lat="43.43617" lon="6.49695">
        <ele>39.5</ele>
        <time>2013-11-24T14:12:28Z</time>
      </trkpt>
      <trkpt lat="43.43618" lon="6.49684">
        <ele>40.7</ele>
        <time>2013-11-24T14:12:39Z</time>
      </trkpt>
      <trkpt lat="43.4362" lon="6.49673">
        <ele>41.5</ele>
        <time>2013-11-24T14:12:47Z</time>
      </trkpt>
      <trkpt lat="43.43621" lon="6.49672">
        <ele>41.7</ele>
        <time>2013-11-24T14:12:48Z</time>
      </trkpt>
      <trkpt lat="43.43627" lon="6.49652">
        <ele>43.6</ele>
        <time>2013-11-24T14:13:09Z</time>
      </trkpt>
      <trkpt lat="43.43634" lon="6.49645">
        <ele>43.4</ele>
        <time>2013-11-24T14:13:15Z</time>
      </trkpt>
      <trkpt lat="43.43631" lon="6.49635">
        <ele>42.3</ele>
        <time>2013-11-24T14:13:24Z</time>
      </trkpt>
      <trkpt lat="43.43629" lon="6.49624">
        <ele>41.8</ele>
        <time>2013-11-24T14:13:31Z</time>
      </trkpt>
      <trkpt lat="43.43631" lon="6.49613">
        <ele>40.5</ele>
        <time>2013-11-24T14:13:39Z</time>
      </trkpt>
      <trkpt lat="43.43629" lon="6.49603">
        <ele>40.1</ele>
        <time>2013-11-24T14:13:44Z</time>
      </trkpt>
      <trkpt lat="43.43631" lon="6.49592">
        <ele>38.1</ele>
        <time>2013-11-24T14:13:51Z</time>
      </trkpt>
      <trkpt lat="43.4363" lon="6.4959">
        <ele>38.1</ele>
        <time>2013-11-24T14:13:52Z</time>
      </trkpt>
      <trkpt lat="43.43632" lon="6.49574">
        <ele>37.3</ele>
        <time>2013-11-24T14:14:05Z</time>
      </trkpt>
      <trkpt lat="43.43633" lon="6.49562">
        <ele>36.7</ele>
        <time>2013-11-24T14:14:13Z</time>
      </trkpt>
      <trkpt lat="43.43634" lon="6.49551">
        <ele>37.2</ele>
        <time>2013-11-24T14:14:21Z</time>
      </trkpt>
      <trkpt lat="43.43638" lon="6.4954">
        <ele>36.6</ele>
        <time>2013-11-24T14:14:29Z</time>
      </trkpt>
      <trkpt lat="43.43639" lon="6.49529">
        <ele>36.6</ele>
        <time>2013-11-24T14:14:38Z</time>
      </trkpt>
      <trkpt lat="43.43643" lon="6.49519">
        <ele>37.3</ele>
        <time>2013-11-24T14:14:47Z</time>
      </trkpt>
      <trkpt lat="43.43649" lon="6.49512">
        <ele>37.6</ele>
        <time>2013-11-24T14:14:52Z</time>
      </trkpt>
      <trkpt lat="43.4365" lon="6.49511">
        <ele>37.7</ele>
        <time>2013-11-24T14:14:53Z</time>
      </trkpt>
      <trkpt lat="43.43649" lon="6.49489">
        <ele>38.3</ele>
        <time>2013-11-24T14:15:09Z</time>
      </trkpt>
      <trkpt lat="43.43651" lon="6.49477">
        <ele>38.2</ele>
        <time>2013-11-24T14:15:18Z</time>
      </trkpt>
      <trkpt lat="43.4365" lon="6.49465">
        <ele>38.3</ele>
        <time>2013-11-24T14:15:26Z</time>
      </trkpt>
      <trkpt lat="43.4365" lon="6.49454">
        <ele>38.6</ele>
        <time>2013-11-24T14:15:35Z</time>
      </trkpt>
      <trkpt lat="43.43654" lon="6.49444">
        <ele>37.9</ele>
        <time>2013-11-24T14:15:44Z</time>
      </trkpt>
      <trkpt lat="43.43654" lon="6.49433">
        <ele>37.3</ele>
        <time>2013-11-24T14:15:51Z</time>
      </trkpt>
      <trkpt lat="43.43656" lon="6.49422">
        <ele>37.6</ele>
        <time>2013-11-24T14:15:57Z</time>
      </trkpt>
      <trkpt lat="43.43658" lon="6.49421">
        <ele>37.8</ele>
        <time>2013-11-24T14:15:58Z</time>
      </trkpt>
      <trkpt lat="43.43666" lon="6.49408">
        <ele>37.1</ele>
        <time>2013-11-24T14:16:07Z</time>
      </trkpt>
      <trkpt lat="43.43666" lon="6.49396">
        <ele>37.7</ele>
        <time>2013-11-24T14:16:15Z</time>
      </trkpt>
      <trkpt lat="43.43669" lon="6.49385">
        <ele>38.4</ele>
        <time>2013-11-24T14:16:22Z</time>
      </trkpt>
      <trkpt lat="43.43671" lon="6.49374">
        <ele>38.9</ele>
        <time>2013-11-24T14:16:29Z</time>
      </trkpt>
      <trkpt lat="43.4367" lon="6.49364">
        <ele>38.8</ele>
        <time>2013-11-24T14:16:36Z</time>
      </trkpt>
      <trkpt lat="43.43666" lon="6.49354">
        <ele>37.7</ele>
        <time>2013-11-24T14:16:43Z</time>
      </trkpt>
      <trkpt lat="43.43668" lon="6.49343">
        <ele>37.5</ele>
        <time>2013-11-24T14:16:51Z</time>
      </trkpt>
      <trkpt lat="43.43672" lon="6.49332">
        <ele>37.2</ele>
        <time>2013-11-24T14:17:02Z</time>
      </trkpt>
      <trkpt lat="43.43673" lon="6.49331">
        <ele>37.2</ele>
        <time>2013-11-24T14:17:03Z</time>
      </trkpt>
      <trkpt lat="43.43677" lon="6.4931">
        <ele>38.3</ele>
        <time>2013-11-24T14:17:21Z</time>
      </trkpt>
      <trkpt lat="43.4368" lon="6.49299">
        <ele>38.8</ele>
        <time>2013-11-24T14:17:31Z</time>
      </trkpt>
      <trkpt lat="43.43686" lon="6.4929">
        <ele>38.2</ele>
        <time>2013-11-24T14:17:38Z</time>
      </trkpt>
      <trkpt lat="43.43691" lon="6.49281">
        <ele>37.7</ele>
        <time>2013-11-24T14:17:49Z</time>
      </trkpt>
      <trkpt lat="43.43699" lon="6.49276">
        <ele>37.6</ele>
        <time>2013-11-24T14:17:53Z</time>
      </trkpt>
      <trkpt lat="43.43702" lon="6.49265">
        <ele>36.7</ele>
        <time>2013-11-24T14:18:01Z</time>
      </trkpt>
      <trkpt lat="43.43706" lon="6.49256">
        <ele>36.3</ele>
        <time>2013-11-24T14:18:09Z</time>
      </trkpt>
      <trkpt lat="43.43708" lon="6.49255">
        <ele>36.3</ele>
        <time>2013-11-24T14:18:10Z</time>
      </trkpt>
      <trkpt lat="43.43713" lon="6.49238">
        <ele>36.6</ele>
        <time>2013-11-24T14:18:28Z</time>
      </trkpt>
      <trkpt lat="43.43716" lon="6.49227">
        <ele>36.1</ele>
        <time>2013-11-24T14:18:35Z</time>
      </trkpt>
      <trkpt lat="43.43721" lon="6.49218">
        <ele>35.4</ele>
        <time>2013-11-24T14:18:43Z</time>
      </trkpt>
      <trkpt lat="43.43722" lon="6.49206">
        <ele>35.9</ele>
        <time>2013-11-24T14:18:48Z</time>
      </trkpt>
      <trkpt lat="43.43724" lon="6.49196">
        <ele>35.9</ele>
        <time>2013-11-24T14:18:55Z</time>
      </trkpt>
      <trkpt lat="43.43725" lon="6.49184">
        <ele>36.1</ele>
        <time>2013-11-24T14:19:03Z</time>
      </trkpt>
      <trkpt lat="43.43725" lon="6.49173">
        <ele>35.8</ele>
        <time>2013-11-24T14:19:08Z</time>
      </trkpt>
      <trkpt lat="43.43723" lon="6.49163">
        <ele>36.4</ele>
        <time>2013-11-24T14:19:14Z</time>
      </trkpt>
      <trkpt lat="43.43723" lon="6.49161">
        <ele>36.6</ele>
        <time>2013-11-24T14:19:15Z</time>
      </trkpt>
      <trkpt lat="43.43721" lon="6.4914">
        <ele>36.3</ele>
        <time>2013-11-24T14:19:27Z</time>
      </trkpt>
      <trkpt lat="43.43728" lon="6.49137">
        <ele>36.4</ele>
        <time>2013-11-24T14:19:32Z</time>
      </trkpt>
      <trkpt lat="43.43734" lon="6.49133">
        <ele>36.4</ele>
        <time>2013-11-24T14:19:35Z</time>
      </trkpt>
      <trkpt lat="43.43735" lon="6.49121">
        <ele>36.1</ele>
        <time>2013-11-24T14:19:43Z</time>
      </trkpt>
      <trkpt lat="43.43736" lon="6.49109">
        <ele>36.3</ele>
        <time>2013-11-24T14:19:50Z</time>
      </trkpt>
      <trkpt lat="43.43738" lon="6.49098">
        <ele>37.5</ele>
        <time>2013-11-24T14:20:00Z</time>
      </trkpt>
      <trkpt lat="43.43743" lon="6.4909">
        <ele>38.2</ele>
        <time>2013-11-24T14:20:08Z</time>
      </trkpt>
      <trkpt lat="43.43746" lon="6.49078">
        <ele>37.9</ele>
        <time>2013-11-24T14:20:17Z</time>
      </trkpt>
      <trkpt lat="43.43746" lon="6.49076">
        <ele>38</ele>
        <time>2013-11-24T14:20:18Z</time>
      </trkpt>
      <trkpt lat="43.43754" lon="6.49058">
        <ele>38.6</ele>
        <time>2013-11-24T14:20:31Z</time>
      </trkpt>
      <trkpt lat="43.43757" lon="6.49047">
        <ele>38.7</ele>
        <time>2013-11-24T14:20:37Z</time>
      </trkpt>
      <trkpt lat="43.43756" lon="6.49036">
        <ele>38.8</ele>
        <time>2013-11-24T14:20:44Z</time>
      </trkpt>
      <trkpt lat="43.43757" lon="6.49023">
        <ele>39.1</ele>
        <time>2013-11-24T14:20:53Z</time>
      </trkpt>
      <trkpt lat="43.43757" lon="6.49012">
        <ele>39.5</ele>
        <time>2013-11-24T14:21:02Z</time>
      </trkpt>
      <trkpt lat="43.4376" lon="6.49">
        <ele>39.6</ele>
        <time>2013-11-24T14:21:09Z</time>
      </trkpt>
      <trkpt lat="43.43758" lon="6.48988">
        <ele>39</ele>
        <time>2013-11-24T14:21:16Z</time>
      </trkpt>
      <trkpt lat="43.4376" lon="6.48976">
        <ele>38.8</ele>
        <time>2013-11-24T14:21:24Z</time>
      </trkpt>
      <trkpt lat="43.43761" lon="6.48975">
        <ele>38.8</ele>
        <time>2013-11-24T14:21:25Z</time>
      </trkpt>
      <trkpt lat="43.43762" lon="6.48952">
        <ele>38.7</ele>
        <time>2013-11-24T14:21:40Z</time>
      </trkpt>
      <trkpt lat="43.43768" lon="6.48944">
        <ele>38.5</ele>
        <time>2013-11-24T14:21:46Z</time>
      </trkpt>
      <trkpt lat="43.43772" lon="6.48934">
        <ele>38.7</ele>
        <time>2013-11-24T14:21:54Z</time>
      </trkpt>
      <trkpt lat="43.43778" lon="6.48926">
        <ele>38.9</ele>
        <time>2013-11-24T14:22:01Z</time>
      </trkpt>
      <trkpt lat="43.43779" lon="6.48915">
        <ele>38.4</ele>
        <time>2013-11-24T14:22:11Z</time>
      </trkpt>
      <trkpt lat="43.4378" lon="6.48903">
        <ele>38.4</ele>
        <time>2013-11-24T14:22:18Z</time>
      </trkpt>
      <trkpt lat="43.43779" lon="6.48892">
        <ele>39.1</ele>
        <time>2013-11-24T14:22:23Z</time>
      </trkpt>
      <trkpt lat="43.43782" lon="6.48881">
        <ele>38.5</ele>
        <time>2013-11-24T14:22:28Z</time>
      </trkpt>
      <trkpt lat="43.43785" lon="6.4888">
        <ele>38.8</ele>
        <time>2013-11-24T14:22:29Z</time>
      </trkpt>
      <trkpt lat="43.43787" lon="6.48859">
        <ele>38.9</ele>
        <time>2013-11-24T14:22:45Z</time>
      </trkpt>
      <trkpt lat="43.43791" lon="6.48849">
        <ele>39.5</ele>
        <time>2013-11-24T14:22:53Z</time>
      </trkpt>
      <trkpt lat="43.43793" lon="6.48838">
        <ele>39.7</ele>
        <time>2013-11-24T14:23:02Z</time>
      </trkpt>
      <trkpt lat="43.43792" lon="6.48828">
        <ele>39.7</ele>
        <time>2013-11-24T14:23:08Z</time>
      </trkpt>
      <trkpt lat="43.43791" lon="6.48817">
        <ele>40</ele>
        <time>2013-11-24T14:23:16Z</time>
      </trkpt>
      <trkpt lat="43.43789" lon="6.48806">
        <ele>40.5</ele>
        <time>2013-11-24T14:23:25Z</time>
      </trkpt>
      <trkpt lat="43.43784" lon="6.48796">
        <ele>40.4</ele>
        <time>2013-11-24T14:23:33Z</time>
      </trkpt>
      <trkpt lat="43.43783" lon="6.48795">
        <ele>40.3</ele>
        <time>2013-11-24T14:23:34Z</time>
      </trkpt>
      <trkpt lat="43.43774" lon="6.48777">
        <ele>39.7</ele>
        <time>2013-11-24T14:23:47Z</time>
      </trkpt>
      <trkpt lat="43.43772" lon="6.48766">
        <ele>39.5</ele>
        <time>2013-11-24T14:23:56Z</time>
      </trkpt>
      <trkpt lat="43.43766" lon="6.48757">
        <ele>39.1</ele>
        <time>2013-11-24T14:24:05Z</time>
      </trkpt>
    </trkseg>
  </trk>
</gpx>